GFSNE_850_dewp_000.txt.gz
Dewpoint
9 10 10 10 9 10 9 9 8 8 8 7 7 7 6 5 6 6 7 5 5 5 2 0 -1 -3 -4 -6 -8 -9 -14 -16 -6 -4 -4 -3 -3 -3
9 10 10 10 10 10 10 9 9 9 8 7 7 7 6 6 7 7 6 5 5 3 0 -1 -3 -5 -8 -12 -22 -19 -9 -5 -5 -4 -3 -3 -4 -4
7 9 10 10 10 10 10 9 10 9 9 8 8 8 7 7 7 8 5 6 4 -0 -1 -3 -6 -10 -23 -21 -20 -9 -6 -6 -5 -5 -5 -5 -4 -4
5 7 9 10 10 10 10 10 9 9 9 8 8 8 8 8 8 6 5 5 0 -1 -3 -6 -15 -23 -21 -20 -18 -15 -12 -8 -6 -6 -6 -6 -6 -6
5 6 6 9 10 10 10 10 9 8 8 8 8 8 8 8 7 5 5 1 -1 -2 -6 -17 -23 -22 -21 -20 -19 -18 -18 -17 -13 -8 -6 -6 -6 -6
3 5 6 8 8 9 10 10 9 9 9 9 9 9 9 8 6 5 2 -1 -2 -6 -15 -23 -22 -22 -21 -20 -20 -19 -18 -17 -10 -6 -7 -6 -6 -6
6 3 5 6 8 9 10 9 9 9 9 9 9 9 8 7 6 4 -1 -2 -6 -14 -24 -22 -19 -20 -20 -19 -18 -18 -17 -16 -6 -7 -7 -6 -6 -7
8 6 5 5 7 9 10 10 8 8 9 8 8 8 8 7 5 -1 -3 -6 -14 -19 -23 -23 -17 -19 -19 -17 -17 -18 -17 -15 -9 -7 -7 -7 -8 -8
3 9 9 8 6 6 10 10 7 8 7 9 8 8 8 6 -0 -4 -6 -12 -23 -20 -23 -22 -15 -17 -14 -15 -19 -18 -17 -17 -11 -9 -10 -9 -8 -8
6 6 9 9 8 6 8 9 7 6 7 7 9 8 6 1 -5 -7 -10 -24 -24 -23 -22 -20 -10 -10 -10 -14 -18 -20 -23 -22 -21 -24 -22 -14 -11 -9
7 1 5 9 7 6 8 8 8 8 9 9 8 7 3 -4 -7 -9 -20 -24 -22 -16 -19 -18 -13 -10 -17 -19 -16 -23 -26 -26 -24 -22 -18 -17 -15 -15
4 6 5 7 9 8 9 8 10 9 9 8 8 6 -1 -6 -7 -17 -20 -25 -24 -16 -12 -14 -10 -12 -17 -14 -18 -17 -16 -22 -19 -17 -17 -13 -12 -12
4 5 6 8 9 9 9 9 10 9 9 7 5 3 -2 -6 -15 -15 -21 -26 -23 -20 -13 -16 -16 -14 -13 -11 -18 -19 -21 -20 -17 -15 -14 -12 -12 -12
6 7 7 7 8 8 8 10 9 9 8 5 2 -2 -5 -10 -16 -14 -25 -24 -21 -19 -17 -17 -16 -17 -16 -15 -13 -16 -16 -20 -17 -14 -13 -12 -12 -11
4 5 7 8 8 8 8 9 9 8 7 4 1 -4 -9 -14 -12 -20 -25 -21 -19 -19 -18 -17 -16 -16 -16 -19 -17 -20 -15 -18 -17 -14 -12 -12 -11 -11
3 5 6 7 7 7 6 6 7 7 5 4 -2 -5 -16 -8 -14 -24 -22 -20 -19 -18 -18 -17 -16 -17 -20 -20 -20 -26 -21 -14 -15 -12 -12 -11 -11 -11
4 5 5 5 5 3 3 5 5 5 3 -0 -3 -7 -12 -6 -18 -21 -20 -19 -18 -16 -15 -15 -18 -21 -23 -25 -27 -24 -21 -16 -12 -11 -11 -11 -10 -10
5 4 4 4 4 4 4 4 3 4 0 -1 -4 -11 -4 -11 -12 -20 -19 -18 -17 -17 -16 -17 -22 -23 -27 -24 -21 -21 -20 -14 -12 -12 -11 -10 -10 -10
3 4 3 4 4 4 5 4 4 1 -1 -2 -7 -8 -6 -5 -18 -19 -19 -18 -18 -17 -17 -21 -23 -23 -24 -14 -19 -20 -14 -12 -11 -11 -11 -10 -10 -9
3 2 2 3 3 3 4 2 2 -1 -2 -5 -9 -4 -2 -9 -19 -19 -19 -18 -18 -17 -20 -24 -23 -26 -25 -23 -23 -14 -12 -11 -10 -10 -10 -9 -8 -7
-0 0 1 1 1 0 -1 -0 -0 -2 -2 -5 -7 -2 -3 -19 -19 -19 -19 -18 -18 -19 -24 -23 -26 -27 -27 -23 -16 -13 -11 -10 -9 -9 -9 -9 -8 -8
-1 -1 -0 -0 -1 -1 -1 -1 -1 -1 -3 -7 -2 -1 -12 -19 -19 -19 -18 -19 -19 -23 -24 -26 -27 -27 -23 -17 -15 -11 -10 -9 -9 -8 -8 -7 -8 -10
-1 -1 -1 -1 -1 -2 -2 -1 -1 -2 -4 -2 -1 -3 -20 -20 -19 -19 -19 -19 -22 -24 -25 -28 -26 -21 -18 -15 -10 -10 -9 -8 -8 -7 -6 -6 -7 -8

GFSNE_850_dewp_003.txt.gz
Dewpoint
7 6 7 8 10 10 10 10 9 9 8 8 7 7 6 6 6 6 6 6 7 7 6 5 5 2 -0 -2 -4 -8 -14 -23 -21 -10 -3 -3 -3 -2
9 8 7 5 8 10 10 10 10 9 9 8 8 8 7 7 7 7 7 7 7 7 6 6 4 0 -1 -5 -10 -21 -23 -22 -9 -5 -4 -4 -3 -3
11 11 10 8 9 9 10 10 10 9 9 9 9 8 7 7 7 7 7 7 7 5 5 6 2 -1 -4 -13 -23 -23 -23 -18 -7 -5 -4 -4 -5 -5
10 11 10 9 9 9 10 10 10 10 9 9 9 9 8 8 8 8 8 8 7 6 5 4 -1 -3 -12 -23 -24 -23 -21 -13 -17 -8 -6 -5 -5 -5
10 10 10 10 10 9 10 9 10 9 9 9 9 8 8 8 8 8 8 7 7 5 5 -0 -3 -10 -23 -25 -23 -22 -20 -19 -19 -18 -7 -5 -5 -5
9 8 10 10 10 10 10 9 9 9 9 9 8 8 8 8 8 8 7 7 5 4 1 -2 -8 -21 -26 -24 -22 -21 -20 -19 -18 -11 -6 -6 -6 -5
8 9 9 9 10 10 10 10 6 8 9 9 8 8 7 8 8 8 8 6 4 1 -2 -7 -18 -23 -26 -23 -21 -19 -19 -19 -17 -7 -6 -6 -6 -6
4 7 9 7 9 10 10 10 9 8 7 8 8 8 6 7 8 8 7 4 1 -2 -7 -16 -23 -26 -22 -19 -18 -15 -20 -19 -17 -6 -7 -7 -7 -7
1 2 7 9 9 9 9 9 9 9 8 8 7 6 6 5 7 7 7 4 -2 -6 -14 -21 -26 -23 -17 -16 -15 -19 -20 -19 -20 -8 -8 -11 -8 -8
2 3 6 8 9 9 9 9 9 9 9 9 8 7 5 5 7 7 5 -2 -7 -13 -20 -24 -23 -17 -13 -13 -18 -19 -21 -25 -28 -27 -25 -21 -14 -15
3 5 4 7 7 7 8 9 9 9 8 8 8 8 8 8 7 5 -1 -7 -14 -19 -21 -24 -22 -17 -16 -20 -20 -18 -22 -26 -24 -24 -19 -17 -16 -15
4 4 4 5 7 7 7 8 9 8 8 8 7 7 7 6 3 0 -6 -9 -19 -22 -16 -17 -17 -16 -20 -16 -17 -19 -18 -18 -16 -19 -17 -15 -16 -12
3 3 4 4 5 7 7 7 6 7 8 7 7 7 6 5 -1 -3 -7 -12 -22 -19 -16 -18 -18 -18 -18 -18 -22 -22 -19 -18 -19 -19 -17 -13 -12 -8
1 1 2 4 5 5 7 7 8 8 7 6 4 3 3 2 -0 -11 -11 -22 -20 -17 -19 -21 -18 -18 -18 -19 -21 -21 -21 -24 -21 -18 -16 -14 -12 -10
1 2 2 3 4 5 6 6 7 7 7 5 5 3 2 -1 -11 -2 -6 -25 -20 -18 -21 -20 -18 -18 -18 -19 -21 -24 -26 -25 -20 -15 -13 -12 -12 -12
1 2 2 3 4 4 5 5 5 6 5 5 3 4 -2 -5 -7 -4 -18 -18 -18 -21 -19 -18 -18 -19 -20 -23 -20 -25 -25 -18 -19 -14 -13 -12 -12 -11
1 2 3 3 3 4 4 4 3 2 3 3 5 1 -4 -5 -1 -9 -8 -15 -20 -19 -18 -18 -18 -20 -23 -23 -25 -22 -21 -21 -18 -13 -12 -12 -11 -11
0 2 2 2 2 3 3 2 1 1 2 2 2 -0 -3 -0 -1 -8 -10 -18 -19 -18 -17 -17 -18 -23 -25 -26 -19 -19 -19 -15 -13 -12 -11 -11 -11 -10
-1 -0 0 0 1 1 1 -0 -1 -1 -0 -1 -2 -4 -1 -1 -5 -5 -15 -19 -19 -17 -18 -19 -24 -23 -25 -22 -22 -18 -15 -13 -12 -11 -10 -10 -10 -9
-1 -2 -1 -1 -1 -1 -1 -2 -2 -2 -4 -3 -4 -2 -0 -1 -4 -12 -19 -19 -18 -18 -19 -24 -23 -26 -25 -24 -23 -14 -13 -11 -10 -9 -9 -9 -8 -8
-2 -2 -2 -2 -2 -2 -2 -2 -2 -3 -3 -3 -3 -1 -1 -3 -9 -18 -19 -18 -19 -19 -23 -23 -26 -26 -26 -20 -16 -13 -10 -9 -9 -9 -9 -9 -9 -8
-3 -3 -3 -2 -2 -3 -2 -2 -3 -3 -3 -2 -2 -2 -3 -6 -14 -19 -19 -19 -20 -23 -24 -27 -27 -23 -18 -18 -14 -10 -9 -8 -8 -7 -7 -7 -8 -9
-4 -3 -3 -3 -3 -3 -3 -4 -4 -3 -2 -1 -2 -3 -5 -7 -19 -19 -19 -20 -23 -24 -27 -28 -22 -18 -18 -12 -10 -8 -8 -7 -7 -6 -5 -7 -7 -7

GFSNE_850_dewp_006.txt.gz
Dewpoint
11 11 11 11 11 11 10 10 9 9 9 8 8 8 8 7 7 7 6 6 5 6 6 6 7 7 5 5 2 -1 -4 -9 -19 -23 -19 -5 -3 -2
11 11 11 11 11 11 10 10 9 9 9 9 9 8 8 8 8 7 7 6 6 6 7 7 7 6 5 5 -0 -2 -8 -21 -25 -24 -19 -4 -3 -3
10 10 10 10 10 10 10 10 9 9 9 9 9 9 9 8 8 8 7 7 7 7 7 7 7 5 5 3 -1 -6 -19 -27 -26 -23 -22 -5 -3 -4
6 9 8 9 9 10 10 10 10 9 9 9 9 9 9 9 9 8 8 8 7 7 7 8 6 5 5 1 -4 -15 -25 -28 -23 -23 -21 -14 -5 -5
6 6 6 7 9 9 9 10 10 9 9 9 9 9 9 9 8 8 8 8 7 7 8 7 6 5 4 -2 -12 -23 -30 -25 -22 -21 -20 -19 -6 -5
4 4 3 3 5 7 9 10 9 9 9 9 9 9 9 8 8 8 7 8 7 6 7 7 6 4 -1 -7 -17 -29 -26 -22 -21 -20 -19 -7 -5 -6
4 4 4 3 3 4 8 9 9 9 9 9 9 8 8 8 8 8 8 7 7 6 6 6 5 1 -5 -14 -25 -28 -22 -21 -21 -19 -10 -6 -6 -6
4 4 4 3 2 2 6 6 8 8 9 8 9 8 8 7 6 8 8 6 5 5 5 5 3 -4 -14 -20 -26 -23 -21 -20 -21 -20 -16 -6 -7 -7
3 3 3 5 5 5 4 4 6 7 8 9 9 8 8 8 5 7 7 7 6 6 5 3 -5 -13 -20 -21 -22 -19 -19 -19 -21 -21 -24 -8 -7 -7
1 2 3 4 5 5 5 4 6 7 7 8 8 8 8 8 7 7 7 6 6 3 1 -6 -11 -15 -18 -20 -20 -19 -17 -16 -20 -26 -27 -25 -11 -7
1 2 2 2 2 3 4 5 4 6 7 6 7 7 8 8 8 7 7 6 4 2 -4 -9 -17 -17 -17 -20 -19 -23 -23 -21 -22 -24 -23 -14 -11 -9
-12 -13 -5 -1 1 2 3 4 4 4 7 7 8 7 7 7 6 7 7 5 2 -2 -4 -9 -15 -14 -19 -20 -22 -24 -23 -23 -22 -22 -15 -12 -9 -9
-16 -14 -9 -3 -0 2 2 3 4 4 5 7 7 6 6 6 6 3 3 4 3 -1 -6 -10 -11 -19 -20 -21 -23 -23 -24 -22 -22 -23 -23 -20 -16 -10
-20 -15 -6 -1 -0 1 2 3 4 5 5 6 6 6 4 3 2 1 1 -0 -1 -6 -11 -10 -17 -21 -19 -21 -23 -24 -24 -24 -24 -23 -20 -16 -14 -11
-20 -13 -3 0 2 2 3 3 4 5 5 5 5 2 2 1 1 -0 -1 -6 -9 -4 -8 -17 -21 -19 -20 -22 -24 -26 -28 -27 -23 -18 -17 -15 -13 -12
-15 -8 -1 -0 1 1 1 2 4 4 4 4 2 1 1 -0 1 -2 -5 -3 -3 -4 -12 -21 -19 -19 -22 -23 -25 -29 -27 -22 -20 -20 -17 -13 -12 -12
-5 -3 -2 -1 -1 -0 -0 1 2 2 1 0 -0 -0 -0 -2 -2 -3 -2 -4 -2 -10 -20 -19 -19 -20 -22 -26 -28 -24 -19 -18 -18 -14 -13 -12 -11 -10
-4 -3 -3 -2 -2 -2 -1 -1 -0 -1 -1 -1 -1 -2 -1 -3 -3 -2 -3 -3 -12 -20 -19 -19 -20 -23 -26 -28 -21 -19 -18 -16 -14 -13 -12 -11 -10 -9
-5 -5 -3 -3 -3 -3 -2 -2 -2 -2 -2 -2 -3 -3 -3 -3 -4 -3 -4 -10 -19 -19 -19 -19 -22 -25 -25 -26 -22 -18 -16 -13 -11 -10 -9 -9 -9 -8
-6 -5 -4 -4 -3 -3 -3 -3 -3 -3 -3 -3 -4 -4 -3 -3 -4 -3 -7 -19 -19 -18 -20 -22 -25 -24 -25 -23 -20 -14 -14 -11 -10 -9 -8 -8 -8 -8
-7 -5 -5 -4 -4 -3 -4 -4 -4 -4 -4 -4 -4 -3 -3 -3 -4 -8 -19 -19 -18 -20 -23 -24 -25 -26 -24 -19 -16 -11 -9 -8 -7 -8 -8 -8 -9 -9
-7 -6 -5 -5 -4 -4 -4 -5 -5 -5 -5 -5 -4 -3 -3 -3 -6 -18 -19 -19 -21 -24 -24 -27 -26 -20 -17 -12 -10 -8 -7 -7 -7 -7 -7 -7 -8 -9
-7 -7 -6 -5 -5 -4 -5 -5 -6 -6 -6 -5 -5 -4 -3 -4 -17 -19 -18 -21 -24 -24 -28 -26 -18 -17 -12 -9 -8 -7 -7 -6 -7 -6 -5 -6 -7 -7

GFSNE_850_dewp_012.txt.gz
Dewpoint
3 3 4 4 4 4 6 7 10 10 10 9 9 9 8 6 5 5 6 5 4 7 7 7 7 6 6 6 6 6 7 8 6 5 5 5 1 -3
3 4 4 4 5 5 5 5 6 8 9 8 9 9 9 9 8 8 8 8 8 7 6 7 8 7 7 6 7 6 6 7 6 6 5 5 -0 -8
3 3 3 3 4 4 4 4 5 6 7 7 8 8 8 8 9 8 9 8 8 8 7 7 7 8 7 7 7 7 7 7 6 5 5 4 -3 -17
-0 2 2 3 3 3 3 4 4 4 5 6 7 7 7 7 8 8 8 8 8 7 6 7 7 8 8 7 8 7 7 7 6 5 4 0 -12 -15
1 1 1 -0 -1 -5 -1 2 2 3 4 5 5 5 6 7 7 7 7 8 8 8 7 6 7 7 8 7 7 7 7 6 5 3 2 -6 -22 -12
-2 -3 -2 -9 -10 -9 -1 1 2 4 4 5 5 5 5 6 7 7 7 7 7 8 7 7 7 7 8 8 7 7 6 5 4 3 -2 -8 -22 -19
-6 -6 -10 -18 -17 -2 -2 -12 -5 1 1 2 4 5 6 6 6 6 6 7 6 6 6 4 5 7 7 7 6 6 5 4 3 1 -7 -21 -19 -18
-9 -11 -14 -17 -11 -6 -20 -20 -14 -2 0 1 2 3 3 5 5 5 6 6 6 6 4 6 6 6 5 6 6 5 3 3 2 -3 -12 -20 -5 -5
-14 -17 -21 -17 -3 -7 -17 -19 -16 -9 -2 -0 1 2 3 3 4 5 5 6 5 6 6 5 5 5 4 4 3 2 1 1 -0 -7 -14 -6 -6 -8
-11 -17 -15 -6 -5 -7 -12 -9 -15 -10 -2 -1 -1 1 1 1 2 3 4 5 5 6 5 5 5 4 3 3 1 1 0 -1 -2 -4 -6 -5 -8 -9
-8 -7 -5 -5 -6 -5 -4 -4 -4 -3 -2 -1 -0 0 1 1 2 2 3 4 4 5 5 4 4 3 1 0 -0 -0 -1 -0 -3 -5 -5 -5 -6 -10
-6 -6 -7 -6 -6 -6 -5 -4 -4 -3 -2 -1 -0 0 1 1 2 2 3 3 4 3 4 3 1 -1 -2 -1 -1 -2 -3 -5 -5 -5 -5 -5 -6 -8
-7 -7 -8 -7 -6 -5 -4 -4 -3 -3 -3 -2 -1 -0 0 1 2 2 3 3 4 3 4 2 0 -1 -1 -3 -3 -3 -4 -6 -5 -5 -6 -6 -6 -7
-7 -7 -7 -6 -6 -5 -4 -4 -4 -4 -3 -3 -2 -2 -1 0 1 1 1 2 3 2 2 1 -0 -1 -0 -4 -4 -4 -7 -12 -13 -11 -11 -12 -13 -8
-7 -7 -7 -6 -6 -6 -6 -5 -5 -4 -5 -4 -4 -3 -2 -1 -1 -1 -1 -0 -0 -0 -0 -2 -1 -1 -1 -2 -10 -16 -15 -16 -16 -17 -20 -21 -22 -22
-8 -8 -7 -7 -7 -7 -7 -6 -6 -5 -5 -5 -5 -4 -3 -3 -3 -3 -2 -2 -2 -3 -4 -2 -3 -3 -6 -19 -21 -21 -20 -23 -22 -23 -23 -23 -22 -19
-9 -8 -9 -10 -9 -8 -7 -7 -6 -6 -6 -5 -5 -5 -4 -4 -4 -4 -3 -3 -3 -4 -4 -4 -7 -18 -19 -20 -22 -24 -25 -26 -24 -20 -19 -18 -18 -18
-9 -9 -10 -9 -9 -8 -8 -7 -7 -6 -6 -6 -5 -5 -5 -5 -5 -5 -5 -4 -4 -5 -5 -16 -18 -19 -21 -23 -27 -27 -25 -20 -18 -17 -17 -15 -14 -13
-11 -10 -10 -10 -9 -8 -8 -7 -7 -7 -7 -6 -6 -6 -6 -6 -6 -5 -6 -5 -5 -13 -16 -17 -20 -24 -28 -26 -23 -20 -17 -16 -15 -14 -14 -12 -11 -10
-10 -10 -10 -10 -9 -9 -8 -8 -8 -7 -7 -7 -7 -7 -7 -7 -6 -6 -5 -5 -14 -17 -18 -19 -24 -26 -25 -22 -17 -16 -14 -12 -11 -10 -9 -8 -8 -8
-11 -11 -11 -10 -10 -9 -8 -8 -8 -7 -7 -7 -8 -7 -7 -7 -6 -6 -6 -14 -17 -17 -20 -24 -25 -25 -19 -16 -12 -8 -8 -7 -7 -7 -7 -7 -7 -7
-12 -11 -11 -11 -10 -9 -8 -8 -8 -8 -7 -7 -8 -7 -7 -7 -6 -6 -15 -16 -17 -21 -24 -27 -22 -16 -14 -9 -7 -7 -7 -7 -7 -7 -7 -7 -7 -7
-12 -11 -11 -11 -11 -9 -8 -9 -8 -8 -7 -8 -7 -7 -7 -6 -6 -15 -16 -18 -23 -26 -26 -18 -14 -9 -7 -7 -7 -7 -6 -6 -6 -6 -6 -6 -6 -7

GFSNE_850_dewp_015.txt.gz
Dewpoint
-1 1 3 3 3 3 4 5 6 6 6 6 7 7 8 8 9 8 7 6 7 6 7 7 5 6 6 7 7 7 7 6 6 6 8 7 8 6
-2 -2 -2 1 1 1 2 2 2 4 5 5 5 5 6 5 5 6 7 7 6 7 7 8 7 8 7 6 8 8 7 6 6 7 8 7 8 6
-5 -3 -1 1 0 -0 -1 -3 -5 0 3 2 3 3 5 6 5 5 5 5 5 5 6 7 7 7 8 8 7 8 8 7 6 7 7 8 7 6
-4 -3 -1 -2 -5 -5 -7 -14 -9 -4 2 2 3 4 4 5 5 5 6 6 6 5 5 7 6 6 7 8 8 7 8 8 7 7 8 7 7 6
-3 -5 -7 -8 -8 -11 -13 -15 -2 1 -10 -8 -2 3 2 3 5 5 5 4 4 5 6 5 7 6 6 8 7 7 8 8 8 8 8 6 6 5
-6 -8 -9 -9 -10 -12 -14 -5 -0 -2 -11 -3 -3 -4 -2 -1 3 4 4 4 4 4 4 5 6 6 6 4 4 7 8 8 8 8 7 7 5 5
-10 -12 -15 -13 -12 -9 -5 -3 -4 -4 -4 -3 -2 -2 -2 -0 1 2 2 3 3 4 4 4 3 5 6 6 4 6 7 7 7 7 6 6 5 5
-17 -22 -22 -19 -14 -7 -5 -4 -4 -3 -3 -3 -3 -3 -2 -2 -1 -0 1 2 2 3 5 5 4 5 5 5 4 5 5 6 6 6 5 4 3 2
-11 -12 -14 -10 -8 -7 -7 -6 -5 -4 -4 -4 -4 -4 -3 -2 -1 -1 -1 -0 1 2 3 4 5 4 4 6 6 5 5 6 5 4 4 3 2 0
-8 -9 -8 -7 -7 -7 -7 -7 -7 -7 -5 -4 -4 -3 -3 -2 -1 -1 -0 -0 0 1 2 2 3 4 4 5 5 4 4 3 2 2 1 1 -1 -2
-8 -7 -6 -7 -7 -7 -7 -6 -6 -6 -5 -4 -3 -3 -3 -3 -2 -1 0 0 0 1 2 2 3 3 4 3 2 3 3 1 0 -0 -1 -2 -2 -4
-7 -7 -8 -7 -7 -7 -7 -6 -5 -6 -6 -4 -5 -4 -4 -3 -3 -1 -0 0 1 1 1 2 2 2 0 1 -0 -1 -1 -1 -1 -1 -3 -3 -4 -5
-7 -9 -9 -8 -7 -7 -7 -7 -7 -5 -5 -5 -6 -6 -5 -4 -3 -3 -2 -1 -1 -1 0 1 2 1 -1 -1 -2 -2 -2 -2 -2 -3 -4 -4 -5 -5
-8 -8 -8 -8 -8 -8 -8 -8 -6 -6 -6 -6 -6 -6 -5 -5 -5 -4 -3 -2 -2 -2 -1 -1 -0 0 -1 -3 -5 -4 -4 -4 -4 -4 -4 -4 -4 -4
-9 -7 -8 -9 -9 -9 -9 -8 -7 -7 -7 -7 -6 -6 -6 -5 -5 -5 -5 -4 -4 -3 -2 -2 -1 -1 -1 -2 -4 -5 -5 -5 -5 -4 -5 -5 -5 -6
-7 -9 -11 -10 -9 -10 -10 -9 -8 -8 -7 -7 -6 -7 -6 -6 -6 -5 -5 -5 -5 -5 -4 -4 -3 -3 -2 -2 -3 -5 -4 -5 -5 -5 -7 -6 -6 -8
-9 -10 -13 -10 -10 -10 -10 -9 -9 -8 -8 -8 -7 -7 -7 -6 -6 -6 -6 -6 -6 -6 -5 -5 -4 -5 -9 -10 -13 -5 -9 -17 -14 -11 -9 -11 -15 -18
-10 -11 -11 -11 -11 -11 -10 -10 -9 -9 -8 -8 -7 -7 -7 -7 -7 -7 -6 -6 -6 -6 -6 -6 -11 -17 -18 -20 -20 -17 -17 -22 -22 -17 -19 -21 -21 -19
-11 -11 -11 -11 -11 -11 -11 -10 -10 -9 -9 -8 -7 -8 -8 -7 -7 -7 -7 -6 -6 -7 -15 -16 -18 -21 -25 -23 -24 -25 -24 -24 -21 -19 -19 -18 -17 -17
-11 -11 -11 -11 -12 -11 -11 -10 -10 -10 -9 -8 -8 -8 -8 -8 -7 -7 -7 -7 -9 -11 -14 -20 -25 -25 -23 -18 -17 -17 -16 -15 -15 -15 -14 -13 -12 -11
-12 -12 -12 -12 -12 -11 -11 -10 -10 -10 -9 -8 -8 -8 -8 -8 -8 -7 -7 -11 -12 -15 -21 -24 -24 -18 -15 -13 -11 -10 -10 -10 -9 -9 -8 -8 -8 -8
-12 -12 -12 -12 -12 -12 -10 -10 -10 -9 -9 -8 -8 -8 -8 -8 -7 -8 -11 -14 -17 -22 -25 -21 -15 -11 -8 -7 -7 -7 -7 -7 -7 -7 -7 -7 -7 -7
-12 -12 -12 -13 -13 -11 -10 -10 -10 -9 -9 -8 -8 -8 -7 -7 -13 -15 -17 -21 -25 -23 -14 -9 -7 -6 -7 -7 -6 -6 -7 -6 -6 -6 -6 -7 -7 -8

GFSNE_850_dewp_018.txt.gz
Dewpoint
-4 -4 -7 -5 -2 1 2 -1 -0 1 0 -2 1 1 2 2 2 3 4 5 4 5 5 6 7 8 8 9 8 8 8 7 8 8 6 5 7 7
-15 -19 -12 -4 -2 1 -4 -6 -7 -3 -1 -5 -3 -2 -1 -0 -1 1 1 2 3 4 5 5 6 6 6 7 8 7 7 7 8 8 8 7 5 7
-24 -17 -4 -4 -4 -6 -7 -7 -8 -10 -4 -7 -2 1 -1 -13 -7 3 3 3 3 3 4 4 4 5 6 6 7 7 8 8 8 8 8 8 7 6
-13 -6 -9 -9 -11 -12 -9 -10 -9 -7 -3 -1 -3 -4 -6 -10 -10 -14 -10 -4 -1 3 2 2 3 4 5 6 6 6 7 7 7 8 8 8 8 7
-6 -9 -11 -14 -18 -12 -10 -8 -7 -6 -3 -3 -5 -6 -6 -8 -7 -11 -11 -5 -1 2 4 4 5 3 4 5 5 5 6 6 7 7 5 8 8 8
-9 -11 -15 -15 -12 -9 -8 -6 -6 -5 -4 -4 -4 -4 -4 -4 -3 -4 -4 -3 -4 -3 1 2 0 0 1 2 1 3 5 5 6 6 6 6 8 8
-12 -15 -15 -13 -9 -7 -6 -6 -5 -6 -6 -5 -5 -5 -5 -5 -4 -4 -3 -2 -2 -1 -0 0 -0 -1 2 3 3 3 5 6 5 5 6 4 8 8
-12 -13 -11 -10 -8 -7 -6 -6 -6 -7 -8 -7 -6 -6 -6 -5 -5 -4 -4 -3 -2 -2 -1 -1 -0 1 3 4 4 5 4 2 5 6 6 5 7 8
-10 -10 -9 -8 -7 -7 -7 -7 -7 -7 -6 -6 -7 -7 -6 -7 -6 -4 -3 -3 -2 -2 -2 -1 -1 0 1 -1 1 0 0 2 4 5 5 6 6 6
-9 -8 -7 -7 -8 -8 -7 -7 -7 -8 -9 -6 -6 -5 -5 -4 -3 -3 -4 -4 -2 -2 -1 -1 -0 -0 1 2 2 2 2 2 3 4 5 6 5 4
-10 -9 -7 -8 -8 -7 -7 -7 -7 -8 -9 -8 -6 -6 -5 -5 -5 -5 -4 -4 -3 -2 -2 -0 0 0 0 1 2 2 2 2 4 5 5 3 1 1
-9 -8 -10 -9 -8 -7 -8 -8 -7 -10 -9 -7 -6 -7 -7 -6 -6 -6 -5 -4 -3 -4 -2 -0 0 0 0 0 1 2 2 2 3 3 1 -0 1 0
-8 -10 -12 -8 -7 -9 -9 -8 -9 -8 -8 -8 -9 -8 -7 -6 -6 -6 -6 -6 -6 -5 -4 -4 -3 -2 -1 -0 0 0 2 1 0 -0 -1 -1 -2 -2
-9 -11 -8 -8 -9 -10 -9 -9 -9 -8 -9 -9 -8 -8 -7 -7 -7 -7 -6 -6 -6 -6 -5 -4 -4 -3 -2 -2 -1 -1 -0 -1 -1 -2 -2 -3 -3 -3
-10 -8 -9 -10 -11 -13 -10 -10 -9 -10 -10 -9 -8 -8 -8 -7 -7 -8 -7 -6 -7 -6 -6 -5 -4 -4 -3 -2 -2 -3 -3 -3 -3 -3 -3 -3 -4 -4
-9 -9 -10 -12 -11 -11 -11 -12 -11 -10 -9 -9 -9 -9 -9 -7 -8 -8 -7 -7 -7 -7 -6 -6 -5 -4 -3 -4 -3 -4 -4 -4 -4 -4 -4 -4 -4 -4
-10 -11 -13 -11 -11 -11 -11 -12 -11 -11 -10 -10 -10 -9 -9 -7 -8 -8 -7 -7 -7 -7 -7 -7 -6 -6 -5 -6 -6 -6 -5 -4 -4 -4 -4 -4 -4 -4
-12 -12 -11 -11 -12 -12 -12 -11 -11 -11 -11 -10 -10 -9 -8 -8 -8 -8 -8 -8 -7 -8 -8 -8 -7 -6 -7 -7 -6 -5 -5 -5 -5 -5 -5 -5 -5 -5
-13 -11 -12 -12 -12 -12 -12 -11 -11 -11 -11 -10 -10 -9 -9 -8 -8 -8 -8 -8 -8 -8 -9 -17 -17 -20 -21 -15 -8 -9 -14 -19 -7 -7 -8 -8 -8 -11
-12 -12 -12 -12 -12 -12 -12 -11 -12 -11 -11 -10 -9 -9 -8 -8 -8 -8 -8 -8 -9 -13 -21 -23 -24 -24 -23 -22 -20 -20 -21 -23 -19 -13 -15 -17 -19 -18
-13 -12 -12 -13 -12 -12 -11 -11 -12 -11 -11 -10 -9 -9 -8 -8 -8 -8 -9 -10 -15 -22 -23 -21 -18 -15 -15 -17 -17 -16 -15 -15 -16 -16 -15 -15 -14 -13
-13 -13 -13 -13 -13 -13 -11 -12 -12 -11 -10 -9 -9 -8 -8 -8 -9 -10 -12 -18 -22 -24 -19 -15 -10 -8 -8 -8 -8 -9 -10 -10 -10 -10 -9 -8 -8 -8
-13 -13 -13 -14 -14 -12 -11 -11 -11 -10 -9 -9 -9 -8 -9 -10 -11 -17 -22 -23 -15 -9 -7 -7 -7 -7 -7 -7 -7 -7 -7 -7 -7 -7 -7 -8 -8 -8

GFSNE_850_dewp_021.txt.gz
Dewpoint
-30 -30 -26 -19 -2 -3 -1 -2 -4 -4 -3 -6 -5 -6 -5 -5 -2 1 -0 -5 -8 -1 3 3 2 4 4 5 5 6 7 6 8 8 8 8 9 8
-27 -25 -17 -6 -11 -12 -12 -13 -12 -6 -4 -11 -14 -9 -7 -1 -2 -2 -6 -4 -9 -7 -4 -1 1 2 4 4 5 5 5 6 5 8 8 8 8 8
-23 -15 -6 -8 -11 -12 -16 -13 -8 -8 -8 -13 -7 -8 -2 -3 -5 -8 -7 -13 -13 -13 -12 -12 -6 -3 3 4 2 4 5 6 7 8 8 7 8 8
-13 -7 -8 -10 -11 -11 -10 -8 -7 -7 -6 -6 -6 -3 -5 -6 -5 -6 -5 -4 -8 -10 -2 -2 -5 1 3 2 2 4 5 6 6 7 7 7 8 8
-11 -9 -10 -10 -10 -9 -7 -7 -6 -6 -6 -5 -7 -7 -7 -6 -6 -6 -5 -5 -7 -6 -3 -2 -6 -8 -2 2 4 3 2 3 5 5 5 6 7 7
-10 -10 -10 -9 -8 -8 -7 -7 -6 -6 -6 -6 -6 -6 -7 -7 -7 -7 -7 -6 -5 -4 -4 -3 -2 -3 -6 -4 -2 -1 1 2 3 4 4 6 6 7
-10 -10 -9 -8 -8 -7 -7 -7 -7 -7 -6 -6 -6 -6 -6 -6 -7 -7 -6 -7 -6 -6 -5 -5 -2 -2 -1 -1 1 2 1 1 3 4 5 6 6 6
-10 -10 -9 -9 -8 -7 -7 -8 -8 -7 -6 -6 -7 -6 -7 -8 -7 -6 -5 -5 -5 -5 -4 -2 -3 -4 -4 -4 -3 -2 1 3 4 4 1 1 5 6
-9 -9 -9 -8 -8 -8 -9 -8 -7 -7 -7 -8 -7 -7 -7 -8 -6 -6 -5 -5 -4 -5 -4 -3 -4 -3 -2 -3 -2 -0 1 -0 2 1 0 2 5 5
-9 -9 -8 -8 -9 -9 -8 -7 -8 -10 -10 -8 -8 -8 -8 -8 -6 -5 -5 -5 -6 -6 -5 -3 -4 -4 -2 -1 -1 -1 0 1 1 1 2 2 3 4
-9 -8 -8 -10 -9 -8 -7 -8 -10 -10 -10 -9 -8 -7 -7 -7 -7 -6 -6 -6 -6 -6 -5 -5 -3 -3 -2 -1 -1 -1 0 1 1 1 1 1 4 5
-8 -8 -9 -10 -9 -8 -8 -9 -9 -11 -9 -9 -10 -10 -10 -9 -8 -7 -7 -6 -6 -6 -5 -5 -5 -5 -3 -0 -0 -0 0 1 1 2 3 4 4 5
-9 -9 -10 -9 -8 -9 -10 -10 -10 -9 -10 -10 -10 -10 -9 -9 -9 -8 -8 -7 -7 -6 -7 -6 -6 -6 -5 -3 -3 -2 -2 -0 2 3 3 4 4 3
-9 -11 -9 -8 -10 -10 -10 -10 -10 -9 -11 -10 -10 -10 -9 -9 -9 -8 -8 -8 -8 -7 -7 -7 -8 -7 -6 -5 -4 -3 -1 1 2 1 -0 -0 0 1
-10 -9 -9 -11 -11 -11 -11 -10 -10 -11 -11 -11 -10 -10 -10 -9 -9 -9 -8 -8 -8 -7 -8 -8 -7 -7 -6 -6 -4 -2 -1 -0 -0 -1 -1 -1 -1 -1
-9 -11 -12 -12 -11 -12 -12 -12 -11 -11 -11 -11 -11 -11 -10 -10 -9 -9 -8 -8 -8 -8 -8 -8 -8 -7 -7 -6 -5 -3 -2 -3 -2 -2 -3 -3 -3 -3
-11 -12 -13 -12 -12 -13 -12 -12 -11 -11 -11 -11 -11 -11 -10 -10 -9 -8 -8 -8 -8 -8 -8 -8 -8 -8 -7 -6 -6 -5 -4 -4 -3 -3 -3 -3 -4 -4
-12 -12 -13 -12 -12 -12 -12 -12 -12 -11 -11 -11 -11 -11 -10 -10 -9 -8 -8 -8 -9 -9 -8 -8 -8 -8 -8 -8 -7 -5 -4 -4 -4 -3 -3 -4 -4 -4
-12 -12 -12 -12 -12 -12 -12 -12 -12 -12 -12 -12 -11 -10 -10 -9 -8 -8 -8 -8 -8 -11 -17 -19 -20 -13 -7 -9 -7 -5 -5 -5 -4 -4 -4 -4 -5 -5
-12 -12 -13 -13 -13 -13 -12 -12 -12 -12 -12 -11 -10 -10 -9 -9 -8 -8 -8 -9 -12 -18 -20 -19 -22 -18 -9 -10 -12 -15 -8 -5 -5 -5 -5 -5 -5 -5
-13 -13 -13 -13 -13 -13 -12 -12 -12 -12 -12 -11 -10 -10 -9 -9 -9 -10 -11 -12 -18 -19 -17 -15 -14 -18 -19 -19 -19 -17 -12 -7 -6 -7 -7 -8 -8 -9
-13 -13 -13 -13 -13 -13 -12 -12 -12 -11 -10 -10 -9 -9 -10 -11 -15 -18 -21 -19 -16 -14 -12 -8 -8 -10 -15 -17 -15 -15 -15 -16 -16 -17 -17 -17 -17 -16
-13 -13 -13 -14 -14 -12 -12 -12 -12 -10 -9 -9 -9 -12 -14 -18 -21 -17 -8 -8 -7 -7 -7 -7 -7 -7 -7 -7 -11 -13 -13 -13 -13 -12 -10 -8 -7 -8

GFSNE_850_dewp_024.txt.gz
Dewpoint
-12 -11 -10 -9 -6 -6 -7 -8 -8 -8 -9 -12 -10 -10 -12 -12 -10 -7 -3 -3 -3 -3 -7 -1 -6 -10 -6 -2 -0 3 3 3 5 5 3 4 8 10
-13 -11 -10 -9 -7 -8 -10 -11 -11 -11 -9 -8 -8 -10 -8 -8 -7 -6 -4 -5 -7 -5 -4 -2 -1 -3 -12 -11 -5 -4 0 4 5 5 6 5 6 7
-12 -11 -10 -9 -9 -10 -11 -11 -10 -10 -8 -8 -8 -8 -8 -7 -7 -9 -8 -8 -7 -6 -5 -4 -3 -4 -2 -1 -3 -1 1 3 4 4 5 6 5 7
-11 -11 -10 -10 -10 -11 -11 -10 -9 -9 -8 -6 -7 -7 -8 -8 -7 -7 -8 -8 -8 -7 -6 -5 -4 -3 -2 -2 -4 -3 -2 3 3 3 4 6 6 7
-11 -10 -10 -10 -10 -10 -9 -9 -9 -8 -7 -7 -7 -7 -7 -7 -8 -8 -7 -7 -8 -8 -8 -7 -6 -5 -4 -3 -2 -2 -4 -3 2 3 3 5 6 7
-10 -9 -10 -10 -10 -9 -9 -9 -8 -6 -8 -8 -7 -7 -7 -7 -8 -8 -8 -8 -8 -7 -7 -6 -4 -4 -3 -3 -2 -2 -2 1 -0 0 1 2 4 4
-9 -10 -10 -9 -8 -8 -8 -7 -7 -7 -7 -7 -6 -6 -8 -9 -8 -8 -7 -8 -8 -8 -7 -6 -5 -5 -5 -2 -2 -6 -4 -1 1 3 2 3 4 4
-10 -10 -10 -10 -10 -8 -8 -8 -8 -7 -6 -6 -6 -7 -9 -9 -8 -8 -8 -8 -6 -8 -6 -5 -4 -4 -6 -6 -4 -3 -3 -2 -3 -0 3 3 4 4
-10 -10 -10 -11 -9 -8 -10 -9 -8 -6 -7 -7 -8 -9 -8 -8 -8 -7 -7 -6 -5 -7 -6 -6 -7 -5 -6 -6 -5 -3 -3 -2 -1 -0 -1 3 4 4
-10 -10 -10 -9 -8 -9 -9 -8 -7 -8 -10 -10 -9 -9 -8 -8 -7 -7 -7 -7 -8 -7 -6 -5 -5 -6 -6 -7 -6 -3 -2 -1 -0 0 1 2 3 3
-10 -10 -8 -9 -10 -9 -8 -8 -9 -10 -11 -10 -9 -9 -9 -8 -8 -8 -8 -7 -7 -7 -7 -6 -6 -5 -4 -5 -6 -7 -1 -1 0 0 0 1 0 1
-10 -8 -10 -10 -10 -8 -8 -9 -9 -11 -10 -10 -10 -10 -9 -9 -8 -8 -8 -8 -8 -7 -8 -6 -7 -7 -6 -7 -3 -2 -2 -1 -0 0 0 1 1 2
-9 -9 -11 -10 -8 -10 -11 -10 -11 -10 -10 -10 -10 -10 -10 -10 -10 -9 -9 -9 -9 -8 -9 -7 -7 -7 -6 -6 -7 -7 -6 -3 -2 -2 -1 1 2 3
-10 -10 -10 -8 -11 -11 -11 -11 -10 -10 -11 -10 -10 -10 -10 -10 -10 -10 -9 -9 -9 -8 -8 -8 -7 -7 -7 -7 -7 -6 -5 -3 -0 2 3 3 3 3
-10 -9 -9 -11 -11 -12 -11 -11 -11 -11 -11 -10 -10 -10 -11 -11 -10 -10 -9 -9 -8 -8 -7 -8 -8 -8 -8 -8 -8 -6 -5 -2 -1 2 2 1 1 1
-10 -9 -12 -12 -12 -12 -12 -12 -11 -11 -11 -11 -11 -11 -11 -11 -10 -9 -9 -8 -8 -8 -8 -9 -9 -9 -9 -8 -7 -6 -5 -3 -3 -0 -0 -1 -1 -1
-9 -12 -12 -13 -12 -12 -12 -12 -11 -11 -11 -12 -12 -11 -11 -10 -10 -9 -8 -8 -8 -9 -9 -9 -9 -9 -8 -7 -6 -5 -5 -4 -3 -2 -1 -2 -2 -1
-12 -12 -12 -12 -12 -12 -12 -12 -12 -12 -12 -12 -12 -11 -11 -10 -9 -8 -8 -9 -9 -10 -10 -9 -9 -8 -8 -8 -7 -6 -5 -4 -3 -2 -2 -3 -4 -3
-12 -13 -12 -12 -12 -12 -12 -12 -12 -12 -12 -12 -11 -11 -10 -9 -9 -9 -8 -8 -9 -11 -12 -17 -11 -8 -8 -8 -8 -7 -5 -4 -3 -4 -4 -4 -4 -4
-13 -12 -12 -12 -13 -13 -12 -12 -13 -12 -12 -12 -11 -10 -9 -9 -10 -11 -13 -11 -12 -15 -13 -14 -15 -8 -7 -9 -9 -8 -6 -5 -4 -4 -4 -5 -5 -5
-13 -13 -12 -13 -13 -13 -12 -13 -13 -12 -12 -11 -10 -10 -9 -10 -14 -17 -13 -10 -11 -13 -9 -10 -15 -15 -14 -11 -8 -7 -6 -5 -4 -5 -5 -5 -6 -6
-13 -13 -13 -13 -12 -12 -13 -13 -12 -11 -10 -10 -10 -10 -10 -12 -11 -9 -8 -8 -8 -8 -8 -8 -10 -16 -15 -15 -10 -8 -7 -7 -6 -5 -6 -6 -7 -8
-13 -13 -13 -12 -12 -12 -13 -12 -10 -10 -10 -10 -11 -10 -9 -9 -9 -8 -8 -7 -8 -8 -7 -7 -7 -12 -13 -12 -12 -12 -13 -13 -13 -15 -16 -12 -14 -18

GFSNE_850_dewp_027.txt.gz
Dewpoint
-14 -14 -12 -11 -10 -10 -8 -7 -7 -8 -10 -11 -11 -10 -9 -9 -9 -8 -8 -7 -7 -6 -5 -5 -6 -4 -3 -2 -1 -1 -1 0 2 3 4 2 2 4
-14 -13 -12 -11 -11 -10 -9 -9 -10 -10 -9 -10 -10 -9 -9 -7 -8 -7 -8 -7 -8 -7 -7 -7 -6 -5 -5 -4 -3 -2 -2 -1 1 1 3 5 3 3
-13 -12 -11 -11 -10 -10 -10 -10 -10 -9 -9 -9 -9 -8 -8 -8 -8 -8 -8 -7 -7 -8 -8 -7 -7 -6 -6 -6 -4 -3 -2 -1 -0 2 2 4 5 5
-12 -12 -11 -10 -10 -10 -10 -10 -9 -9 -9 -8 -8 -7 -7 -9 -8 -7 -7 -7 -8 -9 -9 -8 -7 -8 -6 -6 -5 -4 -3 -2 -2 0 1 2 3 5
-11 -11 -10 -10 -10 -10 -10 -9 -9 -8 -7 -7 -7 -8 -8 -8 -7 -6 -8 -10 -11 -9 -8 -8 -8 -7 -5 -5 -5 -4 -3 -2 -1 -0 -0 0 1 3
-10 -10 -10 -10 -10 -10 -9 -8 -7 -7 -8 -7 -7 -7 -7 -7 -6 -8 -10 -9 -8 -8 -9 -9 -8 -7 -6 -6 -5 -4 -2 -3 -1 -2 0 1 0 2
-9 -10 -10 -11 -10 -9 -9 -7 -7 -7 -7 -7 -6 -6 -6 -7 -8 -9 -9 -9 -9 -9 -8 -7 -6 -5 -7 -7 -6 -4 -5 -2 -1 -2 -1 -0 1 3
-9 -10 -11 -11 -11 -10 -9 -9 -7 -8 -7 -6 -6 -6 -7 -9 -9 -9 -9 -8 -8 -8 -7 -7 -7 -7 -6 -6 -6 -4 -4 -3 -3 -4 -3 -2 -1 2
-10 -11 -11 -11 -10 -11 -9 -8 -8 -8 -7 -9 -8 -8 -9 -10 -9 -8 -7 -7 -7 -7 -7 -7 -6 -6 -5 -6 -4 -5 -5 -3 -3 -3 -2 -2 -2 -0
-10 -10 -10 -10 -10 -9 -9 -8 -9 -8 -10 -10 -9 -9 -9 -8 -8 -8 -8 -8 -8 -8 -8 -7 -7 -6 -9 -7 -6 -7 -7 -6 -4 -3 -2 -2 -1 -1
-10 -10 -9 -8 -9 -9 -8 -8 -9 -10 -11 -10 -10 -9 -9 -9 -9 -9 -9 -8 -8 -8 -8 -9 -8 -7 -9 -7 -9 -9 -4 -3 -3 -2 -3 -2 -1 0
-9 -9 -10 -10 -9 -8 -8 -9 -9 -11 -9 -10 -10 -11 -11 -11 -9 -9 -9 -9 -9 -9 -10 -8 -8 -8 -7 -8 -5 -5 -6 -7 -5 -3 -1 -0 -0 0
-9 -9 -9 -10 -8 -9 -10 -10 -11 -9 -10 -11 -11 -11 -10 -10 -10 -10 -10 -10 -9 -9 -11 -8 -8 -8 -7 -7 -7 -7 -8 -7 -5 -4 -3 -2 -1 -1
-9 -9 -10 -8 -10 -11 -11 -11 -11 -11 -11 -10 -10 -10 -10 -10 -11 -10 -10 -10 -9 -9 -8 -8 -8 -7 -8 -7 -7 -8 -8 -6 -4 -1 -2 -3 -2 -1
-10 -10 -9 -11 -12 -12 -12 -11 -11 -11 -11 -11 -11 -11 -11 -11 -11 -10 -9 -9 -8 -8 -7 -7 -7 -8 -8 -9 -9 -9 -7 -5 -3 -1 2 2 2 2
-9 -9 -12 -12 -12 -12 -12 -12 -12 -11 -11 -11 -11 -12 -11 -11 -10 -9 -8 -8 -9 -9 -9 -9 -9 -9 -9 -8 -8 -7 -6 -5 -3 -2 0 1 1 1
-10 -11 -12 -12 -12 -12 -12 -12 -11 -12 -12 -12 -12 -12 -11 -11 -10 -9 -8 -8 -9 -10 -11 -13 -9 -9 -9 -7 -6 -5 -5 -4 -4 -3 -1 -1 -1 -1
-11 -12 -12 -12 -12 -12 -12 -12 -12 -12 -12 -12 -12 -11 -11 -10 -9 -10 -11 -11 -9 -10 -10 -11 -9 -8 -8 -8 -7 -6 -5 -4 -4 -3 -2 -1 -2 -2
-12 -12 -12 -12 -12 -12 -12 -12 -12 -12 -12 -12 -11 -11 -10 -10 -9 -10 -10 -10 -9 -10 -9 -12 -9 -8 -8 -9 -7 -6 -5 -5 -4 -3 -3 -3 -3 -3
-13 -12 -12 -12 -12 -12 -12 -12 -12 -12 -12 -11 -11 -11 -10 -10 -10 -10 -9 -9 -9 -8 -8 -13 -9 -9 -9 -9 -9 -7 -5 -4 -4 -4 -4 -4 -4 -3
-13 -13 -13 -13 -13 -12 -12 -13 -12 -12 -11 -10 -10 -10 -10 -10 -10 -10 -9 -9 -9 -9 -9 -9 -14 -10 -8 -8 -8 -7 -7 -5 -5 -5 -5 -5 -5 -4
-13 -13 -13 -13 -12 -12 -13 -12 -12 -11 -10 -10 -10 -10 -10 -9 -10 -9 -8 -8 -8 -8 -8 -9 -12 -13 -8 -7 -8 -8 -7 -6 -5 -5 -5 -6 -6 -6
-13 -13 -13 -12 -12 -12 -12 -12 -11 -10 -10 -10 -10 -9 -8 -9 -9 -8 -8 -8 -8 -8 -8 -8 -11 -12 -10 -8 -8 -8 -8 -7 -6 -6 -6 -6 -6 -5

GFSNE_850_dewp_030.txt.gz
Dewpoint
-18 -17 -16 -14 -12 -11 -11 -10 -9 -8 -9 -10 -10 -10 -9 -9 -9 -8 -8 -8 -8 -8 -7 -7 -6 -6 -5 -6 -6 -5 -4 -3 -3 -2 -1 -1 3 3
-18 -18 -15 -12 -11 -11 -10 -10 -10 -9 -9 -10 -9 -9 -9 -8 -8 -8 -9 -9 -8 -7 -7 -6 -6 -6 -7 -7 -6 -5 -4 -5 -4 -4 -2 -1 -1 2
-19 -18 -14 -12 -11 -10 -10 -9 -9 -9 -9 -9 -10 -9 -8 -9 -10 -9 -8 -8 -8 -8 -7 -7 -8 -9 -8 -7 -6 -6 -7 -6 -5 -4 -4 -1 -0 1
-19 -17 -14 -11 -10 -10 -9 -10 -10 -10 -9 -9 -8 -8 -8 -9 -10 -9 -8 -6 -7 -7 -9 -9 -9 -8 -6 -6 -8 -7 -7 -4 -4 -4 -3 -3 -2 -1
-17 -14 -13 -10 -9 -10 -10 -10 -10 -8 -7 -7 -8 -8 -7 -8 -9 -7 -6 -7 -9 -9 -11 -10 -9 -9 -9 -8 -7 -6 -5 -6 -4 -3 -2 -2 -2 0
-15 -14 -10 -9 -10 -10 -10 -9 -8 -7 -7 -8 -7 -7 -8 -8 -8 -8 -9 -9 -10 -10 -10 -9 -8 -8 -7 -7 -5 -5 -6 -7 -5 -4 -3 -3 -3 -1
-13 -10 -9 -10 -9 -10 -9 -8 -8 -8 -7 -7 -7 -8 -7 -10 -10 -9 -9 -10 -10 -9 -8 -8 -8 -8 -9 -8 -8 -7 -6 -5 -4 -4 -4 -3 -1 -2
-10 -9 -9 -10 -10 -9 -9 -9 -8 -7 -8 -7 -7 -8 -10 -10 -9 -9 -9 -9 -9 -8 -8 -9 -8 -9 -8 -8 -7 -6 -4 -5 -4 -3 -3 -3 -3 -3
-9 -10 -10 -10 -10 -10 -9 -8 -8 -8 -8 -9 -9 -10 -10 -9 -9 -9 -8 -8 -8 -9 -9 -9 -8 -8 -8 -8 -8 -7 -6 -6 -5 -4 -4 -3 -3 -3
-9 -9 -9 -9 -10 -9 -8 -8 -9 -9 -9 -9 -10 -10 -9 -9 -8 -9 -9 -9 -9 -9 -9 -9 -8 -8 -10 -11 -8 -7 -7 -6 -6 -5 -5 -4 -4 -3
-9 -8 -8 -9 -9 -9 -8 -8 -9 -9 -12 -11 -9 -9 -10 -10 -10 -9 -9 -9 -10 -10 -10 -9 -10 -9 -9 -10 -11 -9 -7 -6 -5 -5 -5 -3 -3 -2
-9 -9 -9 -9 -10 -8 -8 -9 -9 -12 -10 -9 -11 -13 -12 -11 -10 -10 -10 -10 -10 -10 -12 -10 -10 -9 -9 -9 -8 -8 -9 -9 -7 -6 -5 -4 -3 -1
-9 -10 -10 -10 -9 -9 -10 -10 -11 -9 -10 -12 -12 -11 -11 -11 -11 -11 -10 -10 -10 -10 -10 -9 -9 -9 -8 -8 -9 -8 -7 -8 -8 -7 -5 -4 -2 -1
-9 -11 -11 -9 -10 -11 -11 -11 -11 -10 -12 -11 -11 -11 -11 -11 -11 -10 -9 -9 -8 -9 -9 -9 -8 -8 -8 -8 -9 -10 -9 -7 -6 -5 -4 -3 -3 -2
-11 -9 -9 -11 -11 -12 -12 -11 -11 -12 -12 -11 -11 -11 -11 -11 -10 -10 -10 -10 -9 -8 -9 -10 -10 -9 -9 -9 -8 -8 -7 -6 -5 -5 -3 -1 -3 -3
-10 -10 -11 -12 -12 -12 -12 -12 -12 -12 -11 -12 -12 -12 -11 -11 -10 -10 -10 -10 -10 -9 -9 -10 -10 -10 -10 -8 -7 -6 -6 -6 -5 -3 -3 0 1 -1
-10 -11 -14 -13 -12 -12 -12 -12 -12 -12 -12 -12 -11 -11 -11 -11 -10 -10 -10 -10 -9 -9 -9 -10 -8 -8 -9 -8 -8 -6 -5 -5 -4 -3 -2 0 0 1
-11 -13 -12 -12 -12 -12 -12 -12 -12 -12 -12 -11 -11 -11 -11 -11 -10 -10 -10 -10 -9 -9 -9 -9 -9 -8 -8 -8 -7 -6 -5 -4 -3 -2 -2 -2 -2 -2
-13 -12 -12 -12 -12 -13 -12 -12 -12 -12 -11 -11 -11 -10 -10 -10 -10 -10 -10 -9 -9 -8 -9 -9 -9 -9 -9 -9 -7 -6 -5 -4 -3 -3 -3 -3 -3 -3
-13 -12 -12 -13 -13 -12 -13 -12 -12 -12 -11 -11 -10 -10 -10 -10 -10 -9 -9 -9 -8 -8 -9 -13 -9 -9 -9 -9 -8 -6 -4 -4 -4 -3 -3 -3 -4 -3
-13 -13 -13 -13 -13 -13 -12 -12 -12 -11 -11 -10 -10 -10 -10 -10 -9 -9 -9 -8 -8 -8 -9 -11 -11 -8 -8 -7 -7 -6 -6 -4 -4 -4 -4 -4 -4 -4
-13 -13 -13 -13 -12 -12 -12 -12 -11 -11 -11 -10 -9 -9 -9 -9 -9 -9 -8 -8 -7 -8 -8 -11 -8 -7 -7 -7 -7 -6 -6 -5 -5 -5 -5 -4 -4 -4
-13 -13 -13 -12 -12 -12 -12 -11 -11 -11 -10 -10 -9 -9 -9 -8 -8 -8 -8 -8 -7 -7 -8 -10 -10 -8 -7 -7 -7 -6 -6 -6 -5 -5 -5 -5 -5 -5

GFSNE_850_dewp_033.txt.gz
Dewpoint
-22 -21 -21 -23 -23 -17 -13 -11 -9 -8 -9 -9 -9 -10 -9 -10 -10 -9 -9 -11 -9 -8 -8 -7 -7 -7 -6 -5 -5 -5 -5 -5 -4 -3 -4 -5 -3 -3
-21 -20 -20 -23 -22 -16 -11 -11 -10 -9 -8 -10 -10 -10 -10 -9 -8 -9 -10 -9 -10 -8 -7 -7 -6 -6 -5 -5 -6 -8 -7 -6 -6 -6 -6 -2 -3 -5
-19 -18 -19 -20 -18 -13 -11 -10 -9 -9 -9 -10 -10 -10 -9 -10 -10 -9 -8 -8 -8 -8 -7 -6 -6 -8 -8 -8 -8 -7 -7 -5 -4 -4 -5 -3 -2 -2
-16 -16 -17 -18 -13 -11 -10 -9 -10 -9 -9 -9 -9 -8 -10 -9 -8 -10 -8 -7 -9 -9 -8 -8 -9 -9 -9 -8 -7 -6 -8 -8 -8 -7 -6 -7 -4 -2
-12 -13 -14 -13 -11 -9 -9 -9 -9 -8 -7 -7 -8 -10 -8 -8 -9 -8 -9 -10 -11 -10 -11 -11 -10 -9 -9 -8 -8 -7 -6 -6 -5 -4 -4 -4 -4 -4
-12 -12 -12 -12 -9 -9 -9 -9 -8 -9 -9 -9 -8 -7 -9 -8 -8 -11 -12 -11 -10 -10 -10 -10 -9 -9 -8 -8 -8 -7 -7 -7 -6 -6 -5 -5 -5 -5
-11 -11 -11 -10 -9 -9 -9 -9 -9 -8 -8 -7 -8 -8 -7 -10 -10 -10 -10 -10 -9 -9 -9 -8 -8 -9 -9 -9 -9 -8 -8 -7 -6 -5 -4 -4 -4 -4
-10 -10 -10 -10 -9 -9 -9 -9 -8 -8 -8 -8 -7 -8 -10 -9 -10 -10 -9 -9 -9 -10 -9 -9 -9 -9 -9 -10 -9 -8 -7 -6 -6 -6 -5 -4 -4 -3
-10 -10 -9 -9 -9 -10 -10 -8 -8 -9 -8 -8 -9 -9 -9 -10 -9 -9 -9 -9 -9 -10 -9 -9 -9 -9 -10 -9 -9 -8 -8 -8 -7 -6 -5 -5 -4 -3
-10 -10 -9 -9 -10 -9 -9 -9 -8 -9 -10 -10 -10 -9 -9 -9 -9 -10 -10 -9 -10 -11 -10 -10 -11 -10 -11 -11 -10 -8 -8 -7 -7 -7 -6 -5 -5 -5
-11 -10 -9 -10 -10 -9 -8 -8 -9 -10 -13 -10 -9 -9 -10 -10 -10 -10 -11 -10 -11 -11 -12 -10 -11 -10 -10 -11 -12 -11 -10 -7 -7 -7 -6 -6 -5 -5
-10 -10 -10 -11 -10 -9 -9 -9 -10 -13 -10 -10 -11 -13 -13 -12 -10 -11 -11 -11 -11 -11 -12 -10 -10 -9 -9 -10 -10 -10 -10 -10 -8 -7 -6 -5 -5 -5
-10 -10 -12 -10 -9 -10 -11 -11 -11 -10 -10 -12 -12 -12 -12 -11 -11 -11 -10 -10 -10 -10 -11 -9 -9 -9 -9 -9 -9 -10 -10 -9 -9 -8 -8 -7 -6 -5
-9 -12 -10 -9 -11 -11 -11 -11 -10 -10 -13 -12 -11 -11 -11 -11 -11 -10 -10 -10 -10 -9 -9 -9 -9 -9 -9 -10 -10 -11 -8 -7 -6 -6 -5 -5 -6 -6
-11 -9 -10 -11 -12 -13 -12 -11 -11 -12 -12 -12 -11 -11 -11 -11 -11 -11 -10 -10 -10 -9 -9 -9 -9 -9 -10 -10 -9 -9 -8 -6 -5 -5 -5 -5 -4 -5
-10 -11 -12 -13 -12 -13 -13 -12 -12 -12 -12 -12 -12 -11 -11 -11 -11 -10 -10 -10 -10 -9 -9 -9 -9 -9 -9 -8 -8 -8 -6 -6 -5 -4 -4 -3 -1 -3
-11 -12 -14 -13 -13 -13 -13 -12 -12 -12 -12 -12 -11 -11 -11 -11 -10 -10 -9 -9 -9 -9 -9 -10 -8 -8 -8 -8 -8 -7 -5 -4 -4 -3 -3 -1 -1 -2
-12 -13 -12 -13 -12 -12 -12 -12 -13 -12 -12 -11 -11 -11 -11 -10 -10 -10 -9 -9 -9 -8 -8 -11 -9 -8 -7 -7 -7 -6 -4 -4 -4 -3 -3 -1 -1 -1
-13 -13 -13 -13 -13 -12 -12 -12 -12 -12 -11 -11 -11 -10 -10 -10 -10 -9 -9 -9 -8 -8 -9 -10 -8 -8 -8 -8 -7 -5 -4 -4 -4 -3 -3 -3 -3 -2
-13 -13 -13 -13 -13 -12 -12 -12 -12 -12 -11 -11 -10 -9 -9 -9 -10 -9 -8 -8 -8 -8 -10 -9 -8 -8 -8 -7 -7 -6 -4 -4 -4 -4 -4 -4 -3 -2
-13 -13 -13 -13 -12 -12 -12 -12 -12 -11 -11 -10 -9 -9 -9 -9 -9 -8 -8 -8 -8 -8 -10 -8 -8 -7 -7 -6 -6 -5 -5 -4 -4 -4 -4 -4 -4 -3
-13 -13 -13 -12 -12 -12 -11 -11 -11 -10 -10 -9 -9 -8 -8 -8 -8 -8 -8 -8 -7 -8 -9 -8 -7 -7 -6 -6 -6 -5 -5 -5 -4 -4 -4 -4 -4 -4
-13 -13 -13 -11 -11 -11 -11 -11 -10 -10 -9 -9 -8 -8 -8 -8 -8 -7 -7 -8 -7 -7 -9 -10 -7 -7 -6 -6 -6 -5 -5 -5 -5 -5 -4 -4 -4 -4

GFSNE_850_dewp_036.txt.gz
Dewpoint
-24 -22 -21 -21 -21 -22 -21 -15 -10 -8 -9 -10 -9 -10 -10 -10 -10 -10 -9 -9 -8 -8 -8 -8 -7 -7 -7 -6 -6 -6 -4 -4 -3 -3 -5 -6 -5 -4
-22 -19 -19 -17 -18 -20 -16 -13 -11 -9 -8 -10 -10 -10 -9 -9 -9 -9 -9 -8 -10 -9 -8 -7 -7 -6 -5 -5 -5 -5 -6 -5 -6 -5 -6 -4 -3 -3
-19 -16 -14 -14 -15 -15 -15 -13 -10 -9 -8 -10 -10 -9 -9 -10 -8 -8 -8 -9 -10 -8 -8 -8 -9 -8 -8 -8 -6 -6 -6 -7 -7 -7 -5 -5 -3 -2
-14 -13 -13 -13 -13 -14 -13 -10 -9 -9 -8 -8 -9 -10 -11 -10 -8 -9 -8 -8 -9 -11 -11 -10 -10 -9 -9 -9 -8 -8 -7 -7 -7 -7 -6 -6 -6 -5
-12 -12 -12 -11 -11 -12 -9 -9 -9 -8 -8 -9 -9 -11 -9 -8 -9 -8 -10 -11 -11 -12 -11 -10 -9 -9 -9 -8 -8 -8 -6 -6 -6 -6 -5 -6 -5 -4
-12 -11 -11 -10 -11 -9 -9 -8 -8 -8 -8 -8 -8 -8 -9 -9 -9 -11 -12 -11 -11 -11 -10 -9 -9 -9 -9 -8 -8 -8 -7 -7 -7 -7 -7 -7 -7 -5
-11 -10 -10 -11 -9 -9 -9 -9 -9 -8 -8 -8 -9 -8 -8 -11 -11 -11 -10 -10 -10 -9 -9 -10 -10 -10 -10 -10 -9 -9 -9 -8 -8 -7 -7 -6 -6 -5
-10 -10 -12 -11 -10 -9 -9 -9 -9 -8 -10 -8 -8 -9 -10 -10 -10 -9 -9 -9 -10 -11 -10 -11 -10 -10 -12 -11 -9 -9 -8 -8 -7 -7 -7 -6 -5 -5
-11 -11 -12 -10 -10 -12 -10 -9 -11 -8 -9 -9 -10 -11 -10 -10 -9 -9 -10 -10 -10 -10 -10 -11 -12 -11 -12 -11 -10 -9 -8 -8 -8 -7 -7 -6 -6 -6
-12 -12 -9 -10 -11 -10 -9 -9 -9 -12 -13 -12 -10 -10 -9 -9 -10 -10 -10 -10 -10 -11 -11 -10 -11 -11 -11 -11 -11 -10 -8 -8 -7 -7 -7 -7 -7 -6
-12 -9 -9 -10 -10 -9 -8 -9 -10 -12 -14 -10 -10 -10 -11 -10 -10 -10 -11 -11 -11 -11 -11 -11 -11 -10 -10 -10 -10 -10 -10 -8 -7 -7 -7 -7 -6 -6
-9 -10 -10 -10 -9 -9 -10 -10 -11 -13 -9 -10 -13 -14 -13 -12 -10 -11 -11 -11 -11 -11 -12 -11 -10 -10 -9 -10 -10 -10 -11 -11 -8 -8 -7 -7 -6 -6
-10 -10 -12 -10 -9 -10 -11 -11 -11 -10 -11 -13 -13 -13 -12 -11 -11 -11 -11 -11 -11 -11 -11 -10 -10 -10 -9 -9 -9 -10 -10 -9 -8 -8 -8 -7 -6 -6
-10 -11 -10 -10 -11 -11 -11 -11 -10 -10 -12 -13 -12 -12 -11 -11 -10 -10 -10 -9 -10 -10 -9 -9 -9 -9 -9 -9 -9 -10 -9 -8 -7 -7 -6 -6 -6 -7
-11 -10 -10 -11 -13 -14 -12 -11 -11 -12 -12 -12 -12 -11 -11 -11 -10 -10 -10 -10 -9 -9 -9 -9 -9 -9 -9 -9 -9 -9 -8 -7 -5 -5 -6 -6 -6 -6
-10 -11 -13 -15 -15 -12 -13 -13 -12 -12 -12 -12 -12 -11 -11 -10 -10 -10 -10 -9 -9 -9 -9 -10 -9 -8 -8 -8 -7 -7 -6 -8 -5 -4 -4 -4 -4 -4
-11 -13 -15 -14 -14 -13 -13 -12 -12 -12 -12 -12 -11 -11 -11 -10 -10 -10 -9 -9 -9 -8 -8 -10 -8 -7 -7 -7 -7 -7 -5 -4 -4 -3 -3 -2 -2 -3
-12 -14 -13 -13 -13 -12 -12 -12 -12 -12 -11 -11 -11 -10 -10 -10 -10 -9 -9 -9 -8 -8 -8 -8 -8 -8 -7 -7 -6 -6 -4 -4 -4 -3 -3 -1 -1 -1
-13 -13 -13 -13 -13 -12 -12 -12 -12 -11 -11 -11 -10 -10 -10 -9 -9 -9 -9 -8 -8 -8 -9 -8 -8 -8 -8 -7 -6 -5 -4 -4 -4 -4 -4 -3 -2 -1
-13 -13 -13 -13 -12 -12 -12 -12 -11 -11 -10 -10 -10 -9 -9 -9 -9 -9 -9 -8 -8 -8 -9 -8 -8 -7 -7 -7 -7 -5 -4 -4 -4 -4 -4 -4 -4 -2
-13 -13 -13 -13 -12 -11 -11 -11 -11 -10 -10 -10 -9 -9 -8 -8 -9 -8 -8 -8 -7 -8 -9 -8 -7 -6 -5 -6 -6 -5 -5 -4 -4 -4 -4 -4 -4 -4
-13 -13 -13 -12 -11 -11 -11 -10 -10 -9 -9 -9 -8 -8 -8 -8 -8 -8 -8 -8 -8 -8 -10 -8 -7 -6 -6 -6 -6 -5 -5 -4 -4 -4 -4 -4 -4 -5
-13 -13 -12 -11 -11 -11 -10 -10 -9 -9 -8 -8 -8 -8 -8 -8 -8 -8 -7 -8 -7 -7 -9 -8 -7 -6 -6 -6 -6 -5 -5 -5 -4 -4 -4 -4 -4 -3

GFSNE_850_dewp_039.txt.gz
Dewpoint
-23 -22 -20 -18 -17 -16 -16 -16 -12 -9 -10 -11 -10 -10 -10 -9 -9 -10 -9 -10 -8 -8 -8 -8 -8 -7 -6 -6 -5 -5 -5 -4 -4 -3 -3 -2 -2 -1
-23 -21 -18 -16 -14 -14 -14 -14 -13 -10 -8 -12 -12 -10 -9 -8 -9 -9 -10 -8 -9 -9 -8 -8 -8 -8 -8 -7 -7 -7 -5 -6 -5 -4 -3 -3 -3 -2
-22 -17 -15 -13 -13 -12 -12 -13 -11 -10 -8 -10 -11 -11 -11 -11 -10 -9 -8 -8 -9 -8 -8 -8 -9 -9 -9 -9 -8 -7 -7 -6 -6 -5 -4 -4 -4 -3
-17 -14 -13 -12 -11 -11 -11 -10 -10 -10 -8 -8 -10 -11 -11 -12 -9 -8 -8 -8 -10 -14 -10 -10 -9 -9 -9 -8 -7 -7 -7 -7 -7 -6 -6 -6 -5 -5
-14 -13 -11 -11 -11 -11 -10 -10 -8 -8 -8 -9 -9 -9 -9 -8 -8 -9 -10 -11 -12 -12 -11 -10 -10 -9 -9 -8 -8 -7 -7 -7 -6 -6 -6 -6 -5 -5
-14 -12 -12 -11 -12 -9 -9 -9 -8 -10 -10 -9 -8 -8 -8 -9 -10 -11 -12 -11 -10 -10 -9 -10 -9 -9 -9 -9 -9 -9 -8 -8 -8 -7 -7 -6 -6 -5
-14 -15 -14 -13 -10 -9 -9 -10 -9 -9 -8 -8 -8 -9 -10 -12 -11 -12 -10 -9 -10 -10 -10 -11 -11 -11 -12 -11 -12 -11 -9 -8 -8 -8 -8 -7 -7 -6
-17 -15 -14 -12 -11 -9 -10 -9 -9 -8 -8 -9 -10 -10 -11 -11 -11 -10 -9 -10 -10 -10 -10 -10 -10 -10 -12 -12 -12 -9 -8 -8 -8 -7 -7 -7 -6 -6
-14 -13 -11 -10 -11 -11 -10 -9 -8 -9 -10 -10 -11 -11 -10 -10 -9 -10 -10 -10 -10 -10 -10 -10 -12 -12 -11 -11 -10 -9 -9 -8 -8 -8 -7 -7 -7 -6
-12 -10 -9 -11 -10 -10 -9 -8 -11 -12 -12 -12 -10 -10 -9 -10 -10 -10 -10 -10 -10 -11 -11 -11 -12 -11 -11 -11 -11 -9 -9 -8 -8 -7 -7 -7 -7 -6
-10 -9 -10 -10 -10 -9 -9 -10 -10 -13 -13 -10 -10 -10 -12 -11 -10 -10 -11 -11 -11 -11 -12 -11 -11 -11 -11 -11 -11 -10 -9 -8 -8 -8 -7 -7 -6 -6
-8 -10 -10 -10 -9 -9 -10 -10 -10 -12 -9 -10 -12 -13 -13 -12 -11 -10 -11 -11 -11 -11 -11 -11 -11 -10 -10 -10 -11 -10 -10 -10 -8 -8 -8 -7 -7 -7
-10 -11 -12 -10 -9 -10 -10 -11 -11 -10 -11 -12 -13 -12 -12 -11 -11 -10 -10 -10 -11 -11 -10 -10 -10 -10 -10 -10 -10 -10 -9 -8 -7 -7 -7 -7 -8 -7
-10 -11 -11 -10 -10 -11 -11 -11 -10 -10 -12 -12 -12 -12 -11 -11 -11 -10 -10 -10 -9 -9 -9 -9 -9 -9 -9 -9 -9 -9 -7 -7 -7 -6 -6 -6 -7 -7
-11 -10 -10 -11 -13 -15 -13 -11 -11 -12 -12 -12 -12 -11 -11 -11 -10 -10 -10 -10 -9 -9 -8 -9 -9 -9 -9 -9 -8 -7 -7 -7 -6 -5 -5 -6 -6 -6
-10 -11 -13 -15 -16 -14 -13 -13 -12 -12 -12 -12 -11 -11 -10 -10 -10 -9 -9 -9 -9 -9 -9 -8 -8 -8 -7 -6 -6 -7 -6 -7 -5 -5 -4 -5 -5 -6
-11 -12 -15 -15 -15 -13 -12 -12 -12 -12 -11 -11 -11 -10 -10 -10 -9 -9 -9 -9 -9 -9 -9 -8 -8 -7 -6 -6 -7 -6 -5 -5 -4 -4 -3 -3 -4 -5
-12 -14 -14 -14 -13 -12 -12 -12 -11 -11 -11 -10 -10 -10 -10 -10 -9 -9 -9 -9 -9 -8 -8 -8 -7 -7 -7 -7 -6 -6 -4 -4 -4 -4 -4 -3 -2 -3
-14 -14 -14 -14 -13 -12 -11 -11 -11 -11 -10 -10 -10 -9 -9 -9 -9 -9 -9 -8 -9 -8 -8 -8 -7 -7 -7 -7 -6 -5 -6 -4 -4 -4 -4 -4 -3 -2
-14 -13 -13 -13 -12 -11 -11 -11 -11 -10 -9 -9 -9 -8 -8 -9 -9 -8 -8 -8 -9 -8 -9 -8 -7 -7 -7 -6 -7 -5 -5 -4 -4 -4 -4 -4 -3 -1
-14 -13 -14 -13 -11 -11 -11 -10 -10 -9 -9 -9 -8 -8 -8 -8 -8 -8 -8 -8 -8 -7 -8 -8 -7 -6 -5 -5 -6 -5 -5 -5 -5 -4 -4 -4 -4 -2
-13 -13 -14 -12 -11 -10 -10 -10 -9 -9 -8 -8 -8 -8 -8 -8 -8 -8 -8 -7 -7 -7 -8 -8 -6 -6 -5 -5 -6 -5 -5 -5 -5 -5 -5 -5 -5 -5
-13 -14 -13 -11 -10 -10 -10 -9 -9 -8 -8 -8 -8 -8 -8 -8 -8 -7 -7 -7 -7 -7 -9 -10 -6 -6 -6 -5 -5 -5 -5 -5 -5 -5 -5 -5 -4 -3

GFSNE_850_dewp_042.txt.gz
Dewpoint
-24 -24 -22 -18 -16 -15 -14 -12 -11 -10 -12 -11 -11 -13 -10 -10 -10 -9 -10 -11 -8 -8 -8 -8 -7 -7 -7 -6 -6 -5 -5 -6 -5 -4 -4 -3 -2 -2
-25 -22 -20 -17 -15 -14 -12 -11 -11 -11 -9 -13 -13 -12 -10 -10 -12 -10 -11 -9 -10 -8 -8 -8 -8 -7 -7 -7 -7 -8 -7 -6 -6 -6 -5 -5 -3 -3
-23 -20 -20 -17 -14 -12 -11 -11 -11 -10 -9 -11 -11 -12 -11 -13 -12 -9 -8 -9 -11 -10 -8 -8 -8 -9 -9 -8 -8 -7 -7 -6 -6 -5 -5 -5 -5 -4
-22 -19 -18 -14 -13 -12 -13 -12 -11 -10 -8 -9 -10 -12 -12 -12 -9 -9 -11 -11 -12 -11 -9 -9 -9 -9 -8 -8 -7 -7 -7 -7 -6 -6 -6 -6 -5 -5
-20 -17 -16 -15 -15 -15 -11 -10 -9 -9 -9 -9 -10 -10 -10 -9 -10 -11 -13 -12 -12 -11 -10 -10 -9 -8 -8 -8 -7 -7 -7 -7 -7 -7 -6 -6 -5 -5
-20 -18 -17 -15 -14 -10 -9 -9 -9 -10 -11 -9 -9 -8 -9 -11 -12 -12 -11 -11 -10 -10 -10 -9 -9 -9 -9 -9 -8 -8 -8 -8 -8 -8 -8 -7 -7 -6
-18 -16 -14 -14 -12 -9 -9 -9 -9 -10 -9 -8 -8 -10 -10 -11 -12 -11 -10 -10 -10 -10 -10 -10 -11 -10 -11 -11 -10 -9 -9 -9 -8 -8 -8 -7 -7 -7
-15 -13 -13 -12 -12 -9 -10 -9 -9 -8 -9 -9 -10 -10 -12 -11 -10 -10 -10 -10 -10 -10 -10 -10 -11 -11 -12 -12 -11 -9 -9 -8 -8 -7 -7 -7 -7 -6
-13 -12 -11 -11 -11 -11 -11 -9 -8 -9 -9 -10 -11 -11 -10 -10 -9 -10 -10 -10 -10 -11 -11 -10 -12 -11 -12 -11 -12 -10 -9 -8 -8 -8 -7 -7 -7 -7
-12 -11 -10 -11 -11 -10 -9 -8 -11 -11 -13 -12 -10 -10 -9 -10 -10 -10 -10 -10 -10 -12 -11 -11 -11 -11 -11 -11 -12 -12 -10 -8 -8 -8 -7 -7 -7 -7
-11 -9 -10 -10 -10 -9 -9 -9 -11 -12 -12 -10 -10 -10 -12 -11 -11 -10 -11 -11 -11 -11 -12 -11 -11 -11 -10 -11 -12 -11 -9 -8 -8 -7 -7 -7 -7 -7
-9 -10 -11 -10 -9 -9 -10 -10 -11 -12 -10 -10 -12 -13 -12 -12 -11 -11 -10 -11 -12 -12 -11 -11 -11 -10 -10 -11 -11 -10 -8 -7 -7 -7 -8 -7 -7 -7
-10 -10 -11 -10 -9 -10 -10 -11 -11 -10 -11 -12 -12 -12 -12 -11 -11 -10 -10 -10 -11 -11 -9 -10 -11 -10 -10 -10 -10 -9 -7 -7 -7 -6 -6 -6 -7 -7
-10 -11 -10 -10 -10 -11 -12 -11 -10 -11 -12 -12 -12 -11 -11 -11 -10 -10 -10 -9 -9 -9 -8 -8 -10 -9 -9 -9 -9 -7 -7 -6 -6 -6 -5 -5 -6 -6
-11 -10 -10 -11 -14 -16 -13 -12 -12 -12 -11 -12 -11 -11 -10 -10 -10 -10 -10 -9 -9 -10 -8 -8 -9 -8 -8 -9 -8 -7 -7 -7 -6 -5 -5 -5 -5 -6
-10 -11 -14 -15 -16 -14 -13 -12 -12 -11 -11 -11 -11 -10 -10 -10 -10 -9 -9 -9 -9 -10 -9 -8 -8 -7 -7 -6 -6 -6 -6 -7 -5 -5 -4 -4 -5 -6
-10 -13 -15 -15 -15 -13 -12 -12 -11 -11 -10 -10 -10 -10 -9 -9 -9 -9 -9 -9 -9 -9 -9 -9 -8 -7 -7 -6 -6 -6 -6 -5 -4 -4 -4 -3 -4 -5
-13 -15 -14 -14 -14 -12 -12 -11 -11 -10 -10 -9 -9 -9 -9 -10 -9 -9 -8 -8 -8 -9 -8 -8 -7 -7 -8 -7 -6 -6 -6 -6 -4 -4 -4 -4 -3 -3
-15 -14 -14 -14 -13 -12 -11 -11 -11 -10 -9 -9 -9 -9 -10 -9 -9 -8 -8 -8 -9 -8 -8 -8 -7 -7 -8 -7 -6 -5 -5 -6 -5 -4 -4 -4 -3 -3
-15 -14 -14 -14 -12 -11 -11 -10 -10 -9 -9 -9 -9 -9 -9 -9 -9 -8 -8 -8 -9 -8 -8 -9 -7 -7 -7 -7 -7 -5 -5 -5 -5 -4 -4 -4 -3 -2
-14 -14 -14 -13 -11 -11 -10 -10 -10 -9 -9 -9 -8 -9 -8 -9 -8 -8 -8 -8 -8 -8 -8 -9 -7 -6 -5 -6 -6 -5 -5 -5 -5 -5 -5 -4 -4 -2
-14 -14 -14 -11 -11 -10 -10 -9 -9 -8 -8 -8 -8 -8 -8 -8 -8 -8 -8 -8 -8 -8 -9 -10 -6 -6 -5 -6 -5 -5 -5 -5 -5 -5 -5 -5 -5 -5
-14 -14 -12 -11 -10 -10 -9 -9 -8 -8 -8 -8 -8 -8 -8 -8 -7 -8 -8 -7 -8 -8 -9 -10 -7 -6 -6 -5 -5 -5 -5 -5 -5 -5 -5 -5 -5 -4

GFSNE_850_dewp_045.txt.gz
Dewpoint
-25 -25 -23 -21 -20 -18 -16 -13 -10 -10 -11 -13 -12 -11 -9 -9 -11 -9 -9 -9 -8 -8 -8 -8 -8 -7 -7 -7 -6 -6 -5 -5 -5 -4 -4 -4 -4 -3
-24 -23 -22 -21 -20 -17 -15 -13 -12 -10 -9 -13 -12 -10 -9 -10 -9 -9 -9 -10 -10 -8 -8 -8 -8 -7 -7 -7 -7 -6 -6 -6 -6 -5 -5 -5 -4 -4
-23 -22 -22 -20 -19 -18 -18 -17 -15 -11 -9 -12 -11 -11 -10 -9 -9 -8 -8 -9 -10 -9 -9 -8 -8 -8 -7 -7 -6 -6 -6 -6 -6 -5 -5 -5 -4 -4
-23 -23 -22 -20 -20 -19 -17 -15 -11 -9 -9 -9 -10 -11 -10 -9 -8 -8 -10 -11 -11 -11 -10 -9 -8 -8 -7 -7 -7 -7 -6 -6 -6 -6 -6 -6 -5 -5
-22 -20 -20 -19 -17 -15 -12 -9 -9 -9 -9 -9 -10 -10 -9 -8 -10 -11 -12 -11 -11 -10 -10 -9 -9 -8 -8 -7 -7 -7 -7 -7 -6 -7 -7 -6 -6 -5
-22 -20 -18 -16 -14 -11 -9 -8 -8 -9 -9 -9 -8 -8 -9 -10 -11 -11 -11 -10 -10 -10 -10 -9 -9 -9 -8 -8 -8 -8 -8 -8 -7 -7 -7 -7 -7 -7
-21 -19 -16 -14 -11 -9 -9 -9 -9 -9 -9 -8 -9 -10 -10 -11 -10 -10 -10 -10 -9 -10 -10 -9 -10 -10 -11 -11 -11 -11 -9 -8 -8 -8 -7 -7 -7 -6
-19 -16 -13 -12 -12 -9 -9 -9 -8 -8 -8 -9 -10 -10 -11 -10 -10 -9 -9 -10 -10 -10 -10 -10 -10 -11 -11 -11 -11 -9 -8 -8 -8 -7 -7 -7 -7 -6
-17 -13 -11 -11 -11 -11 -11 -9 -8 -9 -9 -10 -10 -10 -10 -10 -9 -10 -10 -10 -10 -10 -11 -10 -11 -11 -11 -12 -11 -11 -10 -8 -8 -7 -7 -7 -7 -7
-14 -11 -10 -11 -10 -9 -9 -8 -11 -10 -10 -10 -10 -10 -10 -10 -10 -10 -10 -10 -10 -11 -10 -11 -11 -11 -11 -11 -11 -11 -10 -8 -8 -7 -7 -7 -6 -6
-12 -10 -10 -9 -9 -9 -9 -9 -10 -10 -12 -10 -10 -10 -12 -12 -11 -11 -10 -11 -11 -11 -12 -11 -10 -10 -11 -11 -11 -10 -9 -7 -7 -7 -7 -7 -7 -6
-9 -9 -9 -10 -10 -9 -9 -10 -10 -12 -10 -10 -12 -12 -12 -11 -11 -10 -10 -11 -11 -12 -11 -10 -11 -10 -10 -10 -10 -9 -9 -7 -6 -7 -7 -7 -7 -7
-10 -10 -10 -10 -9 -10 -10 -10 -11 -10 -10 -11 -12 -11 -11 -10 -10 -10 -10 -10 -10 -11 -10 -10 -11 -10 -10 -10 -9 -9 -7 -7 -7 -7 -6 -5 -5 -5
-9 -10 -10 -9 -10 -11 -13 -12 -10 -11 -11 -11 -11 -11 -10 -10 -10 -10 -10 -9 -9 -9 -10 -8 -10 -9 -9 -10 -9 -8 -7 -7 -7 -6 -6 -5 -5 -5
-10 -10 -10 -13 -15 -16 -14 -12 -12 -11 -11 -11 -11 -10 -10 -10 -10 -10 -9 -9 -9 -10 -9 -8 -8 -8 -9 -9 -8 -7 -6 -7 -7 -6 -5 -5 -4 -5
-11 -11 -15 -15 -15 -15 -13 -12 -12 -11 -11 -10 -10 -10 -10 -9 -10 -10 -9 -9 -9 -10 -10 -9 -8 -8 -8 -6 -7 -7 -6 -6 -6 -5 -4 -4 -4 -5
-10 -15 -15 -15 -15 -13 -12 -12 -11 -11 -10 -10 -9 -10 -9 -10 -10 -9 -9 -9 -9 -9 -9 -9 -8 -7 -7 -6 -6 -6 -6 -6 -5 -5 -5 -4 -4 -4
-13 -15 -15 -14 -15 -12 -11 -11 -11 -10 -10 -9 -9 -9 -9 -10 -10 -9 -9 -9 -9 -9 -9 -9 -7 -7 -8 -8 -6 -6 -6 -6 -6 -5 -4 -4 -3 -4
-16 -15 -14 -14 -13 -11 -11 -11 -10 -10 -9 -9 -9 -9 -9 -9 -9 -9 -8 -8 -9 -9 -8 -9 -7 -7 -8 -7 -7 -5 -6 -6 -6 -5 -4 -4 -4 -4
-16 -15 -14 -14 -12 -11 -11 -10 -10 -9 -9 -9 -9 -9 -8 -9 -9 -8 -8 -8 -9 -8 -8 -11 -7 -6 -7 -7 -7 -5 -5 -6 -6 -5 -5 -4 -4 -4
-15 -14 -14 -12 -11 -10 -10 -10 -9 -9 -9 -9 -8 -8 -8 -8 -8 -8 -8 -8 -8 -8 -8 -10 -7 -6 -6 -6 -6 -5 -5 -5 -5 -5 -5 -5 -4 -4
-14 -14 -13 -11 -10 -10 -9 -9 -9 -8 -8 -8 -8 -8 -8 -8 -8 -8 -8 -8 -8 -8 -8 -9 -7 -7 -6 -6 -6 -6 -5 -5 -5 -5 -5 -5 -5 -6
-14 -14 -11 -10 -10 -10 -9 -8 -8 -8 -8 -8 -8 -8 -8 -8 -7 -8 -8 -8 -8 -8 -8 -9 -8 -7 -7 -7 -7 -6 -6 -6 -5 -5 -5 -5 -5 -5

GFSNE_850_dewp_048.txt.gz
Dewpoint
-22 -22 -21 -21 -20 -15 -12 -11 -11 -11 -12 -13 -14 -13 -12 -10 -10 -10 -9 -9 -9 -8 -7 -7 -7 -7 -6 -6 -6 -6 -5 -5 -5 -4 -4 -4 -3 -3
-21 -21 -21 -20 -19 -13 -11 -10 -10 -11 -11 -13 -13 -11 -10 -10 -10 -10 -10 -9 -9 -8 -8 -8 -7 -7 -7 -6 -6 -6 -5 -5 -5 -5 -4 -4 -4 -4
-20 -21 -22 -21 -18 -14 -12 -11 -11 -11 -11 -11 -10 -10 -9 -10 -10 -9 -9 -9 -11 -11 -10 -8 -8 -7 -7 -6 -6 -6 -6 -5 -5 -5 -5 -4 -4 -4
-21 -22 -22 -19 -18 -12 -11 -11 -10 -9 -9 -9 -10 -9 -10 -9 -8 -9 -11 -11 -11 -10 -9 -8 -7 -7 -7 -7 -6 -6 -6 -6 -5 -5 -5 -5 -4 -4
-21 -22 -21 -18 -13 -11 -10 -9 -9 -9 -9 -8 -9 -10 -9 -8 -9 -10 -10 -10 -10 -10 -9 -9 -8 -8 -7 -7 -7 -7 -6 -6 -6 -6 -6 -6 -5 -5
-22 -21 -18 -14 -11 -10 -9 -9 -9 -9 -10 -9 -9 -9 -7 -10 -11 -11 -10 -10 -10 -9 -9 -8 -8 -8 -8 -8 -8 -7 -7 -7 -7 -6 -6 -6 -6 -6
-19 -14 -12 -11 -13 -8 -8 -8 -9 -9 -9 -8 -7 -8 -10 -10 -11 -10 -9 -9 -9 -9 -10 -10 -10 -10 -11 -10 -9 -8 -8 -7 -7 -7 -7 -7 -6 -6
-13 -11 -11 -10 -9 -9 -9 -9 -9 -8 -8 -8 -9 -9 -11 -11 -10 -9 -9 -9 -9 -9 -9 -10 -9 -10 -10 -11 -10 -8 -7 -7 -7 -7 -7 -6 -6 -6
-12 -10 -10 -10 -9 -9 -9 -9 -9 -8 -8 -9 -10 -11 -10 -10 -10 -9 -10 -10 -9 -10 -9 -10 -10 -10 -11 -11 -10 -9 -8 -7 -7 -7 -6 -6 -6 -6
-10 -10 -9 -9 -10 -9 -9 -9 -9 -9 -10 -10 -10 -10 -10 -9 -9 -10 -10 -10 -10 -9 -9 -9 -10 -10 -9 -10 -11 -10 -9 -7 -7 -7 -6 -6 -6 -6
-10 -10 -9 -9 -9 -9 -9 -9 -10 -10 -11 -10 -9 -9 -9 -9 -10 -10 -10 -10 -10 -10 -10 -9 -9 -10 -10 -11 -10 -9 -8 -8 -7 -6 -6 -6 -6 -6
-10 -10 -10 -9 -9 -9 -9 -10 -10 -11 -11 -10 -9 -10 -10 -10 -10 -10 -10 -10 -10 -11 -10 -10 -10 -10 -10 -10 -9 -9 -8 -8 -7 -6 -6 -6 -6 -6
-10 -10 -10 -10 -9 -9 -9 -10 -10 -10 -10 -10 -10 -10 -10 -10 -10 -10 -10 -10 -10 -11 -10 -10 -11 -10 -10 -10 -9 -8 -8 -7 -7 -6 -6 -6 -6 -6
-10 -10 -10 -9 -10 -10 -12 -12 -10 -10 -10 -10 -11 -10 -10 -10 -10 -10 -10 -10 -9 -9 -9 -9 -10 -9 -10 -10 -9 -8 -7 -7 -6 -6 -6 -6 -5 -5
-9 -10 -10 -10 -15 -16 -14 -12 -11 -11 -11 -11 -11 -10 -9 -9 -10 -10 -10 -10 -9 -10 -10 -9 -8 -8 -9 -9 -9 -7 -7 -7 -6 -5 -5 -5 -5 -5
-10 -10 -11 -13 -13 -13 -12 -11 -11 -11 -11 -11 -11 -10 -9 -10 -10 -10 -9 -9 -9 -10 -10 -9 -9 -8 -8 -7 -7 -6 -6 -6 -6 -6 -5 -5 -4 -4
-10 -11 -12 -13 -12 -12 -11 -11 -11 -11 -11 -10 -10 -9 -9 -9 -9 -9 -9 -9 -9 -9 -9 -9 -9 -7 -7 -7 -6 -6 -6 -6 -6 -6 -6 -5 -4 -4
-13 -12 -13 -12 -12 -12 -12 -11 -11 -10 -10 -9 -9 -9 -9 -10 -9 -9 -9 -9 -9 -9 -9 -8 -8 -8 -8 -8 -7 -6 -6 -6 -6 -6 -5 -5 -4 -5
-15 -13 -12 -12 -12 -12 -11 -11 -10 -10 -9 -9 -9 -9 -9 -9 -9 -9 -8 -8 -8 -9 -8 -8 -8 -7 -7 -7 -7 -6 -6 -6 -5 -6 -6 -5 -5 -4
-15 -13 -12 -13 -12 -11 -10 -10 -10 -9 -9 -9 -9 -8 -8 -9 -9 -8 -8 -8 -8 -9 -8 -8 -8 -7 -7 -7 -6 -7 -6 -6 -5 -6 -6 -5 -5 -4
-14 -14 -13 -12 -11 -10 -10 -10 -9 -9 -9 -9 -8 -8 -8 -8 -8 -8 -8 -8 -8 -8 -9 -8 -9 -7 -7 -7 -6 -6 -7 -5 -5 -5 -6 -6 -5 -6
-14 -14 -14 -11 -10 -10 -10 -9 -9 -8 -8 -8 -8 -8 -8 -8 -8 -8 -8 -8 -8 -8 -8 -8 -9 -7 -7 -7 -7 -7 -6 -6 -6 -5 -5 -5 -5 -5
-14 -14 -12 -10 -9 -9 -9 -9 -8 -8 -8 -8 -8 -8 -8 -8 -8 -8 -8 -8 -8 -8 -8 -8 -8 -8 -8 -8 -8 -7 -6 -6 -6 -6 -6 -5 -5 -5

GFSNE_850_dewp_051.txt.gz
Dewpoint
-19 -18 -17 -17 -16 -15 -14 -12 -10 -9 -10 -12 -13 -13 -13 -12 -11 -10 -10 -10 -9 -8 -7 -7 -7 -7 -7 -6 -5 -5 -5 -4 -4 -4 -4 -3 -3 -3
-17 -17 -18 -17 -16 -16 -13 -12 -11 -11 -10 -11 -11 -11 -10 -10 -10 -9 -10 -9 -9 -9 -8 -8 -8 -7 -7 -6 -6 -5 -5 -5 -4 -4 -4 -4 -3 -3
-17 -17 -17 -16 -15 -14 -13 -12 -11 -11 -10 -10 -9 -9 -10 -9 -9 -9 -8 -10 -8 -10 -9 -8 -8 -7 -6 -6 -6 -5 -5 -5 -5 -4 -4 -4 -4 -3
-17 -16 -16 -14 -14 -13 -12 -11 -11 -10 -9 -9 -9 -9 -9 -10 -9 -8 -7 -10 -11 -10 -9 -8 -7 -7 -7 -6 -6 -6 -6 -5 -6 -5 -5 -5 -4 -4
-15 -14 -16 -13 -12 -12 -11 -10 -9 -9 -9 -9 -9 -9 -9 -8 -7 -9 -11 -10 -10 -10 -9 -9 -8 -7 -7 -7 -7 -7 -7 -7 -6 -5 -5 -5 -5 -5
-13 -12 -12 -12 -12 -10 -10 -8 -9 -9 -9 -9 -10 -10 -7 -7 -10 -10 -10 -10 -10 -10 -9 -9 -8 -8 -8 -8 -7 -7 -7 -6 -6 -6 -6 -5 -5 -5
-15 -13 -12 -11 -11 -9 -8 -9 -9 -9 -10 -9 -8 -7 -8 -9 -10 -10 -9 -9 -11 -8 -9 -11 -9 -11 -11 -9 -9 -8 -7 -6 -6 -6 -6 -5 -5 -5
-17 -15 -12 -11 -10 -9 -9 -9 -9 -8 -8 -8 -8 -8 -8 -10 -10 -9 -10 -8 -8 -10 -9 -11 -10 -11 -10 -10 -9 -7 -7 -6 -6 -6 -6 -5 -6 -5
-14 -11 -10 -10 -9 -9 -10 -9 -9 -9 -8 -8 -8 -9 -10 -10 -11 -9 -9 -9 -9 -9 -9 -10 -10 -10 -10 -11 -9 -8 -8 -9 -7 -6 -6 -6 -6 -6
-12 -10 -10 -10 -9 -9 -9 -9 -10 -10 -9 -10 -10 -10 -10 -9 -8 -8 -9 -10 -10 -10 -9 -9 -10 -11 -9 -10 -12 -11 -10 -7 -6 -6 -6 -6 -6 -5
-10 -10 -10 -9 -10 -9 -9 -8 -9 -11 -11 -10 -10 -9 -8 -9 -9 -9 -10 -10 -10 -9 -10 -10 -10 -10 -11 -11 -11 -10 -9 -8 -8 -6 -6 -6 -6 -6
-10 -10 -10 -10 -9 -9 -9 -9 -10 -10 -11 -10 -10 -11 -10 -10 -9 -9 -9 -10 -10 -10 -10 -10 -10 -10 -10 -10 -10 -10 -9 -8 -7 -7 -6 -6 -5 -6
-10 -10 -10 -9 -9 -9 -9 -10 -10 -9 -10 -10 -11 -11 -11 -10 -9 -9 -10 -10 -10 -11 -10 -10 -11 -10 -11 -10 -10 -9 -8 -7 -7 -7 -7 -6 -6 -5
-9 -10 -10 -9 -9 -10 -10 -10 -10 -9 -11 -11 -11 -10 -10 -10 -9 -10 -10 -9 -9 -10 -9 -9 -10 -10 -10 -10 -10 -9 -8 -7 -6 -6 -6 -6 -6 -5
-10 -9 -9 -10 -10 -12 -12 -10 -10 -11 -11 -11 -11 -10 -10 -9 -10 -10 -10 -9 -9 -10 -10 -9 -9 -10 -9 -9 -9 -9 -8 -7 -6 -6 -6 -6 -6 -5
-10 -11 -11 -11 -13 -12 -12 -12 -11 -11 -11 -11 -11 -10 -10 -9 -9 -9 -9 -9 -9 -10 -10 -9 -9 -9 -9 -8 -8 -7 -7 -7 -6 -6 -6 -6 -5 -5
-10 -15 -14 -13 -13 -12 -12 -11 -11 -11 -10 -10 -10 -10 -9 -9 -9 -9 -9 -9 -10 -10 -9 -10 -9 -9 -8 -7 -7 -7 -6 -6 -6 -6 -6 -6 -6 -5
-14 -13 -13 -13 -12 -12 -11 -11 -11 -10 -10 -10 -9 -9 -9 -9 -9 -9 -9 -9 -10 -10 -10 -9 -9 -8 -8 -8 -7 -6 -6 -6 -6 -6 -6 -6 -6 -6
-14 -13 -13 -13 -13 -11 -11 -10 -10 -10 -9 -9 -9 -9 -9 -9 -9 -9 -9 -9 -9 -10 -10 -9 -8 -8 -8 -7 -9 -8 -6 -6 -6 -6 -6 -6 -6 -6
-14 -13 -14 -13 -12 -11 -10 -10 -10 -9 -9 -9 -9 -9 -8 -8 -9 -9 -8 -9 -10 -9 -9 -9 -8 -8 -8 -7 -7 -9 -9 -6 -6 -6 -6 -6 -6 -6
-15 -15 -14 -13 -11 -10 -10 -10 -9 -9 -9 -9 -8 -8 -8 -8 -9 -8 -8 -9 -9 -9 -9 -8 -8 -8 -7 -7 -7 -7 -8 -7 -6 -6 -6 -6 -6 -5
-15 -15 -14 -11 -10 -10 -10 -9 -9 -9 -8 -8 -8 -8 -8 -8 -8 -8 -8 -8 -8 -8 -8 -8 -8 -8 -7 -7 -7 -6 -6 -6 -7 -6 -6 -6 -5 -5
-14 -14 -12 -10 -10 -9 -9 -9 -8 -8 -8 -8 -8 -8 -8 -8 -8 -8 -8 -8 -8 -8 -8 -8 -8 -8 -7 -7 -7 -6 -6 -7 -6 -7 -7 -6 -5 -5

GFSNE_850_dewp_054.txt.gz
Dewpoint
-17 -16 -16 -17 -17 -17 -16 -15 -12 -9 -11 -14 -13 -14 -15 -14 -13 -13 -12 -13 -8 -7 -7 -7 -7 -7 -7 -6 -5 -5 -4 -4 -4 -4 -4 -3 -3 -3
-15 -16 -16 -16 -17 -17 -17 -17 -15 -13 -11 -13 -12 -11 -10 -10 -12 -10 -11 -10 -9 -8 -8 -7 -8 -7 -6 -6 -5 -5 -4 -4 -4 -4 -3 -3 -3 -3
-15 -15 -15 -16 -17 -18 -17 -17 -15 -12 -10 -11 -10 -9 -9 -10 -10 -10 -10 -8 -9 -9 -9 -8 -7 -7 -7 -6 -6 -5 -5 -5 -4 -4 -4 -4 -4 -4
-15 -15 -16 -17 -18 -17 -16 -13 -11 -11 -10 -9 -9 -10 -10 -11 -11 -9 -10 -11 -10 -10 -9 -8 -7 -7 -6 -6 -6 -6 -6 -6 -5 -5 -5 -4 -4 -4
-15 -16 -17 -17 -17 -15 -13 -12 -12 -11 -10 -9 -9 -10 -10 -10 -8 -9 -11 -10 -10 -11 -9 -9 -8 -7 -7 -7 -7 -7 -6 -6 -6 -6 -6 -5 -5 -4
-19 -19 -17 -15 -13 -12 -11 -10 -9 -9 -9 -9 -8 -8 -8 -8 -8 -9 -9 -10 -12 -11 -11 -12 -8 -12 -9 -10 -9 -8 -7 -7 -6 -6 -5 -5 -5 -5
-22 -21 -17 -14 -13 -9 -9 -8 -8 -8 -8 -8 -8 -8 -8 -8 -8 -9 -10 -11 -11 -9 -8 -12 -11 -12 -12 -11 -11 -12 -8 -7 -6 -6 -5 -5 -5 -5
-24 -22 -17 -15 -13 -10 -9 -8 -8 -8 -9 -9 -8 -8 -8 -9 -9 -9 -11 -8 -8 -9 -9 -11 -11 -11 -11 -11 -11 -8 -7 -7 -6 -6 -5 -5 -5 -5
-25 -18 -15 -12 -11 -10 -9 -9 -9 -9 -9 -8 -9 -9 -9 -9 -9 -9 -8 -8 -9 -10 -9 -9 -11 -11 -11 -11 -12 -11 -9 -10 -7 -6 -5 -5 -5 -5
-24 -17 -11 -11 -10 -9 -9 -8 -9 -10 -10 -9 -9 -9 -9 -9 -8 -8 -9 -9 -10 -11 -9 -9 -10 -11 -11 -11 -12 -12 -11 -8 -7 -7 -6 -6 -6 -5
-22 -16 -13 -11 -9 -9 -8 -9 -9 -9 -11 -12 -10 -9 -9 -9 -9 -9 -10 -9 -10 -10 -11 -10 -10 -11 -11 -11 -12 -11 -10 -10 -9 -8 -7 -6 -6 -5
-17 -16 -12 -9 -9 -8 -9 -8 -9 -10 -11 -10 -11 -11 -12 -11 -11 -10 -10 -10 -10 -11 -11 -10 -11 -11 -10 -11 -11 -11 -10 -9 -8 -7 -7 -7 -7 -6
-10 -11 -10 -9 -9 -9 -9 -9 -10 -9 -9 -10 -11 -11 -11 -11 -10 -10 -10 -10 -11 -11 -10 -10 -11 -11 -11 -10 -11 -11 -10 -9 -8 -7 -7 -7 -6 -6
-10 -10 -10 -9 -9 -9 -10 -10 -10 -9 -11 -11 -11 -11 -11 -10 -10 -10 -10 -10 -10 -10 -9 -9 -10 -10 -10 -10 -10 -10 -10 -9 -7 -7 -7 -6 -7 -6
-11 -10 -9 -10 -13 -13 -13 -10 -10 -12 -11 -11 -11 -10 -10 -10 -10 -9 -10 -10 -9 -10 -9 -9 -10 -10 -10 -10 -9 -9 -8 -8 -8 -7 -7 -6 -6 -6
-11 -11 -14 -17 -15 -14 -14 -13 -12 -11 -10 -10 -10 -10 -10 -9 -9 -9 -9 -9 -9 -10 -10 -9 -10 -10 -10 -9 -9 -8 -8 -7 -7 -7 -6 -6 -6 -6
-10 -13 -17 -17 -16 -15 -13 -11 -11 -10 -10 -10 -9 -9 -9 -9 -9 -9 -9 -9 -10 -9 -10 -10 -9 -9 -9 -9 -9 -9 -8 -8 -7 -7 -6 -6 -6 -6
-13 -16 -16 -16 -15 -14 -12 -11 -11 -10 -10 -9 -9 -9 -9 -9 -9 -9 -9 -9 -9 -9 -10 -10 -10 -10 -10 -9 -8 -8 -8 -8 -7 -7 -7 -6 -6 -6
-17 -17 -16 -15 -14 -12 -11 -10 -10 -10 -9 -9 -9 -9 -9 -9 -9 -9 -9 -9 -9 -10 -10 -9 -9 -9 -9 -8 -9 -8 -8 -7 -7 -7 -6 -6 -6 -7
-17 -16 -15 -15 -13 -11 -10 -10 -10 -9 -9 -9 -9 -9 -8 -9 -9 -9 -9 -9 -10 -10 -9 -9 -8 -8 -8 -8 -8 -9 -8 -7 -7 -7 -7 -6 -7 -7
-16 -16 -15 -14 -11 -10 -10 -10 -9 -9 -9 -8 -8 -9 -8 -9 -9 -9 -9 -8 -9 -8 -8 -8 -8 -8 -8 -8 -7 -8 -8 -7 -7 -7 -6 -6 -6 -6
-15 -14 -14 -11 -10 -10 -9 -9 -9 -9 -8 -8 -8 -8 -8 -9 -9 -9 -8 -8 -8 -8 -8 -9 -8 -8 -8 -8 -7 -7 -7 -7 -8 -8 -7 -6 -6 -5
-14 -14 -12 -10 -10 -9 -9 -9 -8 -8 -8 -8 -8 -8 -8 -8 -8 -8 -8 -8 -8 -9 -9 -9 -8 -8 -8 -7 -7 -7 -7 -7 -7 -7 -8 -7 -5 -5

GFSNE_850_dewp_057.txt.gz
Dewpoint
-16 -16 -16 -16 -16 -16 -16 -16 -14 -11 -13 -15 -15 -17 -19 -19 -17 -13 -13 -14 -8 -7 -7 -6 -6 -6 -6 -6 -5 -5 -4 -4 -4 -4 -3 -3 -3 -2
-15 -15 -15 -15 -16 -16 -17 -17 -16 -14 -11 -15 -15 -16 -16 -14 -14 -14 -13 -13 -12 -10 -7 -7 -7 -6 -6 -6 -6 -5 -5 -4 -4 -4 -4 -3 -3 -3
-15 -15 -15 -15 -16 -17 -17 -17 -17 -15 -12 -14 -14 -14 -12 -12 -12 -12 -12 -11 -13 -12 -8 -8 -7 -7 -7 -6 -6 -5 -5 -5 -5 -4 -4 -4 -4 -3
-15 -15 -15 -16 -17 -17 -17 -17 -16 -14 -12 -12 -12 -11 -10 -10 -11 -11 -11 -12 -12 -13 -8 -8 -7 -7 -7 -6 -6 -6 -6 -5 -5 -6 -5 -5 -4 -4
-15 -16 -18 -18 -17 -16 -16 -15 -12 -11 -11 -9 -9 -9 -9 -10 -9 -10 -10 -12 -12 -12 -10 -11 -9 -9 -7 -7 -7 -7 -7 -6 -6 -6 -5 -5 -5 -5
-18 -20 -21 -18 -16 -15 -13 -10 -9 -9 -8 -8 -8 -8 -9 -8 -9 -10 -10 -11 -12 -11 -10 -12 -9 -12 -11 -12 -11 -11 -10 -7 -7 -6 -6 -6 -5 -5
-22 -23 -22 -20 -16 -14 -9 -9 -8 -8 -8 -8 -8 -9 -8 -8 -10 -10 -10 -11 -11 -10 -9 -11 -11 -12 -12 -12 -12 -12 -11 -7 -7 -6 -6 -6 -5 -5
-25 -27 -25 -20 -16 -12 -9 -8 -8 -8 -8 -8 -8 -8 -9 -10 -10 -9 -10 -9 -9 -10 -9 -11 -11 -11 -11 -11 -12 -11 -11 -8 -7 -7 -6 -6 -6 -5
-29 -29 -24 -18 -15 -12 -11 -9 -8 -8 -8 -8 -9 -9 -9 -10 -10 -9 -9 -8 -9 -11 -10 -10 -11 -11 -11 -11 -12 -12 -12 -10 -8 -7 -6 -6 -6 -6
-31 -25 -20 -18 -16 -11 -8 -8 -8 -9 -10 -9 -9 -9 -9 -9 -9 -9 -9 -9 -10 -10 -10 -10 -11 -11 -11 -11 -12 -12 -12 -11 -8 -8 -8 -7 -6 -6
-25 -21 -18 -17 -13 -8 -8 -8 -8 -9 -10 -11 -10 -9 -9 -9 -10 -10 -10 -10 -10 -10 -11 -10 -10 -11 -11 -11 -12 -11 -11 -11 -10 -9 -8 -7 -6 -6
-26 -22 -18 -13 -9 -8 -8 -8 -9 -10 -11 -10 -11 -11 -12 -11 -11 -10 -10 -10 -11 -10 -11 -10 -11 -11 -10 -11 -11 -11 -11 -11 -10 -9 -8 -7 -7 -6
-20 -19 -17 -12 -9 -9 -9 -9 -10 -10 -9 -10 -11 -12 -11 -11 -10 -10 -10 -10 -10 -10 -10 -10 -11 -11 -11 -11 -11 -11 -11 -11 -10 -9 -8 -8 -7 -7
-17 -15 -11 -9 -9 -10 -11 -11 -10 -10 -11 -11 -11 -11 -10 -10 -10 -10 -10 -10 -9 -10 -10 -10 -10 -10 -10 -11 -11 -11 -11 -11 -10 -9 -9 -8 -8 -7
-13 -10 -9 -11 -17 -18 -17 -14 -13 -11 -11 -11 -10 -10 -10 -10 -10 -10 -10 -10 -9 -10 -10 -10 -9 -10 -10 -10 -10 -10 -10 -10 -9 -9 -9 -8 -8 -7
-12 -11 -13 -17 -18 -17 -15 -12 -11 -11 -10 -10 -10 -9 -9 -9 -9 -9 -9 -9 -10 -10 -10 -10 -10 -10 -10 -9 -9 -9 -10 -9 -9 -9 -9 -8 -7 -7
-10 -16 -18 -19 -18 -16 -12 -11 -11 -10 -10 -9 -9 -9 -9 -9 -9 -9 -9 -9 -10 -10 -10 -11 -10 -9 -9 -9 -9 -10 -9 -10 -9 -9 -8 -7 -7 -8
-16 -18 -18 -17 -16 -13 -11 -11 -11 -10 -10 -9 -9 -9 -9 -9 -10 -10 -9 -10 -10 -9 -10 -10 -9 -10 -10 -10 -10 -9 -10 -9 -9 -8 -7 -7 -8 -8
-17 -17 -17 -16 -14 -11 -10 -10 -10 -10 -9 -9 -9 -9 -9 -9 -10 -10 -10 -9 -9 -9 -9 -9 -9 -9 -9 -9 -10 -8 -8 -9 -8 -7 -7 -7 -7 -7
-17 -16 -15 -14 -12 -10 -10 -10 -10 -9 -9 -9 -9 -9 -9 -9 -9 -9 -9 -9 -9 -9 -9 -9 -9 -9 -9 -9 -8 -9 -9 -8 -7 -7 -7 -7 -7 -7
-16 -15 -14 -12 -10 -10 -10 -9 -9 -9 -8 -8 -8 -8 -9 -9 -9 -9 -8 -8 -8 -8 -9 -9 -10 -9 -8 -8 -8 -8 -8 -8 -7 -7 -7 -7 -7 -7
-14 -14 -13 -10 -10 -9 -9 -9 -9 -8 -8 -8 -8 -8 -8 -8 -8 -9 -8 -8 -9 -9 -9 -9 -9 -9 -8 -8 -8 -8 -7 -8 -8 -8 -8 -6 -6 -6
-14 -13 -10 -10 -9 -9 -9 -9 -8 -8 -7 -7 -8 -8 -8 -8 -8 -9 -9 -9 -9 -9 -9 -9 -8 -8 -7 -7 -7 -7 -7 -7 -7 -7 -8 -8 -6 -5

GFSNE_850_dewp_060.txt.gz
Dewpoint
-13 -13 -15 -16 -16 -16 -16 -16 -15 -13 -15 -17 -18 -19 -20 -20 -19 -17 -16 -16 -17 -16 -7 -7 -6 -6 -6 -6 -5 -4 -4 -4 -4 -4 -3 -3 -3 -2
-15 -15 -15 -16 -15 -15 -16 -16 -16 -15 -12 -16 -19 -19 -19 -18 -16 -15 -16 -16 -15 -14 -9 -7 -7 -6 -6 -6 -6 -5 -5 -4 -4 -4 -4 -3 -3 -3
-14 -15 -15 -15 -15 -16 -17 -17 -17 -15 -13 -15 -15 -15 -14 -15 -15 -15 -17 -16 -15 -16 -10 -7 -7 -6 -6 -6 -6 -5 -5 -5 -5 -4 -4 -4 -3 -3
-15 -15 -15 -15 -17 -18 -17 -17 -17 -17 -14 -12 -12 -11 -10 -11 -11 -13 -14 -16 -15 -14 -13 -8 -8 -7 -7 -7 -6 -6 -6 -6 -5 -5 -5 -5 -4 -4
-14 -15 -16 -19 -20 -20 -19 -18 -16 -14 -11 -10 -9 -9 -9 -10 -11 -12 -12 -15 -14 -13 -12 -12 -12 -9 -8 -7 -7 -7 -7 -7 -7 -6 -6 -6 -5 -5
-15 -18 -21 -22 -22 -21 -19 -16 -12 -10 -10 -9 -8 -8 -9 -10 -11 -10 -12 -13 -13 -12 -12 -11 -10 -10 -10 -11 -12 -11 -11 -9 -8 -7 -6 -6 -6 -5
-20 -22 -24 -25 -24 -20 -13 -11 -9 -9 -8 -8 -8 -9 -9 -9 -10 -12 -11 -11 -10 -11 -11 -10 -11 -11 -12 -12 -12 -12 -12 -8 -7 -7 -6 -6 -6 -6
-23 -26 -28 -28 -24 -20 -17 -15 -9 -8 -7 -8 -8 -8 -9 -10 -12 -11 -9 -9 -9 -11 -10 -11 -11 -11 -12 -12 -11 -12 -10 -8 -8 -8 -7 -7 -6 -6
-27 -29 -30 -25 -21 -21 -18 -12 -9 -9 -8 -8 -8 -9 -10 -12 -9 -9 -9 -9 -9 -11 -10 -10 -11 -11 -12 -12 -12 -12 -12 -11 -8 -7 -7 -7 -6 -6
-28 -27 -23 -23 -23 -18 -10 -8 -8 -9 -9 -9 -10 -10 -9 -9 -9 -9 -9 -10 -10 -11 -11 -10 -11 -11 -11 -11 -12 -12 -12 -12 -9 -8 -8 -7 -7 -7
-26 -24 -24 -22 -20 -9 -8 -8 -8 -9 -11 -11 -11 -9 -9 -10 -10 -10 -10 -10 -10 -10 -11 -11 -10 -10 -11 -11 -12 -12 -12 -12 -11 -11 -10 -8 -8 -7
-27 -25 -23 -20 -15 -8 -8 -9 -9 -11 -10 -9 -10 -11 -12 -11 -11 -10 -10 -10 -10 -11 -11 -10 -11 -11 -10 -11 -11 -11 -12 -12 -11 -11 -11 -10 -8 -7
-24 -23 -21 -15 -9 -9 -9 -11 -12 -10 -9 -11 -12 -11 -11 -11 -10 -10 -10 -10 -10 -10 -10 -10 -11 -11 -11 -10 -11 -11 -11 -11 -11 -11 -11 -10 -8 -8
-21 -18 -14 -10 -10 -16 -19 -18 -11 -11 -12 -11 -11 -11 -10 -10 -10 -10 -9 -9 -9 -9 -10 -9 -10 -10 -10 -11 -11 -11 -11 -11 -11 -11 -10 -9 -9 -9
-15 -11 -12 -15 -18 -19 -18 -16 -12 -11 -11 -11 -10 -10 -10 -10 -10 -9 -10 -10 -10 -10 -10 -10 -10 -10 -10 -10 -10 -10 -10 -11 -11 -11 -11 -10 -9 -9
-13 -17 -19 -19 -19 -18 -16 -12 -11 -11 -10 -10 -9 -9 -9 -9 -9 -10 -10 -10 -10 -10 -11 -10 -10 -9 -10 -10 -9 -10 -11 -10 -11 -11 -11 -10 -9 -8
-16 -20 -20 -20 -19 -17 -12 -11 -11 -10 -10 -9 -9 -9 -9 -9 -10 -10 -10 -10 -10 -10 -10 -10 -10 -9 -9 -10 -10 -11 -11 -10 -10 -10 -9 -8 -8 -8
-19 -18 -19 -18 -16 -13 -11 -11 -10 -10 -9 -9 -9 -9 -9 -9 -9 -9 -9 -9 -9 -9 -10 -10 -9 -10 -10 -11 -10 -11 -10 -10 -10 -9 -8 -8 -8 -8
-18 -17 -17 -15 -13 -11 -10 -10 -10 -9 -9 -9 -9 -8 -9 -9 -9 -9 -9 -9 -9 -9 -10 -10 -9 -9 -10 -10 -10 -9 -9 -9 -8 -8 -8 -7 -8 -8
-17 -16 -16 -14 -11 -10 -10 -9 -9 -9 -9 -8 -8 -8 -8 -8 -8 -9 -9 -9 -9 -10 -9 -9 -9 -9 -9 -9 -9 -9 -9 -8 -8 -7 -8 -8 -8 -8
-17 -16 -14 -11 -10 -10 -9 -9 -9 -9 -8 -8 -8 -8 -8 -8 -8 -8 -9 -9 -9 -9 -9 -9 -9 -8 -8 -8 -8 -8 -8 -8 -7 -7 -7 -7 -7 -8
-15 -14 -11 -10 -10 -9 -9 -9 -9 -9 -8 -8 -7 -7 -8 -8 -8 -9 -9 -9 -9 -9 -9 -9 -8 -8 -8 -8 -8 -8 -8 -7 -7 -6 -6 -6 -6 -7
-13 -11 -10 -10 -9 -9 -9 -9 -9 -9 -8 -7 -7 -8 -8 -8 -8 -9 -9 -9 -9 -9 -8 -8 -8 -8 -8 -8 -8 -8 -7 -7 -7 -7 -8 -7 -6 -6

GFSNE_850_dewp_063.txt.gz
Dewpoint
-5 -7 -12 -14 -15 -15 -16 -16 -15 -15 -16 -19 -19 -20 -20 -21 -20 -19 -18 -18 -18 -19 -19 -9 -7 -6 -6 -5 -5 -5 -4 -4 -4 -4 -3 -3 -2 -2
-10 -8 -7 -14 -15 -15 -16 -16 -16 -16 -14 -16 -20 -20 -20 -20 -18 -16 -17 -17 -18 -18 -17 -9 -7 -6 -6 -5 -5 -5 -5 -4 -4 -4 -3 -3 -3 -3
-3 -10 -14 -15 -15 -15 -16 -17 -17 -16 -14 -17 -18 -19 -19 -19 -19 -17 -17 -16 -19 -22 -19 -10 -7 -7 -6 -6 -6 -5 -5 -5 -5 -4 -4 -4 -4 -3
-11 -14 -14 -15 -15 -16 -18 -19 -18 -17 -16 -15 -15 -15 -14 -13 -13 -13 -14 -16 -19 -20 -17 -11 -8 -8 -7 -7 -6 -6 -6 -6 -6 -5 -5 -5 -4 -4
-6 -12 -13 -15 -18 -20 -21 -21 -20 -19 -16 -12 -11 -11 -10 -10 -10 -11 -13 -14 -16 -16 -13 -12 -12 -13 -10 -7 -7 -6 -7 -7 -7 -6 -6 -6 -5 -5
-11 -13 -16 -20 -21 -23 -23 -23 -19 -15 -12 -11 -10 -8 -8 -9 -10 -10 -10 -13 -12 -12 -13 -12 -12 -12 -11 -12 -11 -12 -12 -12 -8 -7 -7 -7 -6 -6
-14 -18 -21 -23 -26 -28 -24 -21 -15 -13 -12 -10 -8 -8 -8 -8 -9 -10 -11 -11 -11 -11 -13 -11 -12 -12 -12 -12 -12 -12 -12 -12 -8 -7 -7 -6 -6 -6
-19 -22 -25 -28 -29 -27 -24 -21 -17 -10 -8 -8 -8 -8 -8 -9 -11 -11 -10 -9 -9 -10 -11 -11 -11 -11 -12 -12 -12 -12 -12 -10 -8 -7 -7 -7 -7 -6
-23 -26 -28 -27 -27 -25 -22 -18 -14 -11 -8 -8 -8 -9 -10 -12 -9 -9 -9 -9 -9 -11 -11 -11 -11 -11 -12 -12 -12 -12 -13 -12 -9 -8 -7 -7 -7 -7
-26 -27 -26 -27 -26 -23 -19 -11 -9 -9 -9 -11 -12 -12 -10 -9 -9 -9 -9 -10 -10 -11 -11 -10 -11 -11 -11 -11 -12 -13 -12 -12 -11 -8 -7 -7 -7 -7
-24 -24 -24 -25 -25 -20 -8 -8 -8 -12 -14 -15 -13 -12 -11 -11 -11 -11 -11 -10 -10 -10 -10 -11 -11 -10 -11 -11 -12 -12 -12 -11 -10 -10 -10 -8 -8 -7
-25 -25 -24 -21 -14 -8 -8 -9 -12 -17 -13 -14 -13 -12 -12 -11 -11 -10 -10 -10 -10 -10 -10 -10 -11 -11 -11 -11 -11 -11 -11 -12 -12 -11 -11 -10 -9 -8
-26 -24 -21 -16 -9 -9 -10 -16 -17 -10 -11 -12 -11 -11 -11 -11 -10 -10 -10 -9 -9 -10 -10 -10 -11 -11 -11 -11 -11 -11 -11 -11 -11 -12 -12 -11 -11 -9
-21 -19 -16 -14 -17 -20 -21 -20 -18 -13 -12 -11 -11 -11 -10 -10 -10 -10 -10 -10 -10 -10 -10 -9 -11 -10 -10 -11 -11 -11 -11 -11 -11 -12 -12 -11 -11 -10
-18 -18 -19 -21 -21 -21 -20 -18 -13 -11 -11 -11 -10 -10 -10 -9 -9 -10 -10 -10 -10 -10 -11 -9 -9 -9 -10 -10 -10 -10 -10 -11 -11 -11 -11 -11 -10 -11
-20 -22 -21 -20 -19 -19 -17 -12 -11 -11 -10 -10 -9 -9 -9 -9 -10 -9 -10 -10 -10 -11 -11 -10 -10 -9 -10 -10 -9 -10 -11 -10 -11 -11 -10 -10 -9 -9
-22 -21 -21 -20 -20 -17 -12 -11 -11 -10 -10 -9 -9 -9 -9 -9 -9 -9 -9 -9 -9 -10 -10 -11 -10 -9 -9 -10 -10 -11 -11 -10 -10 -10 -9 -9 -9 -8
-20 -20 -19 -18 -17 -13 -11 -11 -10 -10 -9 -9 -9 -8 -8 -8 -8 -9 -8 -9 -9 -10 -10 -10 -9 -10 -10 -11 -10 -10 -10 -9 -10 -9 -8 -9 -9 -8
-19 -19 -17 -16 -14 -10 -10 -10 -10 -9 -9 -9 -8 -8 -8 -8 -8 -9 -8 -9 -9 -9 -10 -9 -9 -9 -10 -10 -10 -9 -9 -9 -8 -9 -9 -8 -8 -8
-18 -17 -16 -14 -10 -10 -10 -9 -9 -9 -9 -9 -8 -8 -8 -8 -9 -9 -9 -9 -9 -10 -9 -9 -9 -9 -9 -9 -9 -9 -8 -8 -8 -8 -8 -7 -8 -8
-17 -16 -13 -10 -10 -10 -9 -9 -9 -9 -9 -8 -8 -8 -8 -8 -8 -9 -9 -9 -9 -9 -9 -9 -8 -8 -8 -8 -9 -8 -7 -7 -7 -7 -7 -7 -7 -8
-15 -13 -10 -10 -9 -9 -9 -9 -9 -9 -8 -8 -8 -8 -8 -8 -8 -8 -9 -9 -9 -9 -9 -8 -8 -8 -8 -8 -8 -8 -7 -7 -6 -6 -6 -6 -6 -7
-13 -11 -10 -10 -9 -9 -8 -8 -8 -8 -8 -8 -7 -8 -8 -7 -8 -8 -8 -9 -9 -9 -8 -8 -8 -8 -7 -7 -8 -7 -7 -6 -6 -7 -7 -6 -6 -6

GFSNE_850_dewp_066.txt.gz
Dewpoint
4 -0 -8 -6 -11 -5 -2 -13 -15 -16 -16 -17 -18 -19 -19 -21 -22 -21 -20 -21 -19 -17 -18 -20 -10 -7 -6 -6 -5 -5 -4 -4 -4 -3 -3 -3 -3 -2
-2 -5 -8 -4 -7 -7 -8 -13 -15 -16 -16 -17 -19 -21 -22 -23 -23 -20 -19 -16 -15 -16 -19 -20 -9 -7 -6 -5 -5 -5 -5 -5 -4 -4 -3 -3 -3 -3
-10 -10 -5 -5 -11 -14 -14 -15 -16 -17 -17 -19 -21 -23 -23 -21 -22 -20 -17 -15 -16 -19 -22 -21 -8 -7 -6 -6 -6 -5 -5 -5 -5 -4 -4 -4 -4 -3
-4 -4 -5 -6 -9 -12 -14 -17 -19 -19 -19 -21 -20 -20 -19 -20 -19 -15 -14 -14 -17 -21 -21 -13 -8 -10 -8 -7 -6 -6 -6 -6 -6 -5 -5 -5 -4 -4
-9 -8 -4 -2 -4 -11 -19 -21 -22 -23 -22 -17 -14 -17 -16 -13 -11 -12 -14 -16 -18 -16 -14 -13 -13 -13 -12 -7 -7 -7 -7 -7 -6 -6 -6 -6 -6 -5
-0 0 -0 -11 -16 -20 -22 -24 -25 -25 -21 -16 -17 -13 -9 -10 -12 -11 -11 -14 -13 -12 -14 -13 -13 -13 -12 -12 -12 -12 -12 -12 -12 -7 -7 -6 -6 -6
0 -0 -3 -16 -23 -25 -28 -27 -25 -23 -21 -16 -10 -9 -9 -10 -9 -11 -12 -11 -10 -11 -13 -12 -12 -12 -13 -12 -12 -12 -12 -12 -11 -7 -7 -6 -6 -6
-1 -8 -22 -24 -26 -28 -27 -23 -23 -21 -10 -8 -8 -9 -10 -10 -12 -11 -9 -9 -9 -10 -11 -11 -12 -12 -12 -12 -12 -12 -12 -12 -8 -7 -7 -7 -7 -6
-20 -22 -25 -26 -26 -26 -25 -24 -19 -14 -9 -9 -9 -11 -11 -13 -9 -9 -9 -9 -10 -11 -11 -11 -11 -11 -12 -12 -12 -12 -13 -12 -9 -8 -7 -7 -7 -7
-23 -24 -25 -26 -26 -25 -22 -12 -11 -12 -12 -14 -16 -15 -11 -9 -9 -9 -10 -11 -10 -10 -10 -10 -11 -11 -11 -11 -12 -13 -13 -12 -12 -9 -7 -7 -7 -7
-23 -25 -26 -26 -24 -18 -8 -8 -10 -16 -19 -19 -16 -13 -12 -11 -11 -11 -10 -10 -10 -10 -10 -10 -10 -11 -11 -11 -12 -12 -12 -12 -12 -11 -10 -9 -8 -8
-26 -25 -23 -22 -19 -8 -8 -10 -14 -19 -15 -19 -14 -12 -12 -11 -11 -10 -10 -9 -9 -10 -10 -10 -11 -11 -11 -12 -11 -11 -12 -12 -12 -12 -12 -11 -10 -8
-24 -23 -22 -22 -21 -19 -16 -16 -18 -11 -13 -12 -12 -11 -11 -11 -10 -10 -10 -10 -10 -10 -11 -10 -11 -11 -11 -11 -11 -11 -11 -12 -12 -12 -12 -12 -11 -11
-24 -24 -23 -23 -21 -20 -20 -20 -16 -13 -12 -11 -11 -11 -10 -10 -10 -10 -10 -10 -9 -9 -10 -10 -10 -10 -10 -11 -11 -11 -11 -11 -11 -11 -12 -11 -11 -11
-23 -22 -21 -21 -21 -20 -19 -17 -13 -11 -11 -11 -10 -10 -10 -9 -9 -9 -10 -9 -9 -10 -10 -10 -10 -10 -10 -10 -10 -10 -10 -11 -11 -11 -10 -10 -10 -10
-23 -22 -21 -20 -19 -18 -17 -12 -11 -10 -10 -10 -9 -9 -9 -9 -9 -9 -9 -9 -9 -10 -10 -10 -10 -9 -9 -9 -9 -10 -10 -10 -10 -10 -10 -10 -9 -9
-21 -21 -21 -20 -20 -18 -12 -11 -10 -10 -10 -9 -9 -9 -9 -9 -9 -9 -9 -9 -9 -9 -10 -10 -9 -9 -9 -10 -9 -10 -10 -10 -10 -10 -9 -9 -9 -9
-20 -20 -20 -19 -18 -13 -11 -10 -10 -9 -9 -9 -9 -8 -8 -9 -9 -9 -9 -9 -9 -10 -10 -10 -9 -9 -10 -10 -10 -10 -10 -10 -9 -8 -8 -9 -9 -9
-19 -20 -18 -17 -14 -10 -10 -10 -9 -9 -9 -9 -9 -8 -8 -8 -9 -9 -9 -9 -9 -10 -10 -9 -9 -9 -9 -10 -10 -9 -9 -9 -8 -8 -8 -8 -8 -8
-19 -18 -16 -13 -10 -10 -10 -9 -9 -9 -9 -9 -9 -8 -8 -8 -8 -8 -8 -8 -9 -9 -9 -9 -9 -9 -9 -9 -9 -8 -7 -8 -8 -8 -8 -7 -8 -8
-19 -16 -12 -10 -10 -9 -9 -9 -9 -9 -8 -8 -8 -8 -8 -9 -8 -8 -8 -8 -8 -8 -9 -9 -9 -8 -8 -8 -8 -8 -7 -7 -7 -7 -7 -7 -7 -8
-18 -14 -11 -10 -10 -9 -9 -9 -9 -9 -8 -8 -8 -8 -8 -8 -8 -8 -8 -8 -8 -8 -8 -9 -9 -8 -8 -8 -8 -7 -7 -8 -8 -7 -6 -6 -6 -7
-18 -13 -11 -10 -10 -9 -9 -9 -9 -9 -8 -8 -8 -8 -8 -8 -8 -8 -8 -8 -8 -8 -8 -9 -9 -8 -8 -8 -7 -7 -7 -7 -8 -7 -8 -8 -8 -7

GFSNE_850_dewp_069.txt.gz
Dewpoint
8 7 6 3 -4 -0 -5 -2 -5 -3 -13 -15 -16 -16 -17 -19 -21 -21 -21 -22 -24 -22 -21 -21 -21 -11 -7 -6 -5 -5 -4 -4 -4 -3 -3 -3 -2 -2
7 4 -4 -5 -4 -6 -7 -7 -10 -13 -15 -14 -16 -18 -20 -22 -22 -21 -21 -21 -19 -19 -20 -22 -16 -7 -7 -6 -6 -5 -5 -5 -4 -4 -3 -3 -3 -3
2 -4 -5 -5 -7 -5 -7 -8 -6 -2 -2 -11 -19 -21 -24 -24 -23 -24 -23 -20 -19 -21 -24 -24 -20 -10 -7 -7 -6 -6 -5 -5 -5 -5 -4 -4 -3 -3
-3 -6 -6 -5 -2 -2 -0 -1 -4 -13 -18 -20 -23 -24 -25 -24 -23 -21 -19 -19 -20 -24 -24 -18 -14 -14 -12 -7 -7 -6 -6 -6 -6 -5 -5 -5 -4 -4
-6 -4 -1 -0 -1 -0 -3 -3 -6 -19 -20 -21 -20 -21 -22 -22 -17 -18 -19 -23 -24 -21 -15 -14 -13 -13 -13 -13 -7 -7 -7 -7 -7 -6 -6 -6 -5 -5
-1 -2 -1 -0 0 -1 -7 -17 -22 -25 -25 -22 -20 -15 -15 -18 -14 -13 -11 -17 -14 -14 -14 -13 -13 -13 -13 -12 -12 -12 -12 -12 -12 -8 -7 -6 -6 -6
-2 -0 -1 -1 -11 -22 -25 -26 -25 -25 -24 -18 -14 -13 -12 -9 -9 -12 -12 -9 -11 -13 -12 -11 -13 -12 -13 -12 -12 -12 -12 -13 -12 -7 -7 -7 -6 -6
-0 -0 -7 -19 -23 -24 -23 -22 -24 -24 -14 -12 -10 -10 -8 -12 -15 -10 -9 -9 -9 -11 -11 -9 -11 -12 -12 -12 -12 -13 -13 -13 -11 -7 -7 -7 -7 -7
-12 -21 -22 -22 -22 -24 -24 -25 -22 -16 -12 -10 -10 -13 -15 -17 -11 -10 -10 -10 -10 -11 -10 -10 -11 -11 -11 -12 -13 -13 -13 -13 -13 -8 -8 -7 -7 -7
-21 -21 -21 -24 -25 -25 -21 -15 -16 -15 -14 -16 -18 -17 -14 -10 -9 -9 -10 -10 -10 -11 -10 -10 -11 -11 -11 -12 -13 -13 -13 -13 -12 -9 -8 -7 -7 -8
-22 -24 -25 -26 -24 -21 -11 -11 -16 -19 -19 -19 -17 -16 -13 -12 -11 -11 -10 -10 -10 -10 -10 -10 -11 -10 -11 -12 -12 -12 -12 -12 -12 -12 -11 -10 -8 -8
-25 -26 -25 -23 -22 -12 -10 -15 -18 -20 -18 -20 -14 -12 -12 -11 -10 -10 -10 -9 -9 -10 -10 -10 -11 -10 -10 -11 -11 -11 -12 -12 -12 -12 -12 -11 -11 -9
-25 -24 -23 -23 -22 -21 -20 -20 -20 -13 -18 -13 -12 -12 -11 -10 -10 -10 -9 -9 -9 -9 -9 -10 -10 -10 -10 -10 -11 -11 -11 -11 -11 -11 -11 -11 -11 -11
-23 -23 -23 -22 -22 -22 -22 -21 -20 -16 -12 -11 -11 -11 -10 -10 -10 -9 -9 -9 -9 -9 -9 -9 -9 -9 -9 -10 -10 -10 -10 -10 -10 -10 -10 -10 -10 -10
-23 -23 -22 -22 -22 -21 -20 -18 -13 -11 -11 -10 -10 -10 -10 -9 -9 -9 -9 -10 -10 -10 -10 -10 -10 -10 -9 -9 -9 -10 -10 -10 -10 -10 -10 -10 -10 -10
-23 -22 -22 -21 -20 -20 -17 -12 -11 -10 -10 -10 -10 -10 -9 -9 -9 -9 -9 -9 -10 -11 -10 -10 -9 -9 -9 -9 -9 -9 -10 -9 -10 -10 -9 -9 -9 -9
-22 -21 -21 -21 -20 -17 -12 -11 -10 -10 -9 -9 -9 -9 -9 -9 -9 -9 -9 -9 -9 -10 -10 -10 -9 -9 -9 -10 -10 -10 -10 -9 -9 -8 -8 -8 -9 -9
-20 -20 -20 -19 -17 -12 -11 -10 -10 -9 -9 -9 -9 -9 -8 -9 -9 -9 -8 -8 -9 -9 -9 -10 -9 -9 -9 -9 -9 -9 -9 -9 -8 -8 -8 -8 -8 -8
-20 -20 -18 -16 -12 -10 -10 -10 -9 -9 -9 -9 -8 -8 -8 -8 -9 -9 -9 -9 -9 -9 -9 -9 -9 -9 -9 -9 -9 -8 -8 -8 -7 -7 -7 -7 -7 -7
-19 -19 -16 -12 -10 -10 -10 -9 -9 -9 -9 -8 -8 -8 -8 -8 -8 -8 -8 -8 -8 -8 -8 -9 -9 -8 -9 -9 -8 -9 -8 -7 -7 -7 -7 -7 -7 -7
-19 -18 -13 -11 -10 -10 -9 -9 -9 -9 -9 -8 -8 -8 -8 -8 -8 -8 -8 -9 -8 -8 -8 -9 -9 -8 -8 -8 -8 -8 -8 -7 -6 -7 -6 -6 -7 -8
-19 -19 -13 -11 -10 -10 -9 -9 -9 -9 -8 -8 -8 -8 -8 -8 -8 -8 -9 -8 -8 -8 -8 -8 -8 -8 -8 -8 -8 -8 -8 -8 -7 -6 -6 -5 -6 -7
-19 -19 -13 -11 -10 -10 -9 -9 -9 -8 -8 -8 -9 -8 -8 -8 -9 -8 -9 -9 -8 -8 -8 -8 -8 -8 -8 -8 -8 -8 -8 -8 -8 -7 -8 -6 -5 -6

GFSNE_850_dewp_072.txt.gz
Dewpoint
10 10 9 8 7 5 3 0 -9 -7 -3 -3 -6 -7 -14 -16 -16 -16 -22 -23 -25 -28 -28 -27 -26 -26 -25 -11 -6 -5 -5 -5 -4 -4 -3 -3 -2 -2
9 7 7 7 5 4 1 -2 -2 -2 -2 -7 -10 -3 -3 -0 -7 -21 -22 -23 -25 -25 -26 -25 -27 -27 -13 -7 -6 -5 -5 -5 -5 -4 -4 -3 -3 -2
7 5 3 -2 -1 -3 -3 -2 -2 -4 -3 -0 -0 -2 -6 -19 -23 -21 -22 -22 -22 -24 -26 -26 -25 -20 -10 -8 -7 -6 -6 -5 -5 -4 -4 -4 -3 -3
6 5 3 -1 -3 -3 -3 -0 0 -0 -0 -0 -6 -16 -19 -23 -25 -25 -22 -23 -23 -28 -27 -20 -15 -14 -14 -14 -12 -7 -6 -6 -5 -5 -5 -5 -4 -4
3 -1 -3 -4 -3 -1 1 0 -0 -1 -9 -16 -19 -21 -21 -20 -18 -12 -15 -17 -18 -24 -16 -14 -14 -14 -14 -13 -13 -11 -9 -8 -7 -7 -6 -6 -5 -5
-1 -4 -3 -0 0 -0 -1 -4 -14 -20 -17 -19 -19 -11 -8 -8 -7 -8 -9 -10 -10 -13 -12 -12 -13 -13 -13 -13 -13 -13 -13 -13 -13 -12 -9 -7 -7 -6
-1 -1 -0 0 -0 -1 -5 -21 -23 -22 -21 -18 -7 -7 -7 -8 -8 -9 -10 -9 -9 -9 -9 -9 -9 -10 -11 -13 -13 -13 -13 -13 -13 -10 -7 -6 -6 -6
-1 -0 -0 -0 -14 -23 -24 -23 -23 -19 -7 -6 -7 -7 -8 -9 -10 -10 -9 -8 -8 -11 -8 -8 -9 -8 -10 -12 -13 -13 -13 -13 -12 -8 -7 -7 -7 -7
-1 -5 -20 -22 -23 -23 -24 -24 -21 -16 -12 -9 -8 -8 -9 -10 -10 -9 -8 -9 -9 -8 -8 -8 -11 -9 -10 -10 -12 -13 -13 -13 -13 -13 -9 -7 -7 -7
-20 -21 -22 -24 -25 -24 -22 -17 -16 -12 -14 -15 -14 -14 -13 -9 -8 -9 -9 -9 -8 -9 -8 -8 -10 -9 -9 -10 -11 -12 -12 -12 -12 -12 -10 -8 -7 -7
-23 -25 -25 -24 -22 -21 -8 -11 -15 -19 -20 -21 -19 -18 -15 -12 -11 -11 -9 -8 -9 -10 -10 -9 -9 -8 -10 -11 -11 -11 -11 -11 -11 -11 -11 -10 -8 -8
-24 -23 -23 -22 -21 -17 -21 -20 -21 -21 -19 -18 -15 -12 -12 -11 -11 -10 -10 -9 -9 -9 -9 -9 -10 -9 -9 -10 -10 -10 -11 -11 -11 -10 -11 -10 -10 -9
-23 -23 -23 -24 -24 -23 -23 -21 -21 -20 -13 -13 -11 -11 -11 -10 -10 -10 -9 -9 -9 -9 -10 -9 -10 -10 -10 -10 -10 -10 -10 -10 -10 -10 -9 -10 -10 -10
-23 -23 -23 -23 -24 -23 -23 -22 -21 -18 -12 -11 -11 -11 -10 -10 -10 -10 -9 -9 -9 -9 -10 -9 -9 -10 -10 -10 -9 -10 -10 -10 -10 -10 -10 -10 -10 -10
-23 -23 -23 -23 -23 -23 -22 -20 -15 -11 -11 -11 -10 -10 -10 -10 -10 -10 -10 -10 -9 -10 -10 -10 -9 -9 -9 -9 -9 -10 -10 -10 -10 -10 -9 -9 -8 -8
-23 -22 -22 -22 -22 -21 -19 -14 -11 -10 -10 -10 -10 -9 -9 -10 -9 -9 -9 -9 -9 -10 -10 -10 -9 -9 -9 -9 -9 -10 -10 -9 -9 -9 -8 -8 -8 -8
-22 -21 -21 -21 -20 -17 -12 -11 -10 -10 -9 -9 -9 -9 -9 -9 -9 -9 -9 -9 -9 -10 -10 -10 -9 -8 -8 -9 -10 -9 -9 -9 -8 -8 -8 -8 -7 -7
-21 -20 -20 -19 -16 -11 -10 -10 -10 -9 -9 -9 -9 -9 -9 -9 -9 -9 -8 -9 -9 -9 -9 -10 -9 -9 -8 -8 -8 -8 -8 -8 -8 -8 -7 -7 -7 -7
-20 -20 -19 -16 -11 -10 -10 -10 -9 -9 -9 -9 -9 -8 -8 -8 -8 -9 -9 -9 -9 -9 -9 -9 -9 -9 -9 -8 -8 -8 -8 -8 -7 -7 -7 -7 -7 -8
-20 -20 -18 -13 -11 -10 -10 -9 -9 -9 -9 -9 -9 -8 -8 -8 -8 -8 -9 -9 -9 -9 -9 -8 -8 -8 -8 -8 -8 -9 -8 -8 -8 -7 -7 -7 -6 -7
-19 -20 -19 -13 -11 -10 -10 -9 -9 -9 -8 -8 -8 -8 -8 -8 -8 -9 -9 -9 -9 -8 -9 -8 -9 -8 -8 -8 -8 -8 -9 -8 -7 -7 -7 -7 -7 -7
-19 -19 -20 -14 -11 -11 -10 -10 -9 -9 -8 -8 -8 -8 -8 -8 -9 -8 -9 -8 -9 -9 -9 -8 -8 -8 -8 -8 -8 -8 -9 -9 -8 -8 -8 -7 -6 -7
-19 -19 -20 -17 -12 -11 -11 -10 -9 -9 -8 -8 -8 -9 -8 -8 -8 -8 -9 -9 -8 -9 -8 -8 -8 -8 -7 -7 -8 -8 -8 -9 -9 -8 -8 -7 -6 -6

GFSNE_850_dewp_075.txt.gz
Dewpoint
9 9 9 9 8 7 6 3 4 3 3 2 -0 -3 -3 -1 -4 -4 -4 -3 -0 -9 -26 -28 -28 -29 -30 -29 -22 -16 -6 -4 -4 -4 -3 -3 -2 -2
9 9 9 8 6 6 5 3 3 1 -0 -0 1 -0 -3 -3 0 0 1 -4 -21 -25 -27 -26 -26 -27 -27 -24 -12 -5 -5 -4 -4 -4 -3 -3 -3 -2
8 8 8 8 4 4 4 3 3 2 1 -0 -1 -1 -0 -0 -0 -7 -19 -20 -22 -24 -25 -24 -27 -25 -20 -12 -8 -6 -5 -5 -5 -4 -4 -4 -3 -3
7 7 6 5 4 3 1 1 -0 -0 -0 -0 -0 -0 -2 -16 -23 -23 -23 -23 -18 -23 -21 -25 -24 -15 -14 -14 -9 -8 -7 -6 -5 -5 -5 -5 -4 -4
4 4 4 2 1 -1 -1 -1 0 0 -0 -1 -11 -19 -21 -22 -20 -15 -12 -15 -15 -19 -18 -14 -13 -12 -13 -12 -13 -13 -12 -12 -9 -7 -7 -6 -6 -5
1 -1 -3 -3 -2 -0 0 -0 -1 -2 -9 -20 -21 -20 -17 -12 -8 -8 -8 -9 -15 -18 -14 -12 -10 -10 -10 -10 -13 -13 -13 -13 -12 -11 -8 -7 -6 -6
-4 -4 -2 -1 0 -0 -1 -3 -14 -22 -22 -21 -17 -8 -7 -9 -8 -8 -9 -11 -13 -12 -10 -11 -8 -11 -12 -13 -13 -13 -12 -9 -7 -7 -6 -6 -6 -6
-1 -1 -0 -1 -1 -5 -23 -24 -25 -25 -24 -11 -8 -11 -7 -7 -8 -10 -10 -12 -8 -11 -10 -11 -11 -12 -12 -13 -12 -12 -12 -11 -10 -7 -7 -7 -6 -6
-1 -1 -2 -14 -19 -23 -25 -26 -25 -22 -16 -12 -9 -8 -9 -10 -10 -13 -10 -8 -9 -11 -9 -9 -11 -10 -11 -11 -11 -11 -11 -10 -12 -12 -10 -7 -7 -7
-12 -20 -22 -24 -25 -25 -24 -20 -15 -14 -11 -11 -12 -17 -19 -15 -11 -10 -9 -10 -10 -11 -8 -8 -11 -10 -11 -11 -11 -11 -12 -11 -11 -11 -11 -8 -7 -7
-23 -25 -25 -24 -23 -24 -24 -18 -16 -13 -14 -18 -20 -19 -17 -13 -12 -11 -11 -10 -8 -10 -10 -9 -10 -9 -11 -12 -12 -11 -11 -11 -10 -10 -10 -8 -7 -7
-24 -23 -23 -25 -26 -25 -24 -23 -23 -20 -20 -15 -12 -12 -11 -11 -11 -10 -10 -9 -8 -9 -9 -9 -10 -10 -9 -11 -11 -11 -11 -10 -10 -10 -10 -8 -8 -7
-23 -22 -24 -26 -25 -25 -24 -23 -23 -22 -20 -14 -12 -11 -11 -10 -9 -9 -9 -9 -9 -9 -10 -9 -9 -9 -9 -9 -11 -11 -10 -10 -10 -10 -10 -10 -10 -9
-26 -26 -25 -24 -24 -23 -23 -22 -21 -20 -15 -11 -11 -11 -10 -10 -10 -10 -10 -9 -9 -9 -10 -9 -9 -9 -9 -9 -10 -10 -10 -10 -10 -10 -9 -9 -9 -9
-25 -23 -23 -23 -23 -23 -22 -21 -18 -13 -11 -11 -10 -10 -10 -10 -10 -10 -9 -9 -9 -9 -10 -10 -9 -9 -9 -9 -9 -9 -9 -10 -10 -9 -8 -8 -7 -7
-22 -22 -22 -22 -22 -22 -20 -16 -12 -11 -10 -10 -10 -9 -9 -9 -10 -9 -9 -9 -9 -10 -10 -10 -9 -9 -9 -9 -9 -9 -9 -9 -9 -9 -8 -8 -7 -7
-22 -22 -21 -20 -19 -17 -15 -11 -11 -10 -10 -9 -9 -9 -9 -9 -9 -9 -9 -9 -9 -9 -10 -10 -9 -9 -9 -9 -9 -9 -9 -9 -9 -9 -8 -8 -7 -7
-21 -21 -20 -20 -18 -14 -11 -10 -10 -10 -9 -9 -9 -9 -9 -9 -9 -9 -9 -9 -9 -9 -9 -9 -9 -9 -9 -9 -9 -9 -8 -8 -8 -8 -8 -8 -7 -8
-21 -20 -21 -20 -15 -11 -11 -10 -10 -9 -9 -9 -9 -9 -9 -9 -8 -9 -9 -9 -9 -10 -9 -9 -9 -9 -8 -8 -9 -8 -8 -9 -8 -8 -8 -7 -7 -8
-20 -20 -21 -20 -14 -11 -10 -10 -10 -9 -9 -9 -8 -8 -8 -8 -8 -9 -9 -9 -9 -9 -9 -9 -9 -9 -8 -8 -8 -9 -9 -8 -8 -8 -8 -8 -8 -8
-20 -20 -20 -21 -16 -11 -11 -10 -10 -10 -9 -9 -8 -8 -8 -8 -8 -9 -9 -9 -10 -10 -9 -9 -10 -9 -8 -8 -8 -8 -8 -8 -7 -7 -8 -8 -8 -8
-19 -20 -20 -20 -20 -13 -11 -11 -11 -10 -10 -9 -8 -8 -8 -8 -8 -9 -9 -9 -9 -9 -9 -9 -9 -9 -8 -8 -7 -7 -8 -9 -8 -8 -7 -7 -7 -7
-20 -20 -20 -20 -20 -17 -13 -11 -11 -11 -10 -9 -8 -9 -9 -9 -9 -9 -9 -9 -9 -9 -9 -9 -9 -8 -8 -7 -7 -8 -8 -8 -8 -8 -8 -7 -7 -7

GFSNE_850_dewp_078.txt.gz
Dewpoint
10 10 9 9 9 8 8 8 5 4 3 3 4 4 3 3 3 1 -1 -3 -4 -3 0 -1 -17 -27 -26 -29 -30 -30 -27 -9 -4 -3 -3 -3 -2 -2
9 9 9 9 8 8 7 6 4 4 4 3 4 4 3 2 0 -2 -3 -0 1 -1 -18 -26 -26 -23 -20 -28 -29 -19 -7 -5 -4 -4 -3 -3 -2 -2
8 8 8 7 7 6 5 4 4 3 3 2 2 1 -0 -1 -1 -1 -0 -5 -18 -24 -25 -24 -25 -24 -24 -18 -12 -9 -6 -5 -4 -4 -4 -3 -3 -3
7 6 6 5 5 4 3 2 2 1 0 0 0 0 0 -0 -5 -15 -22 -23 -21 -21 -19 -21 -18 -13 -11 -10 -8 -8 -7 -6 -5 -5 -5 -4 -4 -4
5 4 3 3 2 1 0 0 -0 1 0 0 -1 -4 -13 -21 -21 -18 -17 -16 -15 -18 -20 -21 -19 -14 -14 -10 -10 -9 -7 -6 -5 -5 -5 -6 -5 -5
4 3 2 -0 -2 -2 -0 -0 -0 -1 -2 -7 -17 -23 -20 -13 -12 -13 -10 -10 -16 -20 -21 -17 -13 -13 -13 -12 -13 -13 -13 -11 -7 -6 -6 -6 -5 -5
-0 -1 -2 -1 -1 -1 -1 -1 -4 -17 -22 -25 -22 -13 -10 -11 -8 -8 -9 -13 -23 -20 -13 -13 -12 -12 -13 -13 -13 -12 -11 -7 -6 -6 -6 -6 -5 -5
-1 -1 -1 -1 -1 -2 -13 -17 -21 -23 -24 -22 -20 -14 -13 -9 -9 -11 -15 -18 -14 -12 -11 -13 -12 -12 -12 -12 -11 -11 -10 -8 -6 -6 -6 -6 -6 -6
-0 -1 -1 -2 -6 -13 -22 -24 -21 -19 -18 -18 -17 -15 -16 -16 -18 -20 -19 -14 -12 -12 -10 -12 -12 -11 -11 -11 -11 -12 -11 -10 -10 -9 -7 -6 -6 -6
-10 -19 -21 -23 -24 -25 -23 -21 -19 -18 -16 -17 -18 -20 -20 -21 -19 -16 -12 -12 -12 -11 -10 -10 -11 -10 -11 -11 -11 -12 -11 -11 -10 -8 -7 -7 -6 -6
-23 -24 -24 -24 -25 -27 -28 -26 -23 -20 -19 -19 -21 -19 -18 -14 -11 -11 -11 -10 -11 -11 -10 -10 -10 -9 -11 -11 -11 -11 -11 -11 -10 -10 -10 -9 -7 -7
-25 -24 -25 -26 -28 -27 -26 -25 -25 -23 -23 -22 -20 -15 -12 -12 -11 -10 -10 -9 -9 -9 -9 -9 -9 -9 -9 -11 -11 -11 -11 -11 -10 -10 -10 -10 -8 -8
-26 -26 -27 -26 -25 -25 -25 -24 -24 -23 -23 -21 -14 -12 -11 -11 -10 -10 -9 -9 -9 -9 -9 -9 -9 -9 -9 -9 -11 -11 -11 -11 -10 -10 -10 -9 -9 -8
-27 -25 -23 -23 -24 -23 -24 -23 -23 -22 -17 -12 -11 -11 -10 -10 -10 -10 -10 -10 -9 -9 -9 -9 -9 -9 -9 -9 -9 -10 -10 -11 -10 -10 -10 -9 -9 -9
-25 -24 -24 -23 -23 -23 -23 -22 -20 -15 -12 -11 -10 -10 -10 -9 -10 -10 -10 -9 -9 -9 -10 -10 -9 -9 -10 -10 -10 -9 -9 -10 -10 -10 -10 -9 -9 -8
-25 -24 -23 -22 -22 -22 -21 -18 -13 -11 -11 -10 -10 -10 -9 -9 -9 -9 -9 -9 -9 -10 -10 -9 -9 -10 -9 -9 -9 -9 -10 -9 -10 -10 -9 -9 -9 -9
-23 -22 -22 -21 -22 -20 -18 -13 -11 -11 -10 -10 -9 -9 -9 -9 -9 -9 -9 -9 -9 -9 -10 -9 -9 -9 -9 -9 -9 -9 -9 -9 -9 -9 -8 -8 -9 -9
-23 -22 -21 -22 -21 -18 -13 -11 -11 -10 -10 -9 -9 -9 -9 -9 -9 -9 -9 -9 -9 -9 -10 -9 -10 -9 -9 -10 -10 -9 -8 -8 -9 -8 -8 -8 -9 -9
-22 -21 -21 -22 -21 -17 -12 -11 -10 -10 -9 -9 -9 -9 -8 -8 -8 -9 -9 -9 -9 -10 -10 -10 -10 -9 -9 -9 -10 -9 -8 -9 -8 -8 -8 -8 -8 -9
-22 -21 -21 -21 -21 -18 -12 -11 -10 -10 -10 -9 -9 -9 -8 -8 -9 -9 -9 -10 -10 -10 -9 -10 -10 -10 -9 -9 -8 -10 -9 -8 -7 -8 -8 -8 -8 -8
-21 -21 -20 -21 -21 -21 -15 -12 -11 -11 -10 -10 -10 -9 -9 -8 -9 -9 -9 -10 -10 -9 -9 -10 -10 -10 -9 -9 -8 -8 -9 -8 -8 -8 -8 -7 -7 -8
-21 -21 -20 -20 -20 -21 -20 -15 -12 -11 -11 -11 -10 -9 -9 -9 -9 -9 -9 -9 -9 -9 -9 -10 -10 -9 -9 -9 -8 -8 -8 -9 -10 -10 -9 -8 -7 -7
-22 -21 -21 -21 -20 -20 -21 -19 -15 -13 -12 -11 -9 -9 -9 -9 -9 -9 -9 -9 -9 -9 -10 -10 -9 -9 -9 -8 -8 -8 -8 -8 -9 -10 -11 -9 -7 -7

GFSNE_850_dewp_081.txt.gz
Dewpoint
9 9 10 10 10 10 9 8 7 6 5 4 3 3 4 4 4 3 2 1 0 -1 -3 -3 -1 -3 -14 -16 -23 -20 -17 -14 -5 -3 -3 -2 -2 -2
8 8 10 9 9 9 8 7 6 5 4 4 4 4 4 3 2 1 1 -0 -1 -2 -2 -5 -17 -19 -20 -23 -19 -19 -10 -4 -4 -3 -3 -2 -2 -2
8 9 9 8 8 8 7 5 5 4 3 3 3 3 2 1 -1 -1 -0 -1 -1 -8 -19 -22 -18 -17 -18 -14 -11 -6 -5 -5 -4 -4 -4 -3 -3 -3
6 6 6 6 6 6 5 4 3 3 2 2 1 -0 -0 -0 -0 -3 -9 -18 -20 -17 -17 -16 -16 -19 -16 -11 -7 -6 -5 -4 -4 -4 -4 -4 -4 -4
5 5 5 5 4 3 2 2 0 1 1 1 -0 -1 -3 -10 -18 -19 -15 -15 -16 -15 -16 -18 -21 -22 -15 -10 -6 -6 -7 -6 -6 -6 -6 -6 -5 -5
4 4 3 2 1 1 -0 0 0 -0 -1 -2 -6 -17 -17 -18 -16 -16 -17 -15 -15 -14 -21 -20 -15 -13 -12 -12 -12 -12 -12 -12 -12 -8 -6 -5 -5 -5
3 2 -0 -1 -0 0 0 -0 -1 -3 -14 -13 -23 -22 -17 -15 -14 -12 -14 -17 -21 -21 -13 -13 -12 -12 -12 -12 -12 -12 -12 -9 -6 -6 -6 -5 -5 -5
-1 -1 -0 -0 -0 -1 -0 -2 -5 -11 -23 -24 -22 -20 -14 -14 -13 -13 -17 -23 -18 -12 -12 -13 -12 -12 -12 -12 -12 -11 -11 -11 -7 -6 -6 -6 -6 -6
-0 -0 -1 -1 -6 -17 -22 -24 -22 -19 -17 -16 -14 -13 -15 -15 -19 -22 -21 -15 -12 -12 -12 -13 -12 -12 -11 -11 -11 -11 -12 -11 -11 -8 -6 -6 -6 -6
-10 -17 -19 -22 -23 -24 -23 -21 -19 -17 -15 -14 -16 -19 -21 -20 -20 -16 -12 -12 -11 -11 -10 -11 -10 -12 -12 -12 -11 -11 -11 -11 -11 -11 -10 -10 -8 -7
-24 -24 -25 -24 -25 -27 -26 -25 -23 -21 -20 -20 -20 -21 -18 -14 -9 -10 -11 -11 -11 -11 -10 -9 -9 -11 -12 -12 -12 -12 -11 -11 -11 -10 -10 -10 -10 -8
-24 -25 -26 -26 -26 -25 -26 -26 -25 -25 -24 -23 -22 -17 -12 -12 -11 -11 -11 -10 -10 -10 -9 -9 -9 -9 -9 -11 -11 -11 -11 -11 -10 -11 -10 -10 -10 -10
-28 -28 -26 -25 -25 -25 -25 -24 -24 -23 -22 -21 -16 -12 -11 -11 -11 -10 -10 -10 -10 -9 -9 -9 -9 -9 -10 -10 -11 -11 -10 -11 -11 -11 -10 -10 -10 -9
-28 -26 -25 -24 -24 -24 -23 -23 -22 -22 -20 -13 -11 -11 -11 -10 -10 -10 -10 -10 -10 -9 -9 -9 -9 -10 -10 -10 -10 -11 -11 -10 -10 -11 -10 -10 -9 -9
-26 -25 -24 -23 -22 -22 -22 -22 -21 -18 -13 -11 -11 -10 -10 -10 -10 -10 -10 -10 -10 -10 -9 -10 -9 -10 -10 -10 -10 -10 -11 -12 -11 -10 -10 -10 -9 -9
-26 -24 -23 -23 -22 -24 -22 -20 -17 -12 -11 -11 -10 -10 -10 -9 -9 -9 -10 -10 -10 -10 -10 -10 -10 -10 -10 -10 -9 -10 -10 -10 -11 -10 -9 -9 -9 -9
-24 -23 -22 -22 -23 -22 -19 -17 -12 -11 -11 -10 -10 -9 -9 -9 -9 -9 -9 -9 -9 -9 -10 -10 -10 -10 -10 -10 -10 -10 -11 -10 -10 -9 -8 -8 -8 -9
-23 -22 -22 -22 -22 -22 -18 -13 -11 -11 -10 -10 -9 -9 -9 -9 -9 -9 -9 -9 -9 -9 -9 -10 -10 -10 -10 -11 -10 -10 -9 -9 -9 -9 -9 -8 -9 -9
-23 -22 -22 -22 -22 -22 -19 -12 -11 -10 -10 -10 -9 -9 -9 -9 -9 -9 -9 -9 -9 -9 -9 -10 -10 -10 -9 -9 -11 -10 -9 -10 -9 -9 -9 -8 -8 -9
-23 -23 -22 -21 -21 -22 -22 -16 -12 -11 -10 -10 -10 -10 -9 -9 -9 -9 -9 -9 -9 -9 -9 -9 -10 -10 -9 -9 -9 -11 -10 -10 -9 -8 -8 -8 -9 -9
-23 -23 -22 -22 -21 -21 -21 -21 -16 -12 -11 -11 -11 -11 -10 -9 -9 -9 -9 -9 -9 -9 -9 -10 -10 -10 -9 -9 -9 -9 -10 -9 -8 -8 -9 -8 -9 -9
-23 -23 -23 -22 -22 -21 -21 -21 -21 -17 -13 -12 -12 -11 -10 -9 -9 -9 -9 -9 -9 -9 -9 -10 -10 -10 -9 -8 -9 -9 -9 -9 -10 -10 -10 -9 -8 -8
-23 -24 -24 -23 -22 -22 -21 -20 -20 -21 -18 -15 -13 -12 -10 -9 -9 -9 -9 -9 -9 -9 -9 -10 -10 -10 -9 -8 -9 -9 -9 -8 -9 -9 -9 -10 -10 -9

GFSNE_850_dewp_084.txt.gz
Dewpoint
8 8 8 8 10 9 9 9 8 7 7 7 6 5 4 3 2 1 3 1 1 0 -0 -0 -1 -1 -2 -3 -6 -8 -4 -4 -4 -3 -3 -2 -2 -1
8 7 7 8 7 7 8 8 7 7 5 5 5 4 3 3 3 3 2 1 0 -0 -1 -1 -3 -5 -11 -15 -11 -8 -5 -4 -4 -3 -3 -2 -2 -2
7 7 6 8 8 7 7 6 6 6 5 5 4 3 3 2 1 1 0 -1 -1 -1 -7 -15 -16 -17 -12 -7 -6 -5 -5 -4 -4 -4 -3 -3 -3 -3
6 6 6 6 6 5 5 5 5 4 3 3 2 1 1 1 1 0 -1 -7 -14 -15 -14 -14 -12 -13 -19 -21 -17 -7 -5 -4 -4 -4 -4 -4 -4 -3
5 4 4 4 4 4 4 4 3 2 1 1 1 1 0 -1 -3 -11 -13 -13 -13 -14 -12 -14 -19 -24 -24 -18 -14 -12 -8 -10 -12 -12 -10 -6 -5 -5
4 4 3 3 3 3 2 1 1 1 1 0 -1 -8 -5 -4 -8 -13 -14 -13 -13 -15 -19 -25 -18 -15 -14 -13 -13 -12 -12 -12 -12 -12 -9 -6 -5 -4
3 3 2 2 1 0 0 0 -0 -0 -1 -3 -5 -10 -17 -14 -14 -15 -15 -16 -19 -25 -20 -15 -13 -12 -12 -12 -12 -12 -12 -12 -11 -9 -7 -6 -5 -5
0 -0 -0 -0 0 -0 -0 -0 -3 -10 -18 -23 -24 -22 -19 -17 -17 -17 -19 -24 -24 -15 -14 -13 -13 -13 -13 -12 -11 -11 -11 -11 -11 -10 -8 -6 -5 -5
-0 -0 -1 -1 -2 -7 -18 -25 -25 -24 -22 -21 -19 -17 -18 -19 -19 -21 -22 -20 -13 -12 -12 -13 -12 -12 -11 -11 -12 -12 -11 -11 -11 -10 -8 -7 -7 -6
-8 -13 -15 -18 -22 -25 -25 -24 -23 -21 -19 -19 -19 -19 -21 -21 -20 -18 -13 -12 -12 -11 -11 -12 -11 -12 -12 -12 -12 -11 -11 -11 -11 -11 -11 -11 -10 -9
-24 -25 -25 -25 -26 -29 -29 -28 -27 -25 -22 -21 -20 -20 -20 -19 -11 -11 -12 -11 -11 -11 -11 -10 -11 -13 -13 -12 -12 -12 -11 -11 -11 -10 -10 -11 -11 -11
-26 -26 -28 -29 -28 -27 -27 -26 -25 -25 -24 -23 -23 -22 -19 -14 -12 -12 -11 -11 -10 -10 -10 -9 -10 -10 -12 -13 -12 -11 -11 -11 -11 -11 -11 -11 -10 -10
-30 -29 -28 -27 -25 -24 -24 -24 -23 -23 -23 -23 -22 -18 -13 -12 -11 -11 -11 -10 -10 -11 -10 -9 -10 -10 -10 -11 -13 -12 -11 -12 -13 -12 -11 -10 -10 -10
-30 -28 -27 -26 -24 -24 -23 -23 -23 -23 -22 -20 -15 -12 -11 -11 -11 -10 -10 -10 -10 -10 -10 -9 -9 -11 -11 -11 -11 -12 -11 -11 -13 -13 -11 -11 -10 -9
-28 -27 -26 -24 -23 -23 -23 -23 -23 -21 -19 -13 -11 -11 -11 -10 -10 -10 -10 -10 -10 -10 -9 -9 -10 -10 -10 -10 -10 -11 -11 -11 -13 -12 -11 -10 -10 -10
-26 -25 -24 -23 -23 -23 -23 -21 -20 -17 -13 -11 -11 -10 -10 -10 -9 -9 -9 -10 -10 -10 -9 -9 -10 -10 -10 -10 -10 -11 -11 -10 -12 -11 -10 -10 -10 -9
-25 -24 -23 -23 -23 -23 -22 -20 -17 -13 -11 -11 -11 -10 -10 -9 -9 -9 -9 -9 -9 -9 -9 -9 -9 -10 -10 -10 -11 -11 -10 -11 -11 -11 -10 -10 -11 -11
-24 -23 -24 -23 -23 -23 -23 -19 -16 -12 -11 -11 -10 -10 -9 -9 -9 -9 -9 -9 -9 -9 -9 -9 -9 -10 -11 -12 -12 -11 -10 -10 -10 -10 -9 -9 -10 -11
-24 -24 -24 -23 -23 -22 -23 -22 -16 -12 -11 -10 -10 -10 -10 -10 -9 -9 -9 -9 -9 -9 -9 -9 -9 -9 -9 -10 -11 -10 -9 -10 -10 -10 -9 -9 -8 -11
-24 -24 -24 -24 -23 -22 -22 -22 -22 -15 -12 -11 -10 -10 -10 -11 -10 -10 -9 -9 -9 -9 -9 -9 -9 -9 -9 -10 -9 -12 -10 -9 -9 -8 -9 -9 -10 -10
-23 -24 -25 -24 -24 -22 -22 -21 -21 -22 -19 -14 -12 -11 -11 -11 -11 -10 -9 -9 -9 -9 -9 -9 -9 -9 -10 -9 -9 -11 -11 -10 -9 -9 -9 -9 -9 -8
-23 -23 -24 -25 -24 -24 -23 -22 -21 -21 -21 -21 -17 -14 -13 -12 -12 -10 -9 -9 -9 -9 -9 -10 -10 -10 -10 -10 -10 -10 -10 -11 -10 -10 -10 -9 -8 -8
-24 -23 -23 -25 -25 -25 -24 -23 -22 -22 -21 -21 -21 -19 -16 -14 -12 -10 -9 -9 -9 -9 -10 -9 -10 -10 -10 -10 -9 -9 -9 -9 -9 -10 -11 -10 -10 -9

GFSNE_850_dewp_090.txt.gz
Dewpoint
8 8 8 7 6 7 8 8 8 8 8 7 7 6 5 6 6 5 4 3 3 1 0 1 1 1 0 -0 -0 -0 -1 -2 -2 -3 -3 -2 -2 -1
6 7 7 6 5 6 6 6 7 7 7 6 6 5 5 5 4 4 4 3 2 1 1 1 1 0 -0 -1 -1 -3 -10 -10 -4 -4 -3 -2 -2 -2
7 6 6 6 6 6 6 5 6 6 6 5 5 4 3 4 3 3 3 2 2 1 1 0 -0 -2 -9 -16 -18 -18 -18 -18 -12 -4 -4 -3 -2 -3
7 7 6 5 5 5 4 4 3 3 3 3 3 3 3 3 2 2 1 1 1 0 -1 -7 -8 -11 -16 -18 -18 -22 -25 -23 -17 -11 -10 -10 -9 -5
6 5 4 4 4 4 3 3 3 2 2 2 3 2 2 1 1 0 -0 -1 -2 -4 -9 -16 -18 -18 -20 -24 -27 -21 -18 -16 -15 -14 -14 -14 -14 -11
4 4 4 3 3 3 2 2 2 2 2 1 1 1 1 0 -3 -4 -3 -6 -13 -19 -20 -22 -24 -27 -27 -20 -16 -14 -14 -14 -14 -14 -14 -13 -10 -6
3 3 3 3 2 2 2 2 1 1 1 0 0 -1 -3 -4 -9 -16 -19 -21 -21 -24 -28 -28 -23 -18 -16 -14 -13 -13 -13 -13 -12 -12 -12 -10 -7 -5
2 3 2 2 1 1 1 0 -0 -1 -3 -9 -13 -19 -23 -23 -22 -21 -21 -24 -26 -28 -26 -17 -14 -13 -13 -13 -12 -12 -12 -12 -12 -13 -12 -11 -10 -9
2 1 0 0 -0 -1 -3 -8 -17 -24 -25 -25 -24 -22 -22 -22 -22 -23 -25 -26 -27 -21 -16 -14 -13 -13 -12 -12 -13 -13 -13 -13 -12 -12 -12 -12 -12 -12
-0 -0 -2 -8 -16 -23 -25 -26 -27 -28 -28 -26 -26 -24 -24 -24 -23 -24 -23 -22 -17 -13 -12 -12 -13 -13 -12 -13 -15 -14 -13 -12 -12 -11 -11 -11 -11 -11
-12 -20 -25 -27 -28 -31 -31 -30 -29 -28 -27 -26 -26 -25 -24 -23 -25 -23 -18 -13 -13 -12 -12 -11 -13 -13 -14 -14 -14 -13 -13 -13 -13 -11 -11 -12 -13 -13
-26 -27 -30 -32 -32 -30 -29 -27 -27 -26 -25 -25 -24 -23 -23 -22 -21 -17 -13 -12 -12 -12 -11 -11 -12 -12 -13 -13 -13 -11 -12 -13 -13 -13 -11 -11 -12 -14
-31 -31 -30 -30 -28 -27 -27 -26 -25 -25 -24 -24 -24 -23 -23 -20 -16 -13 -12 -12 -11 -11 -11 -11 -11 -11 -11 -11 -13 -12 -12 -11 -11 -13 -12 -12 -12 -12
-31 -30 -29 -28 -27 -26 -26 -26 -25 -25 -25 -24 -23 -22 -18 -14 -12 -12 -11 -11 -11 -11 -10 -10 -10 -10 -10 -10 -11 -11 -10 -10 -11 -13 -12 -11 -11 -11
-31 -29 -28 -27 -27 -26 -25 -25 -26 -25 -24 -23 -21 -18 -13 -12 -12 -11 -11 -11 -10 -10 -10 -10 -10 -9 -9 -9 -9 -10 -10 -10 -11 -12 -12 -11 -11 -11
-29 -28 -26 -26 -27 -26 -25 -25 -25 -24 -23 -21 -20 -16 -13 -12 -11 -11 -10 -10 -10 -9 -9 -9 -9 -9 -9 -9 -9 -9 -9 -10 -10 -13 -12 -11 -12 -11
-29 -27 -26 -26 -26 -27 -26 -25 -24 -23 -22 -20 -19 -15 -12 -12 -11 -10 -10 -10 -10 -10 -9 -9 -9 -9 -9 -9 -9 -9 -9 -10 -11 -12 -11 -11 -12 -12
-29 -27 -26 -25 -27 -28 -27 -26 -25 -24 -24 -22 -19 -15 -12 -11 -10 -10 -10 -10 -10 -10 -10 -9 -9 -9 -9 -9 -9 -10 -10 -10 -11 -12 -11 -11 -12 -12
-29 -27 -26 -25 -26 -27 -28 -27 -26 -24 -24 -24 -24 -19 -13 -11 -11 -10 -10 -10 -11 -11 -10 -10 -9 -9 -9 -9 -10 -10 -10 -10 -11 -11 -11 -11 -10 -12
-30 -28 -27 -26 -25 -25 -26 -27 -27 -26 -25 -23 -23 -23 -22 -19 -14 -12 -11 -11 -12 -12 -12 -11 -10 -9 -9 -10 -10 -10 -10 -10 -10 -11 -11 -11 -11 -11
-31 -30 -27 -27 -26 -24 -24 -25 -26 -27 -26 -25 -23 -22 -22 -21 -21 -21 -19 -17 -16 -15 -14 -13 -11 -9 -10 -10 -10 -10 -10 -10 -10 -10 -11 -10 -10 -11
-31 -31 -29 -27 -26 -26 -24 -23 -24 -25 -25 -25 -24 -23 -22 -21 -20 -20 -20 -20 -20 -19 -17 -14 -11 -10 -10 -10 -10 -10 -10 -11 -11 -11 -11 -10 -10 -9
-25 -29 -30 -29 -27 -26 -26 -24 -23 -22 -22 -23 -23 -23 -22 -22 -21 -20 -20 -19 -19 -19 -17 -14 -11 -10 -10 -10 -10 -10 -11 -11 -11 -11 -11 -11 -11 -10

GFSNE_850_dewp_093.txt.gz
Dewpoint
9 9 8 8 8 7 7 7 7 8 8 7 7 5 5 6 5 6 5 4 3 4 3 1 1 2 2 1 1 1 0 -0 -0 -2 -4 -2 -2 -1
10 10 8 7 7 6 5 6 6 7 7 6 6 5 5 5 5 4 3 3 3 3 2 2 2 2 1 0 -0 -0 -2 -8 -18 -13 -5 -3 -2 -2
10 9 8 7 6 6 5 5 5 5 6 5 5 5 4 3 3 3 3 3 3 2 2 2 1 0 -1 -4 -8 -12 -20 -24 -27 -29 -18 -5 -3 -3
7 8 8 7 6 6 4 4 4 4 4 3 2 3 2 3 3 2 2 2 2 1 1 0 -2 -7 -7 -17 -21 -22 -27 -27 -21 -19 -15 -12 -9 -5
7 8 7 6 5 4 4 4 3 2 2 2 2 2 3 2 1 1 1 1 0 -1 -2 -6 -14 -20 -21 -23 -26 -27 -20 -17 -15 -14 -14 -14 -14 -13
6 6 5 4 4 3 3 3 2 2 2 2 2 2 1 1 1 -1 -3 -3 -6 -15 -20 -21 -23 -27 -29 -26 -21 -16 -14 -14 -14 -14 -14 -14 -13 -9
4 4 4 3 3 3 2 2 2 2 1 1 1 0 -1 -2 -4 -6 -15 -20 -21 -22 -25 -28 -28 -24 -19 -16 -14 -14 -14 -14 -13 -13 -13 -13 -12 -9
3 3 3 3 2 2 2 1 1 0 -1 -3 -9 -13 -17 -23 -23 -22 -21 -22 -24 -27 -27 -23 -17 -14 -13 -14 -14 -14 -13 -13 -13 -13 -14 -13 -13 -12
2 2 2 1 1 1 -0 -1 -6 -16 -24 -26 -26 -25 -23 -23 -23 -23 -24 -26 -26 -25 -22 -14 -13 -13 -14 -13 -13 -14 -15 -14 -14 -14 -13 -13 -12 -12
1 1 0 -0 -3 -12 -23 -26 -27 -29 -30 -29 -29 -27 -25 -25 -25 -25 -25 -24 -22 -16 -14 -13 -13 -13 -13 -13 -15 -15 -14 -14 -14 -13 -14 -13 -12 -12
-0 -3 -13 -23 -26 -28 -31 -31 -31 -30 -29 -29 -28 -27 -26 -26 -26 -25 -23 -19 -14 -13 -13 -12 -13 -13 -13 -14 -14 -14 -12 -13 -13 -14 -14 -15 -14 -13
-22 -25 -27 -30 -31 -31 -30 -29 -29 -28 -27 -27 -26 -24 -23 -24 -23 -23 -19 -14 -13 -12 -12 -12 -12 -12 -13 -13 -13 -14 -12 -11 -12 -11 -11 -13 -15 -13
-27 -29 -30 -30 -30 -29 -28 -28 -28 -27 -27 -26 -25 -24 -24 -23 -21 -18 -14 -13 -12 -12 -11 -11 -11 -11 -12 -12 -13 -12 -11 -10 -10 -10 -11 -13 -13 -12
-31 -31 -29 -29 -28 -27 -28 -28 -28 -29 -28 -27 -25 -24 -23 -20 -16 -13 -13 -12 -11 -11 -10 -10 -11 -11 -11 -11 -11 -11 -10 -10 -10 -10 -12 -12 -12 -12
-31 -29 -28 -27 -27 -27 -27 -28 -28 -27 -26 -25 -25 -23 -21 -17 -13 -12 -12 -11 -11 -10 -10 -10 -10 -9 -9 -9 -10 -10 -10 -10 -10 -10 -10 -12 -13 -12
-30 -28 -27 -26 -26 -27 -27 -27 -27 -27 -25 -24 -23 -21 -20 -15 -13 -12 -11 -11 -11 -10 -9 -9 -9 -9 -9 -9 -9 -10 -10 -9 -10 -10 -10 -11 -12 -12
-29 -28 -26 -25 -26 -27 -27 -27 -27 -26 -26 -25 -23 -20 -18 -15 -13 -12 -11 -11 -10 -10 -10 -9 -9 -9 -9 -9 -10 -10 -10 -10 -10 -10 -10 -12 -13 -12
-30 -28 -26 -25 -25 -26 -28 -29 -29 -28 -27 -26 -25 -24 -22 -17 -13 -12 -11 -11 -11 -11 -10 -10 -10 -10 -10 -10 -10 -10 -10 -10 -10 -10 -10 -11 -12 -12
-31 -29 -27 -27 -26 -26 -26 -27 -28 -28 -28 -27 -25 -24 -24 -24 -23 -17 -13 -12 -12 -11 -11 -11 -11 -11 -10 -10 -11 -10 -10 -10 -10 -10 -10 -10 -11 -11
-30 -30 -29 -27 -27 -26 -25 -25 -26 -26 -27 -27 -27 -25 -24 -23 -23 -23 -22 -22 -21 -19 -18 -16 -15 -14 -12 -10 -11 -11 -10 -10 -10 -10 -10 -10 -11 -11
-26 -30 -31 -29 -27 -27 -27 -26 -25 -24 -24 -25 -26 -26 -25 -24 -23 -22 -22 -21 -19 -18 -19 -21 -20 -17 -14 -11 -10 -10 -11 -10 -10 -10 -11 -11 -11 -11
-24 -25 -29 -30 -29 -28 -27 -26 -26 -25 -24 -23 -23 -23 -24 -23 -23 -22 -21 -21 -21 -20 -20 -21 -20 -18 -15 -11 -10 -10 -11 -11 -11 -11 -10 -11 -11 -10
-24 -24 -24 -27 -29 -29 -28 -27 -27 -26 -25 -24 -22 -21 -21 -21 -21 -21 -20 -20 -20 -20 -19 -19 -17 -15 -13 -11 -11 -11 -11 -12 -12 -12 -12 -10 -9 -10

GFSNE_850_dewp_096.txt.gz
Dewpoint
9 11 11 10 8 8 7 8 8 8 7 7 8 7 6 5 5 5 5 5 5 4 3 3 3 3 3 1 2 2 1 1 0 -0 -2 -8 -2 -1
11 12 10 10 9 8 6 6 5 6 7 7 7 6 6 5 4 5 4 4 3 3 3 3 2 2 2 2 1 1 -0 -2 -8 -15 -16 -8 -2 -2
10 10 10 10 9 7 6 6 6 5 5 6 6 5 5 5 3 3 3 3 3 3 3 2 2 1 1 1 -1 -4 -7 -16 -22 -24 -16 -4 -3 -2
7 9 9 9 9 7 7 6 5 4 5 5 4 3 2 2 2 3 3 2 2 2 2 1 1 -0 -2 -4 -11 -23 -25 -28 -30 -24 -20 -16 -10 -8
9 8 9 8 8 7 6 5 4 4 3 3 2 2 2 2 3 2 1 1 1 1 0 -1 -2 -6 -18 -25 -27 -29 -30 -23 -17 -15 -15 -15 -15 -15
7 7 7 7 6 5 4 3 3 3 2 2 2 2 2 2 1 1 1 -0 -1 -3 -11 -20 -23 -26 -28 -30 -28 -25 -17 -14 -14 -15 -15 -14 -14 -14
6 6 6 5 4 3 3 3 2 2 2 2 1 1 1 0 -0 -1 -4 -10 -20 -23 -24 -26 -29 -30 -28 -22 -17 -14 -14 -15 -14 -14 -14 -14 -14 -14
4 4 3 3 3 3 3 2 2 1 1 0 -0 -1 -4 -9 -16 -22 -23 -22 -16 -26 -28 -27 -28 -22 -16 -14 -14 -15 -14 -14 -14 -14 -14 -14 -14 -14
3 3 3 3 3 2 2 1 0 -0 -5 -15 -23 -25 -25 -25 -24 -24 -23 -25 -26 -22 -26 -22 -16 -14 -14 -14 -14 -14 -15 -15 -15 -15 -14 -14 -14 -14
2 2 2 2 1 0 -2 -9 -20 -27 -29 -30 -30 -29 -28 -27 -26 -26 -26 -25 -24 -23 -18 -13 -13 -13 -14 -14 -14 -15 -16 -15 -15 -16 -16 -16 -16 -16
1 1 0 -1 -6 -20 -27 -30 -32 -32 -31 -30 -30 -29 -28 -28 -27 -26 -25 -24 -15 -14 -13 -12 -12 -13 -13 -14 -14 -14 -14 -13 -12 -12 -12 -13 -12 -12
-0 -3 -14 -25 -28 -32 -32 -31 -30 -30 -29 -28 -28 -27 -26 -26 -26 -26 -24 -20 -14 -12 -12 -12 -12 -12 -12 -13 -13 -14 -14 -14 -12 -12 -11 -10 -11 -11
-17 -25 -28 -31 -31 -30 -30 -30 -29 -28 -29 -28 -26 -25 -25 -25 -25 -23 -21 -15 -13 -12 -12 -12 -11 -11 -12 -12 -12 -12 -12 -11 -10 -10 -10 -10 -10 -12
-27 -29 -29 -30 -29 -30 -30 -30 -30 -29 -29 -28 -26 -26 -25 -24 -22 -20 -16 -13 -13 -12 -11 -11 -11 -11 -11 -11 -11 -10 -10 -10 -10 -10 -10 -10 -11 -10
-29 -30 -29 -29 -28 -29 -30 -30 -30 -29 -27 -26 -26 -25 -24 -23 -20 -16 -14 -13 -12 -11 -11 -10 -10 -10 -10 -10 -10 -10 -10 -10 -10 -10 -10 -10 -10 -10
-31 -30 -29 -27 -28 -28 -29 -29 -28 -27 -27 -26 -25 -23 -23 -22 -19 -15 -13 -12 -12 -11 -11 -10 -10 -10 -10 -10 -9 -10 -10 -10 -10 -10 -10 -10 -10 -10
-29 -28 -28 -26 -26 -27 -28 -28 -28 -28 -28 -27 -26 -24 -22 -21 -19 -15 -13 -13 -12 -11 -10 -10 -10 -10 -10 -10 -10 -11 -11 -11 -10 -10 -10 -10 -10 -10
-30 -30 -28 -27 -25 -26 -27 -28 -28 -28 -28 -27 -27 -26 -25 -24 -24 -20 -15 -13 -12 -11 -11 -11 -10 -11 -11 -11 -11 -12 -11 -11 -11 -10 -10 -10 -10 -10
-29 -30 -29 -26 -26 -27 -26 -26 -27 -27 -27 -27 -27 -26 -26 -25 -24 -23 -23 -23 -22 -20 -18 -15 -13 -13 -13 -13 -13 -13 -13 -12 -11 -10 -10 -10 -10 -11
-25 -29 -29 -28 -28 -27 -27 -26 -25 -25 -25 -26 -26 -25 -25 -25 -24 -24 -23 -22 -22 -22 -22 -22 -21 -20 -18 -17 -16 -18 -15 -12 -11 -10 -11 -11 -10 -10
-24 -24 -28 -30 -30 -28 -27 -27 -26 -25 -25 -24 -24 -24 -24 -24 -24 -23 -23 -23 -22 -19 -20 -21 -20 -20 -19 -19 -18 -17 -14 -12 -11 -11 -11 -11 -11 -10
-24 -24 -24 -26 -29 -30 -29 -28 -27 -26 -26 -25 -24 -23 -22 -22 -22 -22 -21 -21 -20 -20 -20 -19 -19 -19 -18 -17 -15 -13 -11 -11 -11 -12 -12 -12 -11 -10
-23 -23 -24 -24 -24 -26 -28 -29 -28 -27 -27 -26 -24 -23 -22 -21 -21 -20 -19 -18 -18 -17 -17 -17 -16 -16 -15 -14 -11 -11 -12 -12 -12 -12 -12 -12 -12 -12

GFSNE_850_dewp_099.txt.gz
Dewpoint
11 11 11 11 11 11 11 9 8 8 7 7 6 5 7 7 6 5 5 5 5 5 5 5 4 4 4 4 3 3 2 2 1 1 0 -2 -7 -4
6 10 10 10 10 11 10 9 7 6 6 6 6 6 6 6 5 5 5 4 4 3 3 3 3 3 3 2 2 2 1 0 -1 -4 -8 -14 -18 -5
2 10 7 9 10 10 10 9 7 6 6 6 6 6 6 5 5 4 3 3 2 3 3 3 3 2 2 1 1 0 -2 -4 -10 -19 -26 -28 -20 -11
5 10 8 9 9 9 9 8 7 6 6 5 5 5 5 4 3 2 2 2 3 2 2 2 1 1 1 0 -1 -3 -15 -24 -28 -31 -31 -27 -21 -14
6 8 9 8 9 9 8 7 7 6 5 4 4 3 3 2 2 2 2 1 1 1 1 1 0 -1 -2 -11 -22 -27 -29 -31 -30 -23 -17 -15 -15 -15
7 8 7 8 7 8 7 6 5 4 4 3 3 2 2 2 2 2 1 1 0 -1 -2 -5 -15 -24 -27 -28 -30 -31 -29 -24 -17 -15 -15 -16 -15 -15
6 6 6 7 7 6 5 4 4 3 3 2 2 2 1 1 1 1 -0 -2 -5 -17 -23 -25 -28 -30 -31 -30 -27 -24 -17 -15 -15 -15 -15 -14 -14 -15
4 5 5 5 5 4 3 3 3 2 2 2 2 1 0 -0 -1 -4 -11 -20 -19 -20 -25 -29 -30 -29 -27 -19 -16 -15 -15 -16 -15 -15 -14 -15 -14 -14
3 3 3 3 3 3 3 2 2 1 1 0 -1 -4 -12 -21 -25 -25 -25 -25 -24 -22 -26 -28 -23 -19 -16 -14 -15 -15 -15 -15 -15 -16 -15 -14 -14 -15
3 2 2 2 2 2 1 1 1 -0 -5 -16 -24 -28 -29 -28 -27 -27 -26 -26 -25 -25 -25 -20 -14 -14 -14 -14 -15 -15 -15 -16 -16 -15 -15 -14 -13 -14
2 2 2 2 1 0 -2 -11 -20 -28 -31 -32 -31 -31 -31 -30 -29 -28 -27 -25 -22 -18 -17 -14 -14 -14 -14 -14 -15 -15 -15 -15 -14 -14 -13 -13 -13 -13
1 1 1 -0 -3 -15 -27 -31 -31 -31 -31 -30 -30 -29 -29 -28 -27 -27 -27 -25 -22 -12 -14 -13 -14 -13 -14 -14 -14 -14 -14 -14 -14 -14 -12 -11 -11 -11
0 -0 -4 -18 -26 -31 -32 -31 -30 -29 -30 -30 -29 -28 -27 -28 -26 -26 -25 -24 -19 -14 -15 -13 -13 -13 -13 -13 -14 -13 -13 -12 -12 -11 -10 -10 -10 -10
-5 -16 -24 -28 -30 -30 -30 -30 -30 -31 -30 -29 -28 -28 -28 -27 -26 -25 -24 -19 -16 -14 -13 -13 -12 -12 -11 -12 -12 -12 -11 -11 -10 -10 -10 -10 -10 -10
-23 -25 -27 -28 -29 -29 -29 -30 -31 -30 -28 -28 -27 -28 -27 -27 -25 -24 -20 -16 -14 -13 -12 -12 -12 -11 -11 -10 -11 -12 -11 -11 -11 -10 -10 -10 -10 -10
-26 -28 -28 -29 -28 -27 -28 -29 -29 -28 -28 -27 -28 -27 -26 -25 -25 -23 -19 -15 -14 -13 -12 -12 -11 -11 -10 -10 -10 -11 -11 -11 -11 -11 -11 -11 -11 -10
-29 -30 -29 -28 -27 -26 -27 -28 -28 -28 -28 -28 -28 -27 -26 -25 -24 -23 -20 -17 -15 -14 -13 -12 -12 -11 -11 -11 -11 -12 -12 -12 -12 -12 -12 -11 -11 -11
-28 -28 -27 -28 -26 -25 -26 -27 -27 -28 -28 -28 -27 -27 -26 -26 -25 -26 -26 -24 -21 -19 -16 -14 -13 -13 -13 -14 -15 -18 -17 -16 -15 -14 -13 -11 -12 -11
-23 -26 -30 -30 -27 -26 -26 -26 -26 -26 -26 -27 -26 -26 -26 -25 -25 -25 -24 -24 -24 -23 -22 -21 -21 -19 -16 -19 -21 -19 -18 -17 -17 -15 -13 -11 -11 -12
-22 -23 -27 -30 -29 -27 -27 -27 -26 -26 -25 -25 -25 -25 -24 -24 -24 -24 -24 -23 -22 -22 -22 -21 -20 -19 -17 -17 -18 -19 -18 -17 -15 -13 -12 -11 -11 -12
-23 -23 -24 -25 -28 -29 -29 -28 -26 -27 -26 -25 -25 -24 -24 -23 -23 -23 -23 -22 -22 -21 -21 -20 -19 -17 -17 -18 -17 -16 -14 -13 -12 -11 -11 -12 -12 -12
-22 -23 -23 -24 -23 -25 -28 -29 -29 -28 -27 -26 -26 -25 -24 -23 -22 -22 -21 -21 -21 -20 -19 -18 -17 -17 -17 -16 -15 -13 -12 -11 -11 -12 -12 -12 -12 -11
-20 -21 -22 -23 -24 -24 -24 -25 -28 -29 -29 -27 -26 -26 -25 -24 -23 -21 -21 -21 -20 -19 -18 -16 -15 -14 -13 -13 -12 -11 -11 -11 -12 -12 -12 -12 -12 -13

GFSNE_850_dewp_102.txt.gz
Dewpoint
8 9 11 11 11 12 10 10 10 10 9 7 7 6 6 5 7 6 6 5 4 5 5 5 5 5 5 5 4 3 3 3 2 2 1 0 -1 -5
9 10 11 10 10 10 10 9 9 10 9 7 6 6 5 5 6 5 5 4 4 4 4 4 3 3 2 3 2 2 2 2 2 -0 -1 -3 -10 -17
1 0 6 7 9 10 9 10 9 9 8 7 6 6 5 5 6 5 4 3 3 2 2 3 3 2 3 2 1 1 1 -0 -1 -6 -15 -25 -28 -27
-2 -1 1 3 8 9 9 7 7 9 7 6 6 5 5 4 5 4 3 2 2 2 2 2 2 1 1 1 0 -0 -1 -8 -21 -28 -31 -32 -30 -25
1 2 2 8 7 6 8 8 8 8 7 6 6 5 4 4 4 3 2 2 2 1 1 1 1 0 -0 -2 -9 -20 -26 -29 -31 -32 -30 -20 -16 -16
2 4 6 7 7 7 8 8 7 7 6 5 4 3 3 3 2 2 2 2 1 0 -0 -1 -3 -11 -22 -26 -28 -30 -32 -31 -29 -20 -16 -16 -16 -16
5 5 6 7 7 7 7 7 7 6 5 4 3 3 3 2 2 2 1 0 -1 -3 -12 -22 -26 -27 -29 -30 -30 -30 -27 -20 -16 -16 -16 -16 -15 -15
3 4 5 5 5 6 6 5 4 4 3 3 3 2 2 1 1 1 -1 -3 -10 -24 -24 -25 -29 -29 -28 -28 -22 -16 -15 -15 -16 -16 -15 -15 -16 -15
2 3 3 3 4 4 4 3 3 2 2 2 2 2 1 0 -3 -11 -18 -24 -26 -25 -26 -27 -28 -24 -22 -18 -15 -15 -16 -16 -15 -16 -16 -16 -15 -16
2 2 2 2 2 2 2 2 2 2 1 1 -0 -3 -12 -22 -25 -27 -27 -27 -27 -27 -27 -26 -26 -19 -16 -15 -15 -15 -15 -15 -16 -16 -16 -15 -14 -13
2 2 2 2 1 2 1 1 1 0 -3 -10 -22 -28 -31 -31 -30 -30 -30 -29 -28 -27 -23 -22 -20 -15 -14 -14 -15 -15 -15 -15 -15 -15 -14 -15 -14 -13
1 1 1 1 1 1 -1 -6 -16 -26 -30 -31 -30 -31 -31 -30 -31 -31 -30 -29 -27 -25 -21 -16 -16 -14 -14 -15 -15 -14 -15 -15 -15 -14 -14 -14 -12 -11
1 1 1 0 -1 -8 -20 -29 -31 -31 -30 -30 -30 -30 -29 -28 -28 -29 -28 -28 -27 -24 -17 -14 -14 -14 -14 -14 -14 -14 -14 -13 -13 -12 -11 -11 -11 -11
-0 -0 -2 -10 -21 -28 -30 -31 -30 -30 -30 -31 -30 -29 -29 -30 -29 -28 -27 -26 -23 -18 -16 -14 -13 -13 -13 -14 -13 -13 -12 -12 -11 -11 -11 -11 -11 -11
-3 -9 -19 -24 -27 -29 -29 -30 -30 -30 -30 -30 -30 -30 -30 -30 -29 -27 -26 -24 -19 -16 -15 -14 -13 -12 -12 -13 -13 -13 -13 -13 -12 -11 -11 -12 -12 -12
-18 -22 -24 -26 -28 -28 -28 -28 -30 -29 -29 -30 -29 -29 -28 -28 -27 -27 -26 -22 -19 -16 -15 -14 -13 -13 -12 -12 -12 -13 -13 -13 -13 -13 -13 -14 -15 -14
-21 -24 -26 -27 -29 -28 -27 -27 -27 -27 -28 -29 -29 -29 -28 -27 -26 -27 -27 -26 -23 -20 -18 -16 -16 -15 -14 -15 -16 -16 -16 -17 -16 -18 -17 -17 -17 -14
-22 -26 -29 -28 -27 -26 -25 -25 -26 -27 -28 -28 -28 -28 -27 -27 -27 -27 -27 -27 -26 -26 -26 -25 -24 -23 -22 -22 -21 -20 -20 -19 -18 -18 -18 -17 -15 -14
-22 -26 -27 -27 -29 -28 -26 -25 -26 -26 -26 -26 -27 -26 -26 -26 -25 -25 -25 -25 -25 -24 -24 -23 -23 -22 -21 -21 -19 -19 -17 -17 -17 -16 -15 -14 -12 -12
-21 -22 -23 -25 -28 -30 -29 -26 -27 -27 -26 -25 -25 -25 -25 -25 -24 -23 -24 -23 -23 -23 -23 -22 -22 -20 -19 -17 -17 -17 -16 -16 -16 -14 -12 -11 -12 -12
-20 -21 -22 -23 -23 -25 -28 -28 -28 -28 -27 -26 -26 -25 -25 -25 -24 -23 -22 -22 -22 -21 -21 -21 -19 -18 -17 -16 -15 -15 -14 -14 -13 -11 -11 -12 -12 -13
-17 -19 -21 -22 -23 -23 -23 -24 -26 -29 -29 -28 -27 -26 -26 -25 -25 -24 -22 -21 -21 -21 -21 -20 -19 -18 -17 -16 -15 -14 -12 -12 -11 -11 -12 -12 -12 -11
-4 -15 -18 -20 -21 -22 -22 -22 -23 -24 -25 -28 -29 -28 -27 -26 -26 -25 -24 -22 -21 -20 -20 -20 -20 -17 -16 -14 -13 -12 -12 -11 -11 -12 -13 -12 -12 -12

GFSNE_850_dewp_105.txt.gz
Dewpoint
8 8 8 6 7 9 10 11 10 10 10 8 10 8 6 5 5 5 7 6 6 5 5 4 5 6 6 5 5 5 4 3 2 2 2 1 0 -1
8 10 9 6 6 8 9 10 10 10 9 9 8 7 6 5 5 5 6 4 4 4 4 4 4 4 4 3 3 2 3 2 1 2 1 -1 -2 -6
9 9 6 3 1 7 9 7 9 9 8 9 9 8 6 5 5 5 5 4 4 3 3 3 3 3 3 2 2 2 1 1 0 -0 -1 -10 -22 -28
1 -1 -2 -3 -2 2 4 8 9 8 8 8 8 7 6 6 5 4 4 4 3 2 2 2 2 2 2 2 1 1 0 -0 -1 -12 -25 -30 -32 -31
-1 -1 -1 -1 -0 1 4 8 9 8 8 8 8 7 6 5 4 4 3 3 2 2 2 2 1 1 1 0 -0 -1 -8 -20 -28 -31 -32 -31 -22 -17
0 0 1 2 3 6 7 6 7 7 7 8 7 6 6 5 4 3 3 2 2 2 0 0 0 -1 -2 -9 -20 -27 -29 -31 -32 -30 -21 -17 -16 -17
1 1 2 4 5 6 6 7 7 7 7 6 6 5 4 3 3 2 2 1 1 0 -1 -4 -11 -21 -25 -27 -29 -31 -31 -29 -23 -16 -16 -16 -16 -15
2 2 2 4 4 5 6 6 6 6 5 5 4 4 3 3 2 2 1 1 -0 -3 -13 -22 -24 -28 -28 -28 -29 -25 -19 -16 -15 -16 -16 -15 -16 -16
2 2 2 3 3 4 4 5 5 5 4 3 3 3 2 2 1 1 0 -1 -6 -17 -23 -24 -27 -27 -25 -24 -20 -15 -15 -16 -16 -15 -15 -16 -16 -16
1 1 2 2 3 3 3 3 3 3 2 2 2 1 1 1 -0 -7 -18 -21 -23 -25 -26 -27 -28 -24 -20 -16 -15 -15 -15 -15 -16 -16 -16 -16 -15 -14
0 1 2 2 2 2 2 1 1 2 2 2 1 -0 -3 -13 -23 -27 -28 -27 -27 -27 -26 -25 -24 -19 -15 -15 -15 -15 -15 -15 -15 -15 -15 -14 -14 -15
1 1 1 1 1 1 1 1 0 -0 -1 -2 -9 -20 -29 -31 -31 -30 -30 -30 -29 -29 -26 -22 -20 -16 -15 -15 -14 -14 -14 -15 -15 -14 -14 -14 -14 -14
1 1 1 1 1 1 0 -2 -9 -18 -25 -28 -29 -29 -29 -29 -29 -29 -29 -29 -29 -30 -23 -20 -16 -15 -15 -14 -14 -14 -14 -14 -13 -13 -12 -12 -11 -11
0 -0 -0 -0 -1 -4 -9 -21 -29 -30 -29 -27 -27 -28 -28 -28 -28 -28 -28 -28 -27 -28 -25 -20 -16 -15 -14 -14 -13 -14 -13 -12 -12 -12 -12 -12 -11 -11
-1 -1 -1 -4 -14 -21 -27 -28 -29 -28 -28 -27 -27 -28 -29 -28 -28 -29 -28 -27 -25 -23 -20 -17 -15 -15 -14 -14 -14 -14 -13 -13 -13 -13 -12 -12 -13 -14
-1 -3 -11 -19 -22 -24 -27 -27 -27 -27 -27 -27 -26 -28 -28 -28 -28 -28 -29 -27 -24 -21 -18 -16 -15 -15 -15 -15 -15 -16 -15 -15 -15 -15 -17 -19 -20 -19
-6 -14 -20 -22 -25 -26 -27 -27 -26 -26 -27 -24 -27 -28 -27 -27 -28 -28 -27 -27 -26 -23 -20 -18 -18 -18 -18 -19 -20 -20 -20 -20 -20 -20 -19 -18 -17 -16
-13 -18 -20 -23 -26 -27 -27 -26 -24 -25 -26 -26 -27 -28 -27 -27 -27 -27 -27 -27 -26 -25 -25 -25 -25 -24 -23 -22 -21 -20 -20 -19 -19 -18 -17 -16 -14 -13
-13 -18 -21 -25 -28 -27 -27 -26 -25 -24 -25 -26 -27 -27 -26 -26 -25 -25 -25 -25 -24 -24 -24 -24 -23 -23 -22 -21 -19 -19 -18 -17 -16 -15 -15 -13 -12 -12
-7 -11 -20 -24 -26 -25 -27 -29 -27 -25 -25 -26 -25 -25 -26 -25 -25 -24 -24 -23 -22 -22 -22 -22 -22 -22 -20 -19 -18 -18 -16 -15 -15 -14 -13 -12 -11 -12
-3 -4 -8 -21 -21 -21 -22 -25 -28 -27 -26 -26 -26 -26 -25 -25 -25 -24 -24 -23 -22 -21 -20 -20 -20 -19 -19 -19 -18 -18 -16 -14 -13 -12 -11 -11 -12 -14
-2 -2 -3 -17 -19 -20 -20 -21 -21 -24 -27 -28 -28 -27 -26 -26 -26 -26 -25 -24 -23 -21 -20 -20 -20 -20 -20 -19 -19 -18 -17 -14 -12 -11 -11 -11 -12 -12
-2 -2 -2 -3 -14 -17 -19 -20 -21 -22 -22 -23 -25 -27 -28 -28 -27 -26 -26 -25 -24 -23 -22 -20 -20 -20 -20 -19 -19 -18 -17 -14 -12 -12 -12 -12 -12 -12

GFSNE_850_dewp_108.txt.gz
Dewpoint
9 9 9 8 8 7 8 8 8 9 11 10 9 9 8 9 8 5 4 5 5 5 4 5 6 4 5 6 6 6 5 5 3 2 2 2 2 0
8 8 7 8 8 8 8 7 6 7 10 10 8 9 9 9 7 5 5 5 5 4 3 4 4 3 5 5 5 4 3 2 2 1 1 1 -0 -1
8 9 10 10 10 9 6 7 7 9 9 9 9 9 7 8 7 6 5 4 4 4 4 3 3 3 3 3 3 3 2 2 1 1 0 -1 -4 -15
10 9 7 4 2 -1 -1 0 1 7 6 7 9 8 8 7 6 6 5 4 4 4 3 2 2 2 2 2 2 2 2 1 0 -0 -5 -20 -29 -32
2 1 0 -0 -1 0 1 2 5 4 9 8 8 7 7 7 6 6 5 3 3 3 2 2 2 2 2 2 1 0 -0 -1 -5 -20 -29 -32 -32 -25
-0 -0 0 0 1 1 2 3 4 7 8 7 7 7 7 6 6 5 4 3 3 2 2 2 1 1 1 -0 -1 -4 -15 -25 -28 -31 -32 -28 -18 -17
-1 -0 0 1 2 3 4 5 6 6 7 7 6 6 6 6 5 4 3 3 2 2 1 0 -1 -2 -5 -12 -21 -26 -29 -30 -31 -30 -20 -17 -17 -17
-1 -0 1 1 2 3 4 4 6 5 6 6 6 6 6 5 4 3 3 2 1 1 0 -1 -4 -17 -22 -25 -27 -29 -29 -26 -22 -16 -16 -16 -16 -16
-0 0 0 1 1 2 2 3 4 5 5 5 5 4 4 3 3 3 2 1 1 0 -5 -18 -23 -24 -27 -27 -27 -26 -19 -16 -16 -16 -16 -16 -16 -16
-0 -0 -0 -0 1 1 2 3 3 4 4 4 3 3 2 2 2 1 1 0 -1 -4 -12 -21 -26 -27 -26 -23 -21 -17 -15 -15 -16 -16 -16 -16 -16 -16
-0 -0 -0 0 1 2 2 2 2 1 2 2 2 2 2 1 1 0 -2 -10 -16 -22 -24 -25 -26 -25 -22 -18 -15 -15 -15 -15 -15 -16 -16 -16 -16 -15
0 1 1 1 1 1 1 1 1 1 1 1 1 1 -0 -2 -9 -19 -24 -23 -25 -25 -27 -24 -24 -21 -15 -15 -14 -14 -15 -15 -15 -15 -15 -15 -15 -15
1 1 1 1 1 1 1 -0 -1 -3 -5 -8 -12 -17 -23 -29 -30 -29 -29 -28 -28 -29 -26 -23 -21 -17 -14 -14 -14 -14 -14 -14 -14 -14 -14 -13 -13 -13
0 0 0 -0 -0 -0 -1 -2 -4 -11 -22 -26 -28 -28 -28 -28 -27 -27 -26 -26 -27 -27 -25 -19 -17 -15 -14 -14 -14 -14 -14 -14 -13 -13 -12 -12 -12 -12
0 0 -1 -1 -1 -4 -10 -21 -27 -29 -28 -28 -27 -27 -25 -27 -27 -26 -25 -26 -27 -26 -25 -24 -20 -17 -15 -14 -14 -14 -13 -13 -13 -13 -13 -12 -12 -13
0 -1 -1 -2 -5 -16 -21 -25 -27 -27 -27 -27 -27 -26 -25 -27 -27 -27 -26 -27 -26 -25 -22 -19 -17 -16 -15 -15 -15 -16 -15 -15 -15 -15 -15 -16 -17 -20
-1 -2 -2 -6 -15 -21 -23 -24 -26 -25 -26 -27 -26 -25 -27 -27 -26 -26 -26 -26 -25 -25 -23 -20 -18 -18 -18 -19 -21 -21 -20 -21 -20 -19 -20 -20 -19 -17
-2 -2 -4 -7 -18 -21 -24 -25 -25 -24 -24 -25 -25 -26 -27 -26 -25 -25 -26 -25 -26 -26 -25 -25 -25 -24 -23 -22 -21 -21 -20 -20 -19 -19 -18 -17 -16 -15
-2 -2 -6 -8 -10 -21 -25 -26 -25 -24 -22 -24 -25 -26 -26 -26 -25 -25 -25 -25 -25 -25 -25 -24 -24 -22 -22 -22 -20 -19 -19 -19 -17 -17 -16 -15 -14 -14
-2 -2 -3 -6 -12 -21 -25 -25 -25 -26 -25 -24 -25 -25 -25 -25 -25 -25 -24 -24 -23 -23 -22 -22 -21 -22 -21 -20 -19 -18 -19 -18 -16 -15 -14 -13 -13 -13
-2 -2 -2 -3 -3 -12 -21 -22 -22 -24 -26 -26 -24 -25 -25 -24 -24 -24 -24 -24 -23 -22 -21 -20 -20 -19 -19 -18 -16 -16 -18 -18 -17 -15 -13 -13 -13 -14
-2 -3 -3 -3 -3 -5 -17 -19 -19 -20 -21 -25 -27 -26 -25 -25 -25 -25 -24 -24 -24 -24 -23 -21 -19 -19 -19 -19 -18 -18 -18 -18 -18 -15 -13 -12 -12 -13
-3 -3 -3 -3 -3 -3 -3 -17 -18 -19 -20 -20 -21 -21 -23 -26 -27 -26 -25 -25 -24 -24 -24 -23 -21 -20 -20 -19 -19 -18 -18 -18 -19 -19 -15 -12 -12 -13

GFSNE_850_dewp_111.txt.gz
Dewpoint
9 10 10 9 9 9 9 9 9 9 6 6 9 9 10 10 9 9 9 6 5 4 6 5 6 7 5 4 2 5 5 6 5 4 3 1 1 2
8 8 8 8 9 8 9 9 9 9 9 9 9 9 9 9 8 9 8 6 5 5 5 4 3 3 4 4 5 5 5 4 2 2 2 1 1 0
8 8 9 9 9 9 10 9 8 10 10 9 8 9 8 8 8 7 7 6 5 4 4 4 4 3 3 3 4 3 3 3 2 2 1 0 -0 -2
9 9 9 9 6 3 1 0 0 2 6 6 8 8 8 8 7 7 7 6 5 4 3 4 3 2 2 2 2 2 2 2 2 1 0 -0 -10 -26
4 2 1 0 -0 0 0 1 1 2 4 7 7 7 7 7 7 7 7 6 5 4 3 3 2 2 2 2 2 2 1 1 -0 -0 -4 -21 -30 -32
0 -0 -0 -1 -1 -0 0 1 3 6 7 5 6 7 7 7 7 6 6 5 5 3 3 3 2 2 1 1 1 1 -0 -2 -10 -21 -28 -31 -32 -26
-1 -1 -2 -2 -2 -1 1 2 3 4 5 6 6 4 4 6 6 6 5 4 4 2 2 2 1 0 -0 -1 -2 -4 -11 -21 -27 -30 -31 -31 -20 -17
-1 -2 -2 -2 -1 -0 1 2 2 3 5 5 5 6 6 5 6 5 5 4 3 2 2 1 0 -1 -3 -12 -21 -25 -27 -29 -30 -30 -27 -17 -17 -17
-1 -1 -1 -1 -1 -1 -0 1 1 2 4 4 4 5 5 5 4 4 3 3 3 2 1 0 -1 -4 -17 -25 -26 -29 -29 -27 -24 -19 -16 -17 -17 -16
-0 -1 -1 -1 -1 -0 0 1 2 2 3 3 4 3 3 3 2 2 2 2 2 1 1 -2 -9 -20 -25 -25 -25 -25 -24 -18 -15 -16 -16 -16 -16 -16
0 -0 -0 -0 -0 1 1 1 1 2 2 2 2 2 2 2 2 2 2 1 1 0 -2 -8 -19 -25 -26 -25 -21 -21 -17 -15 -15 -15 -16 -16 -16 -16
0 0 0 0 1 1 1 1 1 1 1 1 1 1 1 1 1 0 0 -1 -5 -11 -19 -21 -23 -25 -24 -22 -19 -16 -15 -15 -15 -15 -15 -15 -15 -16
1 1 0 -0 0 0 0 0 -0 -0 -1 -1 -3 -5 -5 -4 -6 -12 -17 -20 -21 -23 -26 -26 -24 -25 -23 -14 -17 -15 -15 -15 -15 -15 -15 -14 -14 -14
0 -0 -0 -0 -0 -0 -0 -1 -1 -2 -3 -11 -19 -24 -26 -26 -26 -26 -26 -26 -26 -26 -27 -27 -20 -20 -19 -15 -14 -14 -14 -14 -14 -14 -14 -14 -14 -13
0 0 -0 -1 -0 -1 -1 -2 -11 -20 -25 -27 -26 -25 -25 -25 -25 -25 -24 -24 -24 -25 -27 -27 -24 -16 -14 -14 -14 -15 -14 -14 -14 -13 -13 -13 -13 -13
0 -0 -0 -1 -1 -1 -2 -8 -19 -24 -24 -26 -26 -24 -24 -25 -24 -24 -24 -25 -26 -26 -26 -26 -25 -23 -19 -16 -15 -15 -14 -13 -15 -15 -15 -15 -16 -16
-0 -0 -1 -2 -2 -2 -6 -18 -21 -22 -24 -24 -25 -24 -23 -23 -24 -24 -25 -26 -26 -27 -26 -24 -21 -19 -18 -17 -17 -17 -17 -18 -17 -17 -19 -19 -19 -20
-0 -1 -1 -1 -2 -3 -7 -19 -20 -23 -23 -22 -22 -23 -21 -22 -23 -23 -24 -24 -25 -26 -26 -24 -22 -20 -20 -20 -21 -22 -22 -22 -22 -21 -20 -19 -19 -18
-1 -1 -1 -1 -2 -6 -6 -14 -20 -22 -21 -21 -21 -22 -22 -22 -22 -23 -23 -24 -26 -26 -26 -25 -25 -25 -23 -22 -20 -19 -18 -19 -19 -19 -18 -18 -18 -16
-1 -2 -1 -1 -2 -2 -4 -10 -18 -22 -22 -23 -23 -22 -22 -22 -23 -25 -25 -24 -23 -23 -23 -23 -23 -22 -21 -19 -19 -18 -17 -18 -18 -18 -18 -17 -16 -15
-2 -2 -2 -2 -2 -3 -3 -4 -12 -21 -22 -22 -24 -25 -23 -22 -23 -24 -24 -24 -24 -23 -22 -21 -20 -19 -19 -18 -17 -16 -16 -17 -17 -17 -18 -18 -17 -16
-2 -2 -3 -3 -3 -3 -3 -3 -4 -13 -18 -19 -19 -20 -24 -24 -24 -24 -24 -24 -24 -24 -24 -23 -21 -19 -19 -18 -18 -17 -17 -18 -18 -18 -17 -18 -18 -15
-3 -3 -3 -3 -3 -3 -3 -3 -4 -4 -12 -17 -18 -18 -18 -19 -22 -24 -25 -25 -24 -24 -24 -24 -23 -21 -21 -20 -20 -19 -19 -19 -18 -18 -17 -18 -17 -17

GFSNE_850_dewp_114.txt.gz
Dewpoint
8 8 9 10 9 10 9 8 8 9 9 8 7 7 9 9 10 10 9 9 8 7 5 4 4 6 6 6 5 3 3 5 5 5 5 3 2 1
7 8 8 9 9 9 9 9 9 9 9 9 9 8 8 7 8 8 8 8 8 7 5 5 5 5 5 4 4 2 5 5 5 4 2 2 1 1
7 8 8 9 9 9 9 9 9 8 7 6 8 8 8 8 8 7 8 8 7 6 5 4 3 4 4 3 3 4 5 4 3 2 2 1 0 -0
9 9 8 7 3 1 1 1 1 2 2 2 6 6 4 6 7 7 7 7 7 6 6 4 3 4 3 2 2 2 2 2 2 2 2 1 0 -2
6 2 0 -0 -1 -1 -1 -1 -1 -0 1 6 6 6 6 6 7 7 7 7 6 6 6 4 3 3 2 2 2 2 2 2 2 1 1 -0 -3 -23
-0 -1 -1 -2 -2 -2 -2 -3 -2 -0 2 5 5 5 4 5 6 6 6 6 6 5 5 4 3 3 2 2 2 2 2 1 -0 -1 -4 -13 -27 -32
-1 -1 -1 -1 -2 -2 -2 -2 -2 0 2 3 4 4 5 5 5 5 6 5 5 4 4 3 3 2 2 1 0 -0 -0 -1 -5 -14 -25 -29 -32 -31
-0 -0 -1 -1 -1 -2 -2 -1 -1 0 1 2 3 4 4 4 5 5 5 5 4 4 4 3 2 1 1 -1 -2 -6 -14 -21 -24 -28 -30 -31 -28 -19
1 0 0 -0 -1 -1 -2 -1 -1 -0 0 2 3 4 4 4 4 4 5 4 4 4 3 2 1 1 -0 -2 -6 -19 -25 -27 -26 -27 -29 -25 -17 -17
0 0 0 -0 -0 -1 -1 -1 -0 0 0 2 2 3 3 3 3 3 3 3 3 2 2 1 0 -1 -4 -15 -23 -24 -26 -26 -24 -22 -18 -16 -17 -17
0 0 0 -0 -0 -0 -0 0 0 1 1 1 1 1 2 2 2 2 2 2 2 1 1 0 -0 -3 -13 -22 -23 -23 -22 -23 -17 -15 -16 -16 -17 -17
1 0 0 0 -0 -0 -0 -0 0 0 1 0 0 0 0 1 1 1 1 1 0 0 0 -1 -5 -14 -23 -24 -23 -20 -20 -18 -15 -15 -16 -16 -16 -17
1 0 0 -1 -1 -1 -1 -1 -0 -0 0 -0 -2 -4 -4 -3 -2 -1 -2 -2 -2 -5 -12 -24 -22 -22 -23 -20 -21 -19 -17 -15 -15 -15 -16 -16 -16 -16
1 1 0 -0 -1 -1 -1 -1 -1 -1 -2 -3 -6 -16 -21 -23 -24 -24 -24 -24 -23 -23 -21 -20 -23 -24 -23 -22 -15 -18 -17 -15 -15 -15 -15 -15 -15 -15
1 1 1 0 -1 -2 -1 -1 -2 -4 -14 -24 -26 -26 -26 -25 -24 -24 -24 -24 -24 -24 -24 -24 -24 -22 -19 -20 -19 -15 -15 -15 -15 -15 -15 -15 -14 -14
1 1 0 -1 -2 -2 -2 -2 -3 -11 -20 -24 -25 -25 -25 -24 -22 -23 -22 -23 -22 -23 -24 -24 -24 -23 -16 -15 -15 -15 -15 -14 -15 -15 -15 -15 -14 -14
0 0 -0 -1 -1 -2 -2 -3 -8 -17 -20 -22 -24 -23 -23 -23 -21 -21 -22 -23 -23 -23 -24 -23 -23 -23 -23 -23 -20 -17 -16 -16 -15 -16 -17 -18 -18 -18
-0 -1 -1 -1 -1 -2 -2 -3 -6 -17 -19 -20 -21 -21 -21 -21 -19 -21 -22 -22 -21 -23 -22 -23 -23 -23 -21 -20 -19 -19 -20 -21 -21 -21 -22 -21 -20 -20
-1 -1 -1 -1 -1 -2 -2 -3 -5 -10 -17 -21 -22 -22 -21 -21 -20 -21 -21 -21 -21 -22 -22 -24 -24 -23 -22 -22 -21 -19 -18 -19 -19 -19 -19 -18 -18 -18
-1 -1 -1 -2 -2 -2 -2 -3 -3 -5 -12 -20 -23 -24 -24 -21 -21 -22 -22 -23 -22 -21 -22 -22 -23 -23 -23 -21 -20 -19 -17 -16 -17 -18 -18 -17 -16 -15
-2 -2 -2 -2 -2 -3 -3 -3 -3 -3 -4 -13 -23 -23 -24 -25 -24 -22 -23 -23 -23 -23 -23 -22 -21 -19 -19 -19 -17 -17 -17 -17 -16 -16 -16 -16 -15 -13
-2 -2 -2 -2 -3 -3 -3 -3 -3 -3 -4 -4 -15 -18 -10 -14 -20 -24 -24 -23 -23 -24 -23 -23 -22 -20 -20 -19 -18 -18 -18 -16 -16 -17 -17 -16 -16 -16
-2 -3 -3 -3 -3 -3 -3 -3 -3 -4 -4 -4 -5 -9 -16 -16 -16 -18 -19 -22 -24 -24 -24 -24 -22 -22 -22 -22 -22 -21 -20 -19 -19 -18 -18 -18 -16 -13

GFSNE_850_dewp_117.txt.gz
Dewpoint
9 8 8 9 9 9 9 8 8 8 8 7 6 7 6 6 5 5 6 6 8 8 8 7 5 4 4 5 6 4 4 4 6 6 6 5 3 2
7 7 8 8 9 10 9 9 9 9 9 8 8 8 8 8 8 8 8 7 8 7 7 6 6 5 5 5 5 5 4 2 5 5 5 3 2 2
7 7 8 8 9 9 8 8 8 8 8 8 7 6 6 6 7 7 6 8 7 7 7 6 5 5 4 4 4 5 5 5 5 5 4 2 2 1
8 9 8 8 5 1 0 -0 -0 0 0 1 1 2 3 7 6 6 5 6 7 6 6 6 6 5 4 4 3 3 2 2 4 3 2 2 2 1
8 8 3 0 -1 -2 -2 -2 -2 -2 -2 -0 2 4 5 5 5 6 6 5 6 6 6 6 6 4 3 3 2 2 2 2 2 2 2 2 1 -0
2 -0 -1 -1 -1 -1 -2 -2 -2 -2 -2 -1 2 4 4 4 5 4 6 6 6 6 5 5 5 4 3 3 2 2 2 2 2 2 1 -0 -1 -8
-1 -1 -0 -1 -1 -1 -1 -2 -2 -3 -2 -1 0 2 3 3 3 5 5 5 5 5 5 4 4 3 3 3 2 1 1 1 1 0 -1 -5 -19 -28
0 0 0 0 0 -0 -1 -2 -2 -2 -2 -1 0 1 2 3 4 4 4 5 4 4 4 4 3 3 2 2 1 -0 -1 -2 -2 -3 -9 -20 -28 -30
1 0 -0 -0 -0 -0 -0 -1 -2 -2 -1 -0 0 2 2 3 3 3 4 4 4 4 4 3 3 2 2 1 0 -1 -3 -10 -20 -24 -27 -29 -30 -24
0 0 -0 -0 -0 -0 -0 -0 -1 -0 -0 0 0 1 2 2 2 2 3 2 2 2 2 2 2 2 1 0 -1 -2 -11 -24 -27 -27 -26 -27 -25 -17
1 0 0 -0 -0 -1 -1 -0 -0 -0 -0 -0 0 0 1 1 1 2 2 2 2 2 2 1 1 1 0 -1 -6 -16 -21 -24 -26 -23 -21 -20 -16 -15
1 1 1 -0 -0 -1 -1 -1 -1 -1 -0 -0 -0 -0 -0 -0 0 1 1 1 1 1 1 1 0 -0 -2 -5 -13 -20 -20 -23 -23 -18 -15 -15 -15 -16
1 1 1 1 -0 -1 -1 -1 -1 -1 -1 -0 -1 -2 -3 -5 -4 -2 -1 -1 -1 -1 -1 -3 -4 -4 -7 -20 -22 -21 -20 -19 -17 -15 -15 -15 -16 -16
2 2 1 1 0 -0 -2 -2 -1 -1 -1 -2 -5 -8 -11 -17 -22 -24 -23 -20 -14 -10 -9 -8 -13 -21 -23 -21 -21 -19 -19 -18 -14 -14 -14 -15 -15 -15
1 1 1 1 1 -1 -2 -2 -2 -2 -4 -8 -21 -25 -26 -26 -26 -25 -25 -25 -24 -23 -23 -22 -20 -19 -21 -21 -20 -17 -16 -17 -15 -14 -14 -14 -15 -15
-0 0 0 0 0 -1 -2 -2 -2 -2 -7 -17 -21 -23 -24 -25 -25 -24 -24 -23 -23 -22 -22 -21 -22 -22 -21 -19 -16 -17 -15 -14 -15 -15 -14 -14 -14 -15
-0 -0 -1 -0 -0 -1 -2 -2 -2 -3 -10 -17 -20 -23 -23 -23 -24 -23 -22 -23 -23 -23 -22 -23 -22 -22 -22 -21 -16 -15 -14 -15 -15 -15 -15 -15 -16 -17
-1 -1 -1 -1 -1 -1 -1 -2 -2 -3 -6 -16 -20 -22 -22 -22 -22 -22 -21 -23 -22 -22 -22 -22 -22 -22 -23 -22 -21 -21 -19 -17 -16 -16 -16 -18 -19 -19
-1 -1 -1 -1 -1 -2 -2 -2 -2 -3 -5 -8 -16 -21 -22 -22 -21 -22 -21 -22 -23 -21 -21 -21 -22 -23 -22 -21 -20 -19 -19 -18 -18 -20 -20 -19 -18 -18
-1 -1 -2 -1 -1 -2 -2 -3 -3 -3 -3 -4 -8 -16 -22 -22 -23 -22 -22 -22 -23 -23 -20 -21 -22 -23 -23 -22 -22 -21 -20 -18 -17 -18 -17 -17 -16 -15
-1 -2 -2 -2 -2 -2 -2 -3 -3 -3 -3 -3 -3 -6 -18 -21 -22 -23 -24 -23 -22 -22 -22 -23 -22 -18 -19 -19 -18 -18 -18 -18 -17 -16 -16 -16 -15 -14
-1 -2 -2 -2 -2 -2 -3 -3 -4 -3 -3 -3 -3 -4 -5 -16 -11 -6 -8 -17 -22 -23 -23 -22 -22 -21 -21 -20 -20 -19 -18 -17 -16 -16 -16 -16 -16 -16
-2 -2 -3 -3 -3 -3 -3 -3 -3 -3 -3 -4 -4 -4 -4 -5 -11 -14 -15 -11 -14 -19 -22 -22 -21 -22 -22 -22 -22 -22 -22 -21 -19 -18 -18 -18 -17 -18

GFSNE_850_dewp_120.txt.gz
Dewpoint
11 11 10 8 9 9 9 9 8 9 7 7 7 7 7 6 6 6 5 5 4 7 5 8 7 7 5 5 5 4 4 3 4 5 6 5 5 4
9 9 7 7 7 8 8 9 9 9 9 9 9 9 9 9 8 8 8 7 7 8 8 7 8 7 6 5 6 5 5 4 4 4 6 5 5 2
8 7 7 7 8 8 9 8 8 8 8 8 8 8 7 7 6 6 7 7 7 6 7 7 7 7 6 6 5 5 5 5 3 4 4 5 3 2
7 7 7 8 8 7 2 0 0 -0 -0 -1 -1 -2 -1 -0 2 3 7 6 7 6 6 6 6 6 5 5 4 4 4 4 5 5 4 3 2 2
8 8 8 8 2 -0 -2 -2 -2 -2 -2 -2 -2 -2 -1 0 3 5 5 5 5 6 6 6 6 5 5 4 4 4 3 3 3 2 3 2 2 2
9 8 3 -0 -1 -1 -1 -1 -1 -2 -2 -2 -2 -2 -1 1 3 4 4 5 5 5 6 6 5 5 5 4 3 3 2 2 2 2 2 2 1 1
5 -0 -1 -1 -0 -0 -0 -1 -1 -2 -2 -2 -2 -1 0 1 2 3 4 4 5 5 5 5 4 4 4 3 3 3 2 2 2 2 2 1 -0 -2
-1 -0 0 0 -0 -1 -1 -1 -1 -1 -2 -2 -1 -1 -0 1 2 3 3 4 4 4 4 4 3 3 3 3 2 2 1 1 1 1 -0 -1 -3 -13
0 0 -0 -0 -1 -1 -1 -1 -1 -1 -1 -1 -1 -1 -1 1 2 3 3 3 3 3 3 3 3 3 3 2 2 2 1 -1 -2 -4 -8 -13 -15 -21
0 0 -0 -0 -0 -0 -0 -1 -1 -0 -0 -1 -1 -1 -1 0 1 2 2 2 2 2 2 2 3 2 2 2 1 1 -0 -1 -3 -12 -21 -22 -24 -27
1 0 0 0 0 -0 -0 -1 -1 -1 -0 -0 -0 -0 -0 -0 0 1 1 1 2 2 1 1 2 2 1 1 0 0 -1 -2 -15 -23 -25 -23 -22 -23
1 1 1 1 1 0 -1 -1 -1 -1 -1 -1 -1 -0 -1 -1 -1 -1 0 0 1 0 1 1 1 1 -0 -0 -1 -2 -5 -14 -20 -23 -23 -20 -20 -16
1 1 1 1 1 1 -0 -1 -2 -2 -1 -1 -1 -1 -1 -3 -5 -6 -4 -1 -0 -1 -0 -1 -0 -1 -1 -2 -12 -15 -13 -17 -20 -20 -20 -17 -15 -13
1 1 1 1 1 0 0 -0 -2 -2 -2 -1 -3 -4 -7 -9 -14 -18 -22 -21 -16 -7 -3 -2 -2 -3 -14 -17 -16 -20 -20 -19 -17 -16 -17 -15 -14 -14
1 1 1 1 1 1 0 -2 -2 -2 -2 -2 -5 -13 -20 -24 -25 -26 -26 -25 -25 -24 -24 -22 -19 -16 -15 -17 -20 -21 -20 -16 -17 -16 -15 -14 -13 -14
-0 -0 -0 0 0 0 0 -1 -2 -2 -2 -3 -10 -17 -21 -24 -25 -25 -25 -24 -23 -23 -24 -23 -22 -22 -21 -20 -20 -18 -18 -14 -17 -16 -14 -13 -13 -14
-1 -1 -1 -1 -1 -0 -0 -1 -2 -2 -2 -4 -10 -17 -20 -23 -23 -23 -23 -23 -22 -22 -23 -23 -23 -22 -22 -20 -20 -18 -16 -18 -14 -14 -14 -14 -14 -13
-1 -1 -1 -1 -1 -1 -1 -1 -2 -2 -2 -3 -5 -13 -19 -22 -22 -21 -22 -21 -21 -22 -22 -22 -22 -22 -23 -23 -22 -22 -17 -15 -15 -15 -15 -15 -15 -15
0 -0 -1 -1 -1 -1 -1 -2 -2 -2 -2 -3 -4 -6 -13 -19 -21 -21 -21 -21 -21 -21 -21 -20 -20 -21 -21 -22 -22 -21 -20 -20 -19 -18 -17 -16 -17 -18
-0 -0 -0 -1 -1 -2 -2 -2 -2 -2 -3 -3 -3 -4 -6 -12 -20 -22 -22 -21 -21 -21 -21 -21 -20 -21 -21 -21 -21 -21 -21 -20 -18 -18 -18 -19 -18 -17
-1 -1 -1 -1 -2 -2 -2 -2 -2 -3 -3 -4 -4 -4 -4 -5 -11 -20 -21 -22 -22 -22 -22 -22 -22 -20 -19 -19 -18 -19 -19 -19 -19 -18 -17 -17 -16 -15
-2 -2 -2 -2 -2 -2 -2 -2 -3 -3 -4 -4 -4 -4 -4 -4 -4 -7 -16 -13 -8 -11 -18 -22 -21 -21 -13 -19 -21 -20 -19 -18 -17 -17 -17 -17 -16 -15
-3 -3 -2 -2 -2 -2 -3 -3 -3 -4 -4 -5 -5 -4 -4 -4 -4 -4 -6 -13 -14 -13 -8 -10 -18 -21 -22 -22 -22 -23 -22 -22 -21 -20 -18 -18 -17 -16

GFSNE_850_dewp_123.txt.gz
Dewpoint
9 9 9 10 10 9 9 10 9 8 9 8 7 7 7 7 7 7 6 6 6 5 5 6 7 8 6 7 6 5 5 4 2 5 7 7 6 5
8 8 9 8 7 9 8 8 8 9 9 9 9 9 9 9 9 9 9 8 8 8 7 7 8 7 7 7 6 6 5 5 3 3 5 5 5 5
7 8 7 8 7 8 8 8 8 8 8 8 8 6 6 5 6 5 6 5 7 7 7 7 7 7 6 6 6 6 5 4 4 4 4 4 5 4
8 8 7 7 7 8 8 7 3 2 1 -0 -1 2 -0 -2 -2 -1 -0 3 4 5 6 6 6 6 6 6 6 5 5 4 4 3 4 4 4 4
7 7 7 8 8 8 2 -1 -2 -2 -2 -2 -2 -2 -2 -2 -3 -2 0 3 4 4 5 5 5 6 6 5 5 5 4 4 4 4 4 3 3 2
8 8 8 8 6 -0 -1 -1 -1 -1 -1 -1 -1 -2 -2 -2 -2 0 1 2 4 4 5 5 5 5 5 5 5 4 4 3 3 2 2 2 2 2
9 8 8 4 -1 -1 -0 -0 -1 -1 -1 -1 -1 -2 -2 -2 -1 1 2 3 2 3 4 4 4 4 4 4 4 4 3 3 2 2 2 2 2 1
8 8 1 -1 -0 -0 -1 -1 -1 -1 -1 -1 -1 -1 -1 -1 -1 1 1 2 2 3 3 4 4 4 3 3 3 3 3 2 2 2 1 1 1 -0
3 -1 -0 0 -0 -1 -1 -1 -1 -1 -1 -0 -0 -0 -1 -1 -1 -0 1 2 2 2 2 3 3 3 2 2 2 2 2 2 1 0 -1 -1 -1 -1
-1 0 0 -0 -0 -0 -0 -0 -1 -1 -1 -1 -0 -0 -0 -1 -1 -1 -0 0 1 2 2 1 2 2 2 2 2 2 2 1 -0 -1 -2 -5 -12 -18
0 0 0 0 0 0 0 -0 -0 -1 -1 -2 -1 -1 -0 -1 -1 -1 -1 -0 -0 0 1 1 1 1 2 2 2 2 1 -0 -1 -0 -4 -14 -23 -23
1 1 1 1 1 1 1 0 -0 -1 -2 -2 -2 -1 -1 -1 -1 -2 -2 -1 -0 -0 0 0 1 1 1 1 1 1 -0 -1 -1 -3 -13 -20 -21 -20
1 1 1 1 1 1 1 1 -0 -1 -2 -2 -2 -2 -1 -2 -2 -4 -5 -9 -8 -2 -1 -1 -1 -0 -1 -0 -3 -7 -8 -4 -6 -10 -18 -19 -19 -16
1 1 1 1 1 1 1 0 0 -0 -2 -2 -2 -2 -3 -7 -11 -16 -18 -21 -23 -22 -18 -5 -2 -2 -2 -2 -8 -13 -18 -18 -18 -16 -17 -17 -17 -16
1 1 1 1 1 1 1 1 0 -1 -2 -2 -2 -2 -3 -7 -15 -22 -25 -26 -25 -26 -25 -23 -21 -16 -11 -10 -12 -16 -20 -22 -18 -17 -16 -16 -13 -13
1 1 1 -0 -1 -1 0 0 0 -1 -2 -2 -2 -2 -5 -11 -19 -23 -25 -24 -24 -25 -23 -23 -22 -21 -20 -19 -18 -19 -20 -19 -17 -14 -14 -15 -12 -12
1 0 -0 -1 -1 -1 -1 -0 -0 -1 -2 -2 -2 -3 -3 -8 -17 -22 -23 -22 -22 -22 -22 -22 -22 -22 -21 -19 -20 -20 -20 -20 -18 -14 -15 -16 -14 -13
0 -0 -0 -1 -1 -1 -1 -1 -1 -1 -2 -2 -2 -3 -3 -4 -12 -19 -21 -21 -22 -21 -21 -21 -21 -21 -22 -22 -23 -22 -21 -21 -17 -17 -14 -13 -14 -14
1 1 -0 -0 -1 -1 -1 -1 -2 -1 -1 -2 -2 -2 -3 -4 -5 -13 -19 -21 -21 -21 -20 -20 -20 -20 -19 -21 -22 -21 -22 -22 -22 -20 -16 -15 -16 -16
1 1 1 0 -0 -1 -1 -1 -1 -1 -2 -2 -3 -3 -3 -3 -4 -6 -13 -20 -21 -21 -21 -20 -21 -20 -19 -18 -20 -21 -21 -20 -20 -19 -19 -18 -17 -16
-0 -0 -1 -1 -1 -1 -1 -1 -1 -2 -2 -2 -3 -3 -4 -4 -4 -4 -5 -11 -19 -21 -22 -21 -21 -20 -20 -19 -16 -18 -18 -18 -19 -19 -18 -18 -18 -18
-1 -1 -2 -2 -2 -2 -2 -2 -2 -2 -2 -3 -3 -3 -4 -4 -4 -4 -4 -4 -8 -16 -15 -8 -11 -19 -21 -21 -18 -6 -11 -20 -19 -17 -17 -17 -17 -16
-2 -2 -2 -2 -3 -3 -2 -3 -2 -3 -3 -3 -4 -4 -4 -5 -5 -5 -5 -5 -5 -6 -12 -13 -13 -9 -10 -19 -22 -22 -10 -12 -12 -14 -18 -20 -18 -17